<?xml version="1.0" encoding="UTF-8" standalone="no" ?>
<gpx xmlns="http://www.topografix.com/GPX/1/1" xmlns:xsi="http://www.w3.org/2001/XMLSchema-instance" xsi:schemaLocation="http://www.topografix.com/GPX/1/1 http://www.topografix.com/GPX/1/1/gpx.xsd" version="1.1" creator="VisuGPX - https://www.visugpx.com">
  <metadata>
    <name>Miribel</name>
  </metadata>
  <trk>
    <name><![CDATA[2021-06-26 Miribel]]></name>
    <trkseg>
      <trkpt lat="46.19447" lon="6.4965">
        <ele>875.76171875</ele>
        <time>2021-06-26T12:17:59Z</time>
      </trkpt>
      <trkpt lat="46.19455" lon="6.4965">
        <ele>876.22265625</ele>
        <time>2021-06-26T12:18:29Z</time>
      </trkpt>
      <trkpt lat="46.19465" lon="6.49648">
        <ele>876.9140625</ele>
        <time>2021-06-26T12:18:58Z</time>
      </trkpt>
      <trkpt lat="46.19452" lon="6.49652">
        <ele>875.90234375</ele>
        <time>2021-06-26T12:19:37Z</time>
      </trkpt>
      <trkpt lat="46.1945" lon="6.49649">
        <ele>875.98046875</ele>
        <time>2021-06-26T12:20:07Z</time>
      </trkpt>
      <trkpt lat="46.19446" lon="6.49649">
        <ele>875.80078125</ele>
        <time>2021-06-26T12:20:21Z</time>
      </trkpt>
      <trkpt lat="46.1944" lon="6.49647">
        <ele>875.58984375</ele>
        <time>2021-06-26T12:20:47Z</time>
      </trkpt>
      <trkpt lat="46.19438" lon="6.49653">
        <ele>874.9140625</ele>
        <time>2021-06-26T12:21:15Z</time>
      </trkpt>
      <trkpt lat="46.19439" lon="6.49652">
        <ele>875.0390625</ele>
        <time>2021-06-26T12:21:35Z</time>
      </trkpt>
      <trkpt lat="46.19439" lon="6.49651">
        <ele>875.234375</ele>
        <time>2021-06-26T12:21:56Z</time>
      </trkpt>
      <trkpt lat="46.1944" lon="6.4965">
        <ele>875.3046875</ele>
        <time>2021-06-26T12:22:15Z</time>
      </trkpt>
      <trkpt lat="46.19443" lon="6.49652">
        <ele>875.3203125</ele>
        <time>2021-06-26T12:22:20Z</time>
      </trkpt>
      <trkpt lat="46.19444" lon="6.49653">
        <ele>875.19921875</ele>
        <time>2021-06-26T12:22:29Z</time>
      </trkpt>
      <trkpt lat="46.19457" lon="6.49647">
        <ele>876.59375</ele>
        <time>2021-06-26T12:22:36Z</time>
      </trkpt>
      <trkpt lat="46.1946" lon="6.49627">
        <ele>878.453125</ele>
        <time>2021-06-26T12:22:41Z</time>
      </trkpt>
      <trkpt lat="46.19461" lon="6.49624">
        <ele>878.828125</ele>
        <time>2021-06-26T12:22:42Z</time>
      </trkpt>
      <trkpt lat="46.19463" lon="6.49623">
        <ele>878.98046875</ele>
        <time>2021-06-26T12:22:43Z</time>
      </trkpt>
      <trkpt lat="46.19464" lon="6.49625">
        <ele>878.78125</ele>
        <time>2021-06-26T12:22:44Z</time>
      </trkpt>
      <trkpt lat="46.19465" lon="6.4963">
        <ele>878.328125</ele>
        <time>2021-06-26T12:22:45Z</time>
      </trkpt>
      <trkpt lat="46.19466" lon="6.49636">
        <ele>877.84375</ele>
        <time>2021-06-26T12:22:46Z</time>
      </trkpt>
      <trkpt lat="46.19467" lon="6.49642">
        <ele>877.375</ele>
        <time>2021-06-26T12:22:47Z</time>
      </trkpt>
      <trkpt lat="46.19468" lon="6.49649">
        <ele>876.90625</ele>
        <time>2021-06-26T12:22:48Z</time>
      </trkpt>
      <trkpt lat="46.1947" lon="6.49657">
        <ele>876.4296875</ele>
        <time>2021-06-26T12:22:49Z</time>
      </trkpt>
      <trkpt lat="46.19473" lon="6.49664">
        <ele>876.0546875</ele>
        <time>2021-06-26T12:22:50Z</time>
      </trkpt>
      <trkpt lat="46.19477" lon="6.49671">
        <ele>875.85546875</ele>
        <time>2021-06-26T12:22:51Z</time>
      </trkpt>
      <trkpt lat="46.19482" lon="6.49678">
        <ele>875.78515625</ele>
        <time>2021-06-26T12:22:52Z</time>
      </trkpt>
      <trkpt lat="46.19487" lon="6.49684">
        <ele>875.85546875</ele>
        <time>2021-06-26T12:22:53Z</time>
      </trkpt>
      <trkpt lat="46.19493" lon="6.4969">
        <ele>875.86328125</ele>
        <time>2021-06-26T12:22:54Z</time>
      </trkpt>
      <trkpt lat="46.19503" lon="6.49701">
        <ele>875.67578125</ele>
        <time>2021-06-26T12:22:56Z</time>
      </trkpt>
      <trkpt lat="46.19508" lon="6.49705">
        <ele>875.74609375</ele>
        <time>2021-06-26T12:22:57Z</time>
      </trkpt>
      <trkpt lat="46.19513" lon="6.4971">
        <ele>875.8203125</ele>
        <time>2021-06-26T12:22:58Z</time>
      </trkpt>
      <trkpt lat="46.19515" lon="6.49715">
        <ele>875.74609375</ele>
        <time>2021-06-26T12:22:59Z</time>
      </trkpt>
      <trkpt lat="46.19516" lon="6.49722">
        <ele>875.5703125</ele>
        <time>2021-06-26T12:23:00Z</time>
      </trkpt>
      <trkpt lat="46.19515" lon="6.49728">
        <ele>875.3515625</ele>
        <time>2021-06-26T12:23:01Z</time>
      </trkpt>
      <trkpt lat="46.19514" lon="6.49734">
        <ele>875.11328125</ele>
        <time>2021-06-26T12:23:02Z</time>
      </trkpt>
      <trkpt lat="46.19514" lon="6.49738">
        <ele>874.95703125</ele>
        <time>2021-06-26T12:23:03Z</time>
      </trkpt>
      <trkpt lat="46.19515" lon="6.49742">
        <ele>874.8828125</ele>
        <time>2021-06-26T12:23:04Z</time>
      </trkpt>
      <trkpt lat="46.19517" lon="6.49745">
        <ele>874.921875</ele>
        <time>2021-06-26T12:23:05Z</time>
      </trkpt>
      <trkpt lat="46.19519" lon="6.49747">
        <ele>875.01171875</ele>
        <time>2021-06-26T12:23:06Z</time>
      </trkpt>
      <trkpt lat="46.19521" lon="6.4975">
        <ele>875.0859375</ele>
        <time>2021-06-26T12:23:07Z</time>
      </trkpt>
      <trkpt lat="46.19523" lon="6.49753">
        <ele>875.1484375</ele>
        <time>2021-06-26T12:23:08Z</time>
      </trkpt>
      <trkpt lat="46.19524" lon="6.49758">
        <ele>875.19140625</ele>
        <time>2021-06-26T12:23:09Z</time>
      </trkpt>
      <trkpt lat="46.19524" lon="6.49763">
        <ele>875.203125</ele>
        <time>2021-06-26T12:23:10Z</time>
      </trkpt>
      <trkpt lat="46.19524" lon="6.49769">
        <ele>875.20703125</ele>
        <time>2021-06-26T12:23:11Z</time>
      </trkpt>
      <trkpt lat="46.19525" lon="6.49791">
        <ele>875.23828125</ele>
        <time>2021-06-26T12:23:16Z</time>
      </trkpt>
      <trkpt lat="46.19526" lon="6.49795">
        <ele>875.27734375</ele>
        <time>2021-06-26T12:23:17Z</time>
      </trkpt>
      <trkpt lat="46.19528" lon="6.498">
        <ele>875.3515625</ele>
        <time>2021-06-26T12:23:18Z</time>
      </trkpt>
      <trkpt lat="46.19532" lon="6.49803">
        <ele>875.4609375</ele>
        <time>2021-06-26T12:23:19Z</time>
      </trkpt>
      <trkpt lat="46.19535" lon="6.49807">
        <ele>875.59765625</ele>
        <time>2021-06-26T12:23:20Z</time>
      </trkpt>
      <trkpt lat="46.19539" lon="6.4981">
        <ele>875.7265625</ele>
        <time>2021-06-26T12:23:21Z</time>
      </trkpt>
      <trkpt lat="46.19543" lon="6.49815">
        <ele>875.859375</ele>
        <time>2021-06-26T12:23:22Z</time>
      </trkpt>
      <trkpt lat="46.19545" lon="6.49819">
        <ele>875.96484375</ele>
        <time>2021-06-26T12:23:23Z</time>
      </trkpt>
      <trkpt lat="46.19548" lon="6.49824">
        <ele>876.06640625</ele>
        <time>2021-06-26T12:23:24Z</time>
      </trkpt>
      <trkpt lat="46.19551" lon="6.49829">
        <ele>876.171875</ele>
        <time>2021-06-26T12:23:25Z</time>
      </trkpt>
      <trkpt lat="46.19554" lon="6.49833">
        <ele>876.2734375</ele>
        <time>2021-06-26T12:23:26Z</time>
      </trkpt>
      <trkpt lat="46.19557" lon="6.49838">
        <ele>876.37890625</ele>
        <time>2021-06-26T12:23:27Z</time>
      </trkpt>
      <trkpt lat="46.1956" lon="6.49842">
        <ele>876.48828125</ele>
        <time>2021-06-26T12:23:28Z</time>
      </trkpt>
      <trkpt lat="46.19578" lon="6.4986">
        <ele>877.140625</ele>
        <time>2021-06-26T12:23:34Z</time>
      </trkpt>
      <trkpt lat="46.1963" lon="6.49865">
        <ele>878</ele>
        <time>2021-06-26T12:23:47Z</time>
      </trkpt>
      <trkpt lat="46.19649" lon="6.49889">
        <ele>878.70703125</ele>
        <time>2021-06-26T12:23:53Z</time>
      </trkpt>
      <trkpt lat="46.19673" lon="6.49908">
        <ele>879</ele>
        <time>2021-06-26T12:24:00Z</time>
      </trkpt>
      <trkpt lat="46.19699" lon="6.49899">
        <ele>879</ele>
        <time>2021-06-26T12:24:06Z</time>
      </trkpt>
      <trkpt lat="46.19765" lon="6.49876">
        <ele>879</ele>
        <time>2021-06-26T12:24:17Z</time>
      </trkpt>
      <trkpt lat="46.19787" lon="6.49888">
        <ele>879</ele>
        <time>2021-06-26T12:24:22Z</time>
      </trkpt>
      <trkpt lat="46.19803" lon="6.49924">
        <ele>879</ele>
        <time>2021-06-26T12:24:29Z</time>
      </trkpt>
      <trkpt lat="46.19839" lon="6.49937">
        <ele>879</ele>
        <time>2021-06-26T12:24:38Z</time>
      </trkpt>
      <trkpt lat="46.19871" lon="6.49943">
        <ele>879</ele>
        <time>2021-06-26T12:24:45Z</time>
      </trkpt>
      <trkpt lat="46.19874" lon="6.49948">
        <ele>879</ele>
        <time>2021-06-26T12:24:46Z</time>
      </trkpt>
      <trkpt lat="46.19876" lon="6.49953">
        <ele>879</ele>
        <time>2021-06-26T12:24:47Z</time>
      </trkpt>
      <trkpt lat="46.19879" lon="6.49957">
        <ele>879</ele>
        <time>2021-06-26T12:24:48Z</time>
      </trkpt>
      <trkpt lat="46.19883" lon="6.49958">
        <ele>879</ele>
        <time>2021-06-26T12:24:49Z</time>
      </trkpt>
      <trkpt lat="46.19887" lon="6.49956">
        <ele>879</ele>
        <time>2021-06-26T12:24:50Z</time>
      </trkpt>
      <trkpt lat="46.1989" lon="6.49953">
        <ele>879</ele>
        <time>2021-06-26T12:24:51Z</time>
      </trkpt>
      <trkpt lat="46.19893" lon="6.49948">
        <ele>879</ele>
        <time>2021-06-26T12:24:52Z</time>
      </trkpt>
      <trkpt lat="46.19914" lon="6.49922">
        <ele>879</ele>
        <time>2021-06-26T12:24:58Z</time>
      </trkpt>
      <trkpt lat="46.19947" lon="6.49878">
        <ele>879.13671875</ele>
        <time>2021-06-26T12:25:09Z</time>
      </trkpt>
      <trkpt lat="46.19983" lon="6.49831">
        <ele>880.828125</ele>
        <time>2021-06-26T12:25:22Z</time>
      </trkpt>
      <trkpt lat="46.20004" lon="6.4982">
        <ele>881.70703125</ele>
        <time>2021-06-26T12:25:28Z</time>
      </trkpt>
      <trkpt lat="46.20008" lon="6.49823">
        <ele>881.73828125</ele>
        <time>2021-06-26T12:25:29Z</time>
      </trkpt>
      <trkpt lat="46.20011" lon="6.49828">
        <ele>881.6640625</ele>
        <time>2021-06-26T12:25:30Z</time>
      </trkpt>
      <trkpt lat="46.20015" lon="6.49833">
        <ele>881.41015625</ele>
        <time>2021-06-26T12:25:31Z</time>
      </trkpt>
      <trkpt lat="46.20018" lon="6.49839">
        <ele>881.09765625</ele>
        <time>2021-06-26T12:25:32Z</time>
      </trkpt>
      <trkpt lat="46.20024" lon="6.4985">
        <ele>880.46484375</ele>
        <time>2021-06-26T12:25:34Z</time>
      </trkpt>
      <trkpt lat="46.20026" lon="6.49856">
        <ele>880.26171875</ele>
        <time>2021-06-26T12:25:35Z</time>
      </trkpt>
      <trkpt lat="46.20029" lon="6.49863">
        <ele>880.26171875</ele>
        <time>2021-06-26T12:25:36Z</time>
      </trkpt>
      <trkpt lat="46.20032" lon="6.4987">
        <ele>880.21484375</ele>
        <time>2021-06-26T12:25:37Z</time>
      </trkpt>
      <trkpt lat="46.20035" lon="6.49877">
        <ele>880.11328125</ele>
        <time>2021-06-26T12:25:38Z</time>
      </trkpt>
      <trkpt lat="46.20039" lon="6.49884">
        <ele>879.98046875</ele>
        <time>2021-06-26T12:25:39Z</time>
      </trkpt>
      <trkpt lat="46.20043" lon="6.49891">
        <ele>879.96484375</ele>
        <time>2021-06-26T12:25:40Z</time>
      </trkpt>
      <trkpt lat="46.20048" lon="6.49898">
        <ele>880.0234375</ele>
        <time>2021-06-26T12:25:41Z</time>
      </trkpt>
      <trkpt lat="46.20057" lon="6.49911">
        <ele>879.9453125</ele>
        <time>2021-06-26T12:25:43Z</time>
      </trkpt>
      <trkpt lat="46.20063" lon="6.49917">
        <ele>879.74609375</ele>
        <time>2021-06-26T12:25:44Z</time>
      </trkpt>
      <trkpt lat="46.20069" lon="6.49922">
        <ele>879.55859375</ele>
        <time>2021-06-26T12:25:45Z</time>
      </trkpt>
      <trkpt lat="46.20088" lon="6.49934">
        <ele>879.0546875</ele>
        <time>2021-06-26T12:25:48Z</time>
      </trkpt>
      <trkpt lat="46.20132" lon="6.49957">
        <ele>878.0234375</ele>
        <time>2021-06-26T12:25:55Z</time>
      </trkpt>
      <trkpt lat="46.20137" lon="6.49962">
        <ele>878.02734375</ele>
        <time>2021-06-26T12:25:56Z</time>
      </trkpt>
      <trkpt lat="46.20146" lon="6.49973">
        <ele>878</ele>
        <time>2021-06-26T12:25:58Z</time>
      </trkpt>
      <trkpt lat="46.2015" lon="6.49979">
        <ele>878</ele>
        <time>2021-06-26T12:25:59Z</time>
      </trkpt>
      <trkpt lat="46.20153" lon="6.49987">
        <ele>878</ele>
        <time>2021-06-26T12:26:00Z</time>
      </trkpt>
      <trkpt lat="46.20191" lon="6.50057">
        <ele>878.52734375</ele>
        <time>2021-06-26T12:26:10Z</time>
      </trkpt>
      <trkpt lat="46.20224" lon="6.50141">
        <ele>883.86328125</ele>
        <time>2021-06-26T12:26:23Z</time>
      </trkpt>
      <trkpt lat="46.20244" lon="6.50209">
        <ele>888.73828125</ele>
        <time>2021-06-26T12:26:36Z</time>
      </trkpt>
      <trkpt lat="46.20256" lon="6.50254">
        <ele>892.37890625</ele>
        <time>2021-06-26T12:26:45Z</time>
      </trkpt>
      <trkpt lat="46.20273" lon="6.50269">
        <ele>894.046875</ele>
        <time>2021-06-26T12:26:51Z</time>
      </trkpt>
      <trkpt lat="46.20316" lon="6.5025">
        <ele>894.28125</ele>
        <time>2021-06-26T12:27:02Z</time>
      </trkpt>
      <trkpt lat="46.20325" lon="6.50246">
        <ele>894.2578125</ele>
        <time>2021-06-26T12:27:04Z</time>
      </trkpt>
      <trkpt lat="46.20396" lon="6.50224">
        <ele>894.80859375</ele>
        <time>2021-06-26T12:27:17Z</time>
      </trkpt>
      <trkpt lat="46.20457" lon="6.50205">
        <ele>894.2734375</ele>
        <time>2021-06-26T12:27:28Z</time>
      </trkpt>
      <trkpt lat="46.20546" lon="6.50222">
        <ele>893.76171875</ele>
        <time>2021-06-26T12:27:41Z</time>
      </trkpt>
      <trkpt lat="46.20648" lon="6.50231">
        <ele>893.90625</ele>
        <time>2021-06-26T12:27:57Z</time>
      </trkpt>
      <trkpt lat="46.20701" lon="6.50217">
        <ele>891.85546875</ele>
        <time>2021-06-26T12:28:06Z</time>
      </trkpt>
      <trkpt lat="46.20764" lon="6.50195">
        <ele>892.39453125</ele>
        <time>2021-06-26T12:28:19Z</time>
      </trkpt>
      <trkpt lat="46.20797" lon="6.50188">
        <ele>893.1328125</ele>
        <time>2021-06-26T12:28:27Z</time>
      </trkpt>
      <trkpt lat="46.20801" lon="6.50186">
        <ele>893.078125</ele>
        <time>2021-06-26T12:28:28Z</time>
      </trkpt>
      <trkpt lat="46.20804" lon="6.50182">
        <ele>892.89453125</ele>
        <time>2021-06-26T12:28:29Z</time>
      </trkpt>
      <trkpt lat="46.20805" lon="6.50177">
        <ele>892.5859375</ele>
        <time>2021-06-26T12:28:30Z</time>
      </trkpt>
      <trkpt lat="46.20806" lon="6.5017">
        <ele>892.1484375</ele>
        <time>2021-06-26T12:28:31Z</time>
      </trkpt>
      <trkpt lat="46.20806" lon="6.50163">
        <ele>891.61328125</ele>
        <time>2021-06-26T12:28:32Z</time>
      </trkpt>
      <trkpt lat="46.20806" lon="6.50154">
        <ele>891.171875</ele>
        <time>2021-06-26T12:28:33Z</time>
      </trkpt>
      <trkpt lat="46.20805" lon="6.50145">
        <ele>890.80859375</ele>
        <time>2021-06-26T12:28:34Z</time>
      </trkpt>
      <trkpt lat="46.20804" lon="6.50134">
        <ele>890.40234375</ele>
        <time>2021-06-26T12:28:35Z</time>
      </trkpt>
      <trkpt lat="46.20803" lon="6.50123">
        <ele>890.1875</ele>
        <time>2021-06-26T12:28:36Z</time>
      </trkpt>
      <trkpt lat="46.20801" lon="6.50097">
        <ele>889.7578125</ele>
        <time>2021-06-26T12:28:39Z</time>
      </trkpt>
      <trkpt lat="46.20802" lon="6.50081">
        <ele>889.1640625</ele>
        <time>2021-06-26T12:28:42Z</time>
      </trkpt>
      <trkpt lat="46.20804" lon="6.50076">
        <ele>889.01171875</ele>
        <time>2021-06-26T12:28:43Z</time>
      </trkpt>
      <trkpt lat="46.20808" lon="6.50072">
        <ele>888.92578125</ele>
        <time>2021-06-26T12:28:44Z</time>
      </trkpt>
      <trkpt lat="46.20811" lon="6.50068">
        <ele>888.85546875</ele>
        <time>2021-06-26T12:28:45Z</time>
      </trkpt>
      <trkpt lat="46.20814" lon="6.50062">
        <ele>888.828125</ele>
        <time>2021-06-26T12:28:46Z</time>
      </trkpt>
      <trkpt lat="46.20818" lon="6.50056">
        <ele>888.86328125</ele>
        <time>2021-06-26T12:28:47Z</time>
      </trkpt>
      <trkpt lat="46.20823" lon="6.50051">
        <ele>888.97265625</ele>
        <time>2021-06-26T12:28:48Z</time>
      </trkpt>
      <trkpt lat="46.20898" lon="6.49972">
        <ele>890.515625</ele>
        <time>2021-06-26T12:29:03Z</time>
      </trkpt>
      <trkpt lat="46.20977" lon="6.49888">
        <ele>894.54296875</ele>
        <time>2021-06-26T12:29:20Z</time>
      </trkpt>
      <trkpt lat="46.20982" lon="6.49885">
        <ele>894.7421875</ele>
        <time>2021-06-26T12:29:21Z</time>
      </trkpt>
      <trkpt lat="46.20987" lon="6.49884">
        <ele>894.8515625</ele>
        <time>2021-06-26T12:29:22Z</time>
      </trkpt>
      <trkpt lat="46.20993" lon="6.49883">
        <ele>894.9140625</ele>
        <time>2021-06-26T12:29:23Z</time>
      </trkpt>
      <trkpt lat="46.20999" lon="6.49883">
        <ele>894.9140625</ele>
        <time>2021-06-26T12:29:24Z</time>
      </trkpt>
      <trkpt lat="46.21004" lon="6.49884">
        <ele>894.88671875</ele>
        <time>2021-06-26T12:29:25Z</time>
      </trkpt>
      <trkpt lat="46.21053" lon="6.49889">
        <ele>894.81640625</ele>
        <time>2021-06-26T12:29:35Z</time>
      </trkpt>
      <trkpt lat="46.21058" lon="6.49888">
        <ele>894.87890625</ele>
        <time>2021-06-26T12:29:36Z</time>
      </trkpt>
      <trkpt lat="46.21062" lon="6.49886">
        <ele>894.9375</ele>
        <time>2021-06-26T12:29:37Z</time>
      </trkpt>
      <trkpt lat="46.21066" lon="6.49883">
        <ele>894.984375</ele>
        <time>2021-06-26T12:29:38Z</time>
      </trkpt>
      <trkpt lat="46.21069" lon="6.49881">
        <ele>895.046875</ele>
        <time>2021-06-26T12:29:39Z</time>
      </trkpt>
      <trkpt lat="46.2108" lon="6.49874">
        <ele>895.796875</ele>
        <time>2021-06-26T12:29:42Z</time>
      </trkpt>
      <trkpt lat="46.21092" lon="6.49869">
        <ele>896.58203125</ele>
        <time>2021-06-26T12:29:45Z</time>
      </trkpt>
      <trkpt lat="46.21096" lon="6.49866">
        <ele>896.93359375</ele>
        <time>2021-06-26T12:29:46Z</time>
      </trkpt>
      <trkpt lat="46.211" lon="6.49863">
        <ele>897.328125</ele>
        <time>2021-06-26T12:29:47Z</time>
      </trkpt>
      <trkpt lat="46.21103" lon="6.4986">
        <ele>897.6015625</ele>
        <time>2021-06-26T12:29:48Z</time>
      </trkpt>
      <trkpt lat="46.21108" lon="6.49859">
        <ele>897.68359375</ele>
        <time>2021-06-26T12:29:49Z</time>
      </trkpt>
      <trkpt lat="46.21112" lon="6.4986">
        <ele>897.66015625</ele>
        <time>2021-06-26T12:29:50Z</time>
      </trkpt>
      <trkpt lat="46.21117" lon="6.49862">
        <ele>897.59765625</ele>
        <time>2021-06-26T12:29:51Z</time>
      </trkpt>
      <trkpt lat="46.21189" lon="6.49877">
        <ele>897.37890625</ele>
        <time>2021-06-26T12:30:03Z</time>
      </trkpt>
      <trkpt lat="46.2128" lon="6.49905">
        <ele>898.6953125</ele>
        <time>2021-06-26T12:30:19Z</time>
      </trkpt>
      <trkpt lat="46.21286" lon="6.49906">
        <ele>898.8203125</ele>
        <time>2021-06-26T12:30:20Z</time>
      </trkpt>
      <trkpt lat="46.21324" lon="6.49903">
        <ele>900.27734375</ele>
        <time>2021-06-26T12:30:27Z</time>
      </trkpt>
      <trkpt lat="46.21329" lon="6.49903">
        <ele>900.4921875</ele>
        <time>2021-06-26T12:30:28Z</time>
      </trkpt>
      <trkpt lat="46.21359" lon="6.49907">
        <ele>901.49609375</ele>
        <time>2021-06-26T12:30:34Z</time>
      </trkpt>
      <trkpt lat="46.21372" lon="6.49903">
        <ele>902.21484375</ele>
        <time>2021-06-26T12:30:37Z</time>
      </trkpt>
      <trkpt lat="46.21393" lon="6.49895">
        <ele>903.52734375</ele>
        <time>2021-06-26T12:30:42Z</time>
      </trkpt>
      <trkpt lat="46.21396" lon="6.49893">
        <ele>903.83984375</ele>
        <time>2021-06-26T12:30:43Z</time>
      </trkpt>
      <trkpt lat="46.21413" lon="6.49886">
        <ele>905.16015625</ele>
        <time>2021-06-26T12:30:48Z</time>
      </trkpt>
      <trkpt lat="46.21421" lon="6.4989">
        <ele>905.48046875</ele>
        <time>2021-06-26T12:30:50Z</time>
      </trkpt>
      <trkpt lat="46.21465" lon="6.49916">
        <ele>906.75390625</ele>
        <time>2021-06-26T12:31:00Z</time>
      </trkpt>
      <trkpt lat="46.21469" lon="6.49917">
        <ele>906.91796875</ele>
        <time>2021-06-26T12:31:01Z</time>
      </trkpt>
      <trkpt lat="46.21473" lon="6.49916">
        <ele>907.2578125</ele>
        <time>2021-06-26T12:31:02Z</time>
      </trkpt>
      <trkpt lat="46.21475" lon="6.49911">
        <ele>907.796875</ele>
        <time>2021-06-26T12:31:03Z</time>
      </trkpt>
      <trkpt lat="46.21476" lon="6.49906">
        <ele>908.296875</ele>
        <time>2021-06-26T12:31:04Z</time>
      </trkpt>
      <trkpt lat="46.21476" lon="6.49901">
        <ele>908.6796875</ele>
        <time>2021-06-26T12:31:05Z</time>
      </trkpt>
      <trkpt lat="46.21476" lon="6.49895">
        <ele>908.99609375</ele>
        <time>2021-06-26T12:31:06Z</time>
      </trkpt>
      <trkpt lat="46.2148" lon="6.49854">
        <ele>912.2890625</ele>
        <time>2021-06-26T12:31:16Z</time>
      </trkpt>
      <trkpt lat="46.21484" lon="6.49834">
        <ele>914.0078125</ele>
        <time>2021-06-26T12:31:22Z</time>
      </trkpt>
      <trkpt lat="46.21485" lon="6.49791">
        <ele>917.671875</ele>
        <time>2021-06-26T12:31:34Z</time>
      </trkpt>
      <trkpt lat="46.21483" lon="6.49787">
        <ele>917.9921875</ele>
        <time>2021-06-26T12:31:35Z</time>
      </trkpt>
      <trkpt lat="46.21481" lon="6.49784">
        <ele>918.2734375</ele>
        <time>2021-06-26T12:31:36Z</time>
      </trkpt>
      <trkpt lat="46.21478" lon="6.49781">
        <ele>918.484375</ele>
        <time>2021-06-26T12:31:37Z</time>
      </trkpt>
      <trkpt lat="46.21475" lon="6.49779">
        <ele>918.6484375</ele>
        <time>2021-06-26T12:31:38Z</time>
      </trkpt>
      <trkpt lat="46.21472" lon="6.49776">
        <ele>918.7734375</ele>
        <time>2021-06-26T12:31:39Z</time>
      </trkpt>
      <trkpt lat="46.21469" lon="6.49774">
        <ele>918.87890625</ele>
        <time>2021-06-26T12:31:40Z</time>
      </trkpt>
      <trkpt lat="46.21426" lon="6.49746">
        <ele>921.2265625</ele>
        <time>2021-06-26T12:31:54Z</time>
      </trkpt>
      <trkpt lat="46.21402" lon="6.49738">
        <ele>921.7109375</ele>
        <time>2021-06-26T12:32:02Z</time>
      </trkpt>
      <trkpt lat="46.21374" lon="6.4972">
        <ele>923.25390625</ele>
        <time>2021-06-26T12:32:13Z</time>
      </trkpt>
      <trkpt lat="46.21348" lon="6.49688">
        <ele>925.58203125</ele>
        <time>2021-06-26T12:32:25Z</time>
      </trkpt>
      <trkpt lat="46.21325" lon="6.49655">
        <ele>927.359375</ele>
        <time>2021-06-26T12:32:38Z</time>
      </trkpt>
      <trkpt lat="46.21308" lon="6.49631">
        <ele>930.54296875</ele>
        <time>2021-06-26T12:32:47Z</time>
      </trkpt>
      <trkpt lat="46.21288" lon="6.49594">
        <ele>935.96484375</ele>
        <time>2021-06-26T12:32:59Z</time>
      </trkpt>
      <trkpt lat="46.21265" lon="6.49566">
        <ele>941.08984375</ele>
        <time>2021-06-26T12:33:11Z</time>
      </trkpt>
      <trkpt lat="46.2124" lon="6.4955">
        <ele>946.76171875</ele>
        <time>2021-06-26T12:33:23Z</time>
      </trkpt>
      <trkpt lat="46.21233" lon="6.49546">
        <ele>948.21875</ele>
        <time>2021-06-26T12:33:26Z</time>
      </trkpt>
      <trkpt lat="46.21207" lon="6.49538">
        <ele>952.90234375</ele>
        <time>2021-06-26T12:33:37Z</time>
      </trkpt>
      <trkpt lat="46.21213" lon="6.49523">
        <ele>957.30078125</ele>
        <time>2021-06-26T12:33:48Z</time>
      </trkpt>
      <trkpt lat="46.21216" lon="6.49523">
        <ele>956.953125</ele>
        <time>2021-06-26T12:33:49Z</time>
      </trkpt>
      <trkpt lat="46.21218" lon="6.49524">
        <ele>956.56640625</ele>
        <time>2021-06-26T12:33:50Z</time>
      </trkpt>
      <trkpt lat="46.2123" lon="6.49528">
        <ele>954.33984375</ele>
        <time>2021-06-26T12:33:54Z</time>
      </trkpt>
      <trkpt lat="46.21233" lon="6.49529">
        <ele>953.8203125</ele>
        <time>2021-06-26T12:33:55Z</time>
      </trkpt>
      <trkpt lat="46.21235" lon="6.4953">
        <ele>953.44140625</ele>
        <time>2021-06-26T12:33:56Z</time>
      </trkpt>
      <trkpt lat="46.21238" lon="6.4953">
        <ele>953.1796875</ele>
        <time>2021-06-26T12:33:57Z</time>
      </trkpt>
      <trkpt lat="46.2124" lon="6.4953">
        <ele>952.95703125</ele>
        <time>2021-06-26T12:33:58Z</time>
      </trkpt>
      <trkpt lat="46.21243" lon="6.49531">
        <ele>952.7421875</ele>
        <time>2021-06-26T12:33:59Z</time>
      </trkpt>
      <trkpt lat="46.21246" lon="6.49532">
        <ele>952.35546875</ele>
        <time>2021-06-26T12:34:00Z</time>
      </trkpt>
      <trkpt lat="46.21248" lon="6.49532">
        <ele>952.01171875</ele>
        <time>2021-06-26T12:34:01Z</time>
      </trkpt>
      <trkpt lat="46.21272" lon="6.49542">
        <ele>949.0703125</ele>
        <time>2021-06-26T12:34:10Z</time>
      </trkpt>
      <trkpt lat="46.21275" lon="6.49543">
        <ele>949.296875</ele>
        <time>2021-06-26T12:34:11Z</time>
      </trkpt>
      <trkpt lat="46.21296" lon="6.49551">
        <ele>950.35546875</ele>
        <time>2021-06-26T12:34:19Z</time>
      </trkpt>
      <trkpt lat="46.21324" lon="6.4956">
        <ele>953.4609375</ele>
        <time>2021-06-26T12:34:30Z</time>
      </trkpt>
      <trkpt lat="46.21326" lon="6.49561">
        <ele>953.4375</ele>
        <time>2021-06-26T12:34:31Z</time>
      </trkpt>
      <trkpt lat="46.21328" lon="6.49563">
        <ele>953.6328125</ele>
        <time>2021-06-26T12:34:32Z</time>
      </trkpt>
      <trkpt lat="46.21347" lon="6.49567">
        <ele>957.01953125</ele>
        <time>2021-06-26T12:34:40Z</time>
      </trkpt>
      <trkpt lat="46.21348" lon="6.49568">
        <ele>957.2734375</ele>
        <time>2021-06-26T12:34:41Z</time>
      </trkpt>
      <trkpt lat="46.2135" lon="6.49569">
        <ele>957.3515625</ele>
        <time>2021-06-26T12:34:42Z</time>
      </trkpt>
      <trkpt lat="46.21352" lon="6.49569">
        <ele>957.5078125</ele>
        <time>2021-06-26T12:34:43Z</time>
      </trkpt>
      <trkpt lat="46.21354" lon="6.49569">
        <ele>957.8046875</ele>
        <time>2021-06-26T12:34:44Z</time>
      </trkpt>
      <trkpt lat="46.21355" lon="6.49569">
        <ele>958.0625</ele>
        <time>2021-06-26T12:34:45Z</time>
      </trkpt>
      <trkpt lat="46.21357" lon="6.4957">
        <ele>958.11328125</ele>
        <time>2021-06-26T12:34:46Z</time>
      </trkpt>
      <trkpt lat="46.21359" lon="6.4957">
        <ele>958.19921875</ele>
        <time>2021-06-26T12:34:47Z</time>
      </trkpt>
      <trkpt lat="46.21362" lon="6.49571">
        <ele>958.3046875</ele>
        <time>2021-06-26T12:34:48Z</time>
      </trkpt>
      <trkpt lat="46.21364" lon="6.49572">
        <ele>958.41015625</ele>
        <time>2021-06-26T12:34:49Z</time>
      </trkpt>
      <trkpt lat="46.21367" lon="6.49573">
        <ele>958.4765625</ele>
        <time>2021-06-26T12:34:50Z</time>
      </trkpt>
      <trkpt lat="46.21394" lon="6.49558">
        <ele>966.6796875</ele>
        <time>2021-06-26T12:34:59Z</time>
      </trkpt>
      <trkpt lat="46.21396" lon="6.49554">
        <ele>968.0546875</ele>
        <time>2021-06-26T12:35:00Z</time>
      </trkpt>
      <trkpt lat="46.21397" lon="6.49551">
        <ele>969.2578125</ele>
        <time>2021-06-26T12:35:01Z</time>
      </trkpt>
      <trkpt lat="46.21397" lon="6.49547">
        <ele>970.3828125</ele>
        <time>2021-06-26T12:35:02Z</time>
      </trkpt>
      <trkpt lat="46.21395" lon="6.49544">
        <ele>971.3828125</ele>
        <time>2021-06-26T12:35:03Z</time>
      </trkpt>
      <trkpt lat="46.21394" lon="6.49542">
        <ele>971.87109375</ele>
        <time>2021-06-26T12:35:04Z</time>
      </trkpt>
      <trkpt lat="46.21392" lon="6.49541">
        <ele>972.046875</ele>
        <time>2021-06-26T12:35:05Z</time>
      </trkpt>
      <trkpt lat="46.21363" lon="6.4954">
        <ele>968.66015625</ele>
        <time>2021-06-26T12:35:17Z</time>
      </trkpt>
      <trkpt lat="46.21342" lon="6.49527">
        <ele>969.61328125</ele>
        <time>2021-06-26T12:35:26Z</time>
      </trkpt>
      <trkpt lat="46.21334" lon="6.49519">
        <ele>970.43359375</ele>
        <time>2021-06-26T12:35:30Z</time>
      </trkpt>
      <trkpt lat="46.21306" lon="6.49482">
        <ele>977.796875</ele>
        <time>2021-06-26T12:35:45Z</time>
      </trkpt>
      <trkpt lat="46.21283" lon="6.49452">
        <ele>984.3515625</ele>
        <time>2021-06-26T12:35:58Z</time>
      </trkpt>
      <trkpt lat="46.2128" lon="6.49447">
        <ele>985.41796875</ele>
        <time>2021-06-26T12:36:00Z</time>
      </trkpt>
      <trkpt lat="46.21278" lon="6.49444">
        <ele>986.0546875</ele>
        <time>2021-06-26T12:36:01Z</time>
      </trkpt>
      <trkpt lat="46.21277" lon="6.49442">
        <ele>986.484375</ele>
        <time>2021-06-26T12:36:02Z</time>
      </trkpt>
      <trkpt lat="46.21255" lon="6.49418">
        <ele>992.9921875</ele>
        <time>2021-06-26T12:36:12Z</time>
      </trkpt>
      <trkpt lat="46.21232" lon="6.49384">
        <ele>1003.171875</ele>
        <time>2021-06-26T12:36:24Z</time>
      </trkpt>
      <trkpt lat="46.21232" lon="6.49382">
        <ele>1003.69921875</ele>
        <time>2021-06-26T12:36:25Z</time>
      </trkpt>
      <trkpt lat="46.21233" lon="6.4938">
        <ele>1004.05078125</ele>
        <time>2021-06-26T12:36:26Z</time>
      </trkpt>
      <trkpt lat="46.21235" lon="6.49379">
        <ele>1004.09375</ele>
        <time>2021-06-26T12:36:27Z</time>
      </trkpt>
      <trkpt lat="46.21238" lon="6.49378">
        <ele>1004.12890625</ele>
        <time>2021-06-26T12:36:28Z</time>
      </trkpt>
      <trkpt lat="46.2124" lon="6.49377">
        <ele>1004.17578125</ele>
        <time>2021-06-26T12:36:29Z</time>
      </trkpt>
      <trkpt lat="46.2126" lon="6.49387">
        <ele>1000.5</ele>
        <time>2021-06-26T12:36:39Z</time>
      </trkpt>
      <trkpt lat="46.21296" lon="6.49401">
        <ele>999.94140625</ele>
        <time>2021-06-26T12:36:53Z</time>
      </trkpt>
      <trkpt lat="46.21316" lon="6.49411">
        <ele>1000.53125</ele>
        <time>2021-06-26T12:37:05Z</time>
      </trkpt>
      <trkpt lat="46.21333" lon="6.49425">
        <ele>1000.4765625</ele>
        <time>2021-06-26T12:37:12Z</time>
      </trkpt>
      <trkpt lat="46.21335" lon="6.49427">
        <ele>1000.46875</ele>
        <time>2021-06-26T12:37:13Z</time>
      </trkpt>
      <trkpt lat="46.21337" lon="6.49429">
        <ele>1000.5546875</ele>
        <time>2021-06-26T12:37:14Z</time>
      </trkpt>
      <trkpt lat="46.21339" lon="6.49431">
        <ele>1000.53515625</ele>
        <time>2021-06-26T12:37:15Z</time>
      </trkpt>
      <trkpt lat="46.2134" lon="6.49433">
        <ele>1000.31640625</ele>
        <time>2021-06-26T12:37:16Z</time>
      </trkpt>
      <trkpt lat="46.21342" lon="6.49435">
        <ele>1000.1796875</ele>
        <time>2021-06-26T12:37:17Z</time>
      </trkpt>
      <trkpt lat="46.21343" lon="6.49438">
        <ele>1000.01171875</ele>
        <time>2021-06-26T12:37:18Z</time>
      </trkpt>
      <trkpt lat="46.21365" lon="6.4946">
        <ele>1000.48046875</ele>
        <time>2021-06-26T12:37:30Z</time>
      </trkpt>
      <trkpt lat="46.21375" lon="6.4947">
        <ele>999.796875</ele>
        <time>2021-06-26T12:37:36Z</time>
      </trkpt>
      <trkpt lat="46.21377" lon="6.49472">
        <ele>999.58203125</ele>
        <time>2021-06-26T12:37:37Z</time>
      </trkpt>
      <trkpt lat="46.21406" lon="6.49483">
        <ele>1000.59765625</ele>
        <time>2021-06-26T12:37:48Z</time>
      </trkpt>
      <trkpt lat="46.2144" lon="6.49479">
        <ele>1007.19140625</ele>
        <time>2021-06-26T12:38:01Z</time>
      </trkpt>
      <trkpt lat="46.21447" lon="6.49449">
        <ele>1017.3359375</ele>
        <time>2021-06-26T12:38:10Z</time>
      </trkpt>
      <trkpt lat="46.21431" lon="6.49436">
        <ele>1018.9765625</ele>
        <time>2021-06-26T12:38:17Z</time>
      </trkpt>
      <trkpt lat="46.21409" lon="6.49401">
        <ele>1022.5859375</ele>
        <time>2021-06-26T12:38:30Z</time>
      </trkpt>
      <trkpt lat="46.21408" lon="6.49399">
        <ele>1022.83203125</ele>
        <time>2021-06-26T12:38:31Z</time>
      </trkpt>
      <trkpt lat="46.21407" lon="6.49396">
        <ele>1023.05859375</ele>
        <time>2021-06-26T12:38:32Z</time>
      </trkpt>
      <trkpt lat="46.21406" lon="6.49393">
        <ele>1023.2890625</ele>
        <time>2021-06-26T12:38:33Z</time>
      </trkpt>
      <trkpt lat="46.21405" lon="6.4939">
        <ele>1023.41015625</ele>
        <time>2021-06-26T12:38:34Z</time>
      </trkpt>
      <trkpt lat="46.21403" lon="6.49387">
        <ele>1023.4609375</ele>
        <time>2021-06-26T12:38:35Z</time>
      </trkpt>
      <trkpt lat="46.21401" lon="6.49384">
        <ele>1023.47265625</ele>
        <time>2021-06-26T12:38:36Z</time>
      </trkpt>
      <trkpt lat="46.21399" lon="6.49381">
        <ele>1023.546875</ele>
        <time>2021-06-26T12:38:37Z</time>
      </trkpt>
      <trkpt lat="46.21398" lon="6.49379">
        <ele>1023.63671875</ele>
        <time>2021-06-26T12:38:38Z</time>
      </trkpt>
      <trkpt lat="46.21382" lon="6.49352">
        <ele>1024.07421875</ele>
        <time>2021-06-26T12:38:47Z</time>
      </trkpt>
      <trkpt lat="46.21356" lon="6.49313">
        <ele>1026.484375</ele>
        <time>2021-06-26T12:39:00Z</time>
      </trkpt>
      <trkpt lat="46.21358" lon="6.49285">
        <ele>1032.72265625</ele>
        <time>2021-06-26T12:39:08Z</time>
      </trkpt>
      <trkpt lat="46.21361" lon="6.49284">
        <ele>1033.46484375</ele>
        <time>2021-06-26T12:39:09Z</time>
      </trkpt>
      <trkpt lat="46.21396" lon="6.49288">
        <ele>1039.015625</ele>
        <time>2021-06-26T12:39:22Z</time>
      </trkpt>
      <trkpt lat="46.21425" lon="6.49295">
        <ele>1041.75390625</ele>
        <time>2021-06-26T12:39:33Z</time>
      </trkpt>
      <trkpt lat="46.21459" lon="6.49302">
        <ele>1044.07421875</ele>
        <time>2021-06-26T12:39:47Z</time>
      </trkpt>
      <trkpt lat="46.21469" lon="6.49296">
        <ele>1045.7578125</ele>
        <time>2021-06-26T12:39:51Z</time>
      </trkpt>
      <trkpt lat="46.21471" lon="6.49292">
        <ele>1046.4140625</ele>
        <time>2021-06-26T12:39:52Z</time>
      </trkpt>
      <trkpt lat="46.21471" lon="6.49288">
        <ele>1047.07421875</ele>
        <time>2021-06-26T12:39:53Z</time>
      </trkpt>
      <trkpt lat="46.21471" lon="6.49285">
        <ele>1047.73046875</ele>
        <time>2021-06-26T12:39:54Z</time>
      </trkpt>
      <trkpt lat="46.2147" lon="6.49281">
        <ele>1048.30078125</ele>
        <time>2021-06-26T12:39:55Z</time>
      </trkpt>
      <trkpt lat="46.21468" lon="6.49278">
        <ele>1048.79296875</ele>
        <time>2021-06-26T12:39:56Z</time>
      </trkpt>
      <trkpt lat="46.21466" lon="6.49276">
        <ele>1049.15625</ele>
        <time>2021-06-26T12:39:57Z</time>
      </trkpt>
      <trkpt lat="46.21463" lon="6.49274">
        <ele>1049.40625</ele>
        <time>2021-06-26T12:39:58Z</time>
      </trkpt>
      <trkpt lat="46.21461" lon="6.49274">
        <ele>1049.4140625</ele>
        <time>2021-06-26T12:39:59Z</time>
      </trkpt>
      <trkpt lat="46.21458" lon="6.49273">
        <ele>1049.234375</ele>
        <time>2021-06-26T12:40:00Z</time>
      </trkpt>
      <trkpt lat="46.21427" lon="6.4925">
        <ele>1049.9296875</ele>
        <time>2021-06-26T12:40:13Z</time>
      </trkpt>
      <trkpt lat="46.21402" lon="6.49216">
        <ele>1053.37109375</ele>
        <time>2021-06-26T12:40:27Z</time>
      </trkpt>
      <trkpt lat="46.21388" lon="6.49197">
        <ele>1056.2890625</ele>
        <time>2021-06-26T12:40:36Z</time>
      </trkpt>
      <trkpt lat="46.21361" lon="6.49183">
        <ele>1059.1796875</ele>
        <time>2021-06-26T12:40:48Z</time>
      </trkpt>
      <trkpt lat="46.21359" lon="6.49183">
        <ele>1059.03125</ele>
        <time>2021-06-26T12:40:49Z</time>
      </trkpt>
      <trkpt lat="46.21354" lon="6.49182">
        <ele>1059.23828125</ele>
        <time>2021-06-26T12:40:52Z</time>
      </trkpt>
      <trkpt lat="46.2135" lon="6.49182">
        <ele>1059.10546875</ele>
        <time>2021-06-26T12:40:54Z</time>
      </trkpt>
      <trkpt lat="46.21347" lon="6.49183">
        <ele>1058.58984375</ele>
        <time>2021-06-26T12:40:55Z</time>
      </trkpt>
      <trkpt lat="46.21345" lon="6.49183">
        <ele>1058.3515625</ele>
        <time>2021-06-26T12:40:56Z</time>
      </trkpt>
      <trkpt lat="46.2134" lon="6.49183">
        <ele>1058.2109375</ele>
        <time>2021-06-26T12:41:00Z</time>
      </trkpt>
      <trkpt lat="46.21337" lon="6.49182">
        <ele>1058.26953125</ele>
        <time>2021-06-26T12:41:01Z</time>
      </trkpt>
      <trkpt lat="46.21334" lon="6.49181">
        <ele>1058.33984375</ele>
        <time>2021-06-26T12:41:02Z</time>
      </trkpt>
      <trkpt lat="46.2133" lon="6.49181">
        <ele>1058.31640625</ele>
        <time>2021-06-26T12:41:03Z</time>
      </trkpt>
      <trkpt lat="46.21327" lon="6.4918">
        <ele>1058.453125</ele>
        <time>2021-06-26T12:41:04Z</time>
      </trkpt>
      <trkpt lat="46.21294" lon="6.49172">
        <ele>1059.58203125</ele>
        <time>2021-06-26T12:41:16Z</time>
      </trkpt>
      <trkpt lat="46.21291" lon="6.49171">
        <ele>1060.03125</ele>
        <time>2021-06-26T12:41:17Z</time>
      </trkpt>
      <trkpt lat="46.21288" lon="6.49169">
        <ele>1060.4375</ele>
        <time>2021-06-26T12:41:18Z</time>
      </trkpt>
      <trkpt lat="46.21286" lon="6.49168">
        <ele>1060.73046875</ele>
        <time>2021-06-26T12:41:19Z</time>
      </trkpt>
      <trkpt lat="46.21283" lon="6.49167">
        <ele>1061.171875</ele>
        <time>2021-06-26T12:41:20Z</time>
      </trkpt>
      <trkpt lat="46.21282" lon="6.49165">
        <ele>1061.578125</ele>
        <time>2021-06-26T12:41:21Z</time>
      </trkpt>
      <trkpt lat="46.2128" lon="6.49165">
        <ele>1061.796875</ele>
        <time>2021-06-26T12:41:22Z</time>
      </trkpt>
      <trkpt lat="46.21279" lon="6.49164">
        <ele>1061.9609375</ele>
        <time>2021-06-26T12:41:23Z</time>
      </trkpt>
      <trkpt lat="46.21277" lon="6.49163">
        <ele>1062.11328125</ele>
        <time>2021-06-26T12:41:24Z</time>
      </trkpt>
      <trkpt lat="46.21276" lon="6.49162">
        <ele>1062.44140625</ele>
        <time>2021-06-26T12:41:25Z</time>
      </trkpt>
      <trkpt lat="46.21274" lon="6.49161">
        <ele>1062.91015625</ele>
        <time>2021-06-26T12:41:26Z</time>
      </trkpt>
      <trkpt lat="46.21252" lon="6.49143">
        <ele>1068.46875</ele>
        <time>2021-06-26T12:41:37Z</time>
      </trkpt>
      <trkpt lat="46.21233" lon="6.49132">
        <ele>1071.97265625</ele>
        <time>2021-06-26T12:41:44Z</time>
      </trkpt>
      <trkpt lat="46.2123" lon="6.49132">
        <ele>1071.8359375</ele>
        <time>2021-06-26T12:41:45Z</time>
      </trkpt>
      <trkpt lat="46.21227" lon="6.49131">
        <ele>1072.0703125</ele>
        <time>2021-06-26T12:41:46Z</time>
      </trkpt>
      <trkpt lat="46.21224" lon="6.49129">
        <ele>1072.41796875</ele>
        <time>2021-06-26T12:41:47Z</time>
      </trkpt>
      <trkpt lat="46.2122" lon="6.49128">
        <ele>1072.91796875</ele>
        <time>2021-06-26T12:41:48Z</time>
      </trkpt>
      <trkpt lat="46.21218" lon="6.49126">
        <ele>1073.4140625</ele>
        <time>2021-06-26T12:41:49Z</time>
      </trkpt>
      <trkpt lat="46.21193" lon="6.49113">
        <ele>1077.40234375</ele>
        <time>2021-06-26T12:41:59Z</time>
      </trkpt>
      <trkpt lat="46.21183" lon="6.49108">
        <ele>1078.859375</ele>
        <time>2021-06-26T12:42:04Z</time>
      </trkpt>
      <trkpt lat="46.21181" lon="6.49107">
        <ele>1078.88671875</ele>
        <time>2021-06-26T12:42:05Z</time>
      </trkpt>
      <trkpt lat="46.2118" lon="6.49106">
        <ele>1079.359375</ele>
        <time>2021-06-26T12:42:06Z</time>
      </trkpt>
      <trkpt lat="46.21147" lon="6.49098">
        <ele>1081.50390625</ele>
        <time>2021-06-26T12:42:17Z</time>
      </trkpt>
      <trkpt lat="46.21139" lon="6.49096">
        <ele>1082.5234375</ele>
        <time>2021-06-26T12:42:20Z</time>
      </trkpt>
      <trkpt lat="46.21137" lon="6.49096">
        <ele>1082.64453125</ele>
        <time>2021-06-26T12:42:21Z</time>
      </trkpt>
      <trkpt lat="46.21134" lon="6.49095">
        <ele>1082.9375</ele>
        <time>2021-06-26T12:42:22Z</time>
      </trkpt>
      <trkpt lat="46.21132" lon="6.49094">
        <ele>1083.375</ele>
        <time>2021-06-26T12:42:23Z</time>
      </trkpt>
      <trkpt lat="46.21129" lon="6.49093">
        <ele>1083.73828125</ele>
        <time>2021-06-26T12:42:24Z</time>
      </trkpt>
      <trkpt lat="46.2112" lon="6.49088">
        <ele>1086.54296875</ele>
        <time>2021-06-26T12:42:27Z</time>
      </trkpt>
      <trkpt lat="46.21119" lon="6.49087">
        <ele>1086.9765625</ele>
        <time>2021-06-26T12:42:28Z</time>
      </trkpt>
      <trkpt lat="46.21101" lon="6.49083">
        <ele>1091.171875</ele>
        <time>2021-06-26T12:42:38Z</time>
      </trkpt>
      <trkpt lat="46.21091" lon="6.49082">
        <ele>1093.45703125</ele>
        <time>2021-06-26T12:42:44Z</time>
      </trkpt>
      <trkpt lat="46.21061" lon="6.49095">
        <ele>1096.140625</ele>
        <time>2021-06-26T12:42:58Z</time>
      </trkpt>
      <trkpt lat="46.21059" lon="6.49097">
        <ele>1096.25</ele>
        <time>2021-06-26T12:42:59Z</time>
      </trkpt>
      <trkpt lat="46.21055" lon="6.49098">
        <ele>1096.46875</ele>
        <time>2021-06-26T12:43:00Z</time>
      </trkpt>
      <trkpt lat="46.21028" lon="6.49111">
        <ele>1099.328125</ele>
        <time>2021-06-26T12:43:08Z</time>
      </trkpt>
      <trkpt lat="46.21025" lon="6.49113">
        <ele>1099.66015625</ele>
        <time>2021-06-26T12:43:09Z</time>
      </trkpt>
      <trkpt lat="46.20998" lon="6.49126">
        <ele>1102.17578125</ele>
        <time>2021-06-26T12:43:20Z</time>
      </trkpt>
      <trkpt lat="46.20996" lon="6.49126">
        <ele>1102.94140625</ele>
        <time>2021-06-26T12:43:21Z</time>
      </trkpt>
      <trkpt lat="46.20993" lon="6.49125">
        <ele>1103.890625</ele>
        <time>2021-06-26T12:43:22Z</time>
      </trkpt>
      <trkpt lat="46.20967" lon="6.49128">
        <ele>1107.03125</ele>
        <time>2021-06-26T12:43:32Z</time>
      </trkpt>
      <trkpt lat="46.20949" lon="6.49121">
        <ele>1111.95703125</ele>
        <time>2021-06-26T12:43:42Z</time>
      </trkpt>
      <trkpt lat="46.20899" lon="6.49139">
        <ele>1107.3046875</ele>
        <time>2021-06-26T12:43:55Z</time>
      </trkpt>
      <trkpt lat="46.20868" lon="6.49131">
        <ele>1110.640625</ele>
        <time>2021-06-26T12:44:06Z</time>
      </trkpt>
      <trkpt lat="46.20844" lon="6.49115">
        <ele>1117.5703125</ele>
        <time>2021-06-26T12:44:16Z</time>
      </trkpt>
      <trkpt lat="46.20843" lon="6.49114">
        <ele>1118.18359375</ele>
        <time>2021-06-26T12:44:17Z</time>
      </trkpt>
      <trkpt lat="46.20806" lon="6.49109">
        <ele>1121.1875</ele>
        <time>2021-06-26T12:44:27Z</time>
      </trkpt>
      <trkpt lat="46.20776" lon="6.49107">
        <ele>1124.81640625</ele>
        <time>2021-06-26T12:44:38Z</time>
      </trkpt>
      <trkpt lat="46.20745" lon="6.49114">
        <ele>1125.41796875</ele>
        <time>2021-06-26T12:44:47Z</time>
      </trkpt>
      <trkpt lat="46.20734" lon="6.49117">
        <ele>1124.87109375</ele>
        <time>2021-06-26T12:44:50Z</time>
      </trkpt>
      <trkpt lat="46.20708" lon="6.49122">
        <ele>1123.71875</ele>
        <time>2021-06-26T12:44:58Z</time>
      </trkpt>
      <trkpt lat="46.20668" lon="6.49113">
        <ele>1131.52734375</ele>
        <time>2021-06-26T12:45:11Z</time>
      </trkpt>
      <trkpt lat="46.20651" lon="6.49109">
        <ele>1135.046875</ele>
        <time>2021-06-26T12:45:17Z</time>
      </trkpt>
      <trkpt lat="46.20648" lon="6.49109">
        <ele>1135.12109375</ele>
        <time>2021-06-26T12:45:18Z</time>
      </trkpt>
      <trkpt lat="46.20637" lon="6.4911">
        <ele>1135.234375</ele>
        <time>2021-06-26T12:45:22Z</time>
      </trkpt>
      <trkpt lat="46.20635" lon="6.49112">
        <ele>1134.46875</ele>
        <time>2021-06-26T12:45:23Z</time>
      </trkpt>
      <trkpt lat="46.20633" lon="6.49113">
        <ele>1134.05078125</ele>
        <time>2021-06-26T12:45:24Z</time>
      </trkpt>
      <trkpt lat="46.20631" lon="6.49114">
        <ele>1133.87890625</ele>
        <time>2021-06-26T12:45:25Z</time>
      </trkpt>
      <trkpt lat="46.20603" lon="6.49117">
        <ele>1133.88671875</ele>
        <time>2021-06-26T12:45:35Z</time>
      </trkpt>
      <trkpt lat="46.20568" lon="6.49114">
        <ele>1133.3984375</ele>
        <time>2021-06-26T12:45:45Z</time>
      </trkpt>
      <trkpt lat="46.20556" lon="6.4911">
        <ele>1133.28515625</ele>
        <time>2021-06-26T12:45:49Z</time>
      </trkpt>
      <trkpt lat="46.20533" lon="6.49089">
        <ele>1136.70703125</ele>
        <time>2021-06-26T12:45:58Z</time>
      </trkpt>
      <trkpt lat="46.20508" lon="6.49059">
        <ele>1139.44921875</ele>
        <time>2021-06-26T12:46:09Z</time>
      </trkpt>
      <trkpt lat="46.20486" lon="6.4902">
        <ele>1145.65625</ele>
        <time>2021-06-26T12:46:21Z</time>
      </trkpt>
      <trkpt lat="46.20453" lon="6.49005">
        <ele>1142.734375</ele>
        <time>2021-06-26T12:46:32Z</time>
      </trkpt>
      <trkpt lat="46.20422" lon="6.48989">
        <ele>1148.73828125</ele>
        <time>2021-06-26T12:46:42Z</time>
      </trkpt>
      <trkpt lat="46.20395" lon="6.48942">
        <ele>1168.40625</ele>
        <time>2021-06-26T12:46:55Z</time>
      </trkpt>
      <trkpt lat="46.20388" lon="6.48938">
        <ele>1170.78515625</ele>
        <time>2021-06-26T12:46:57Z</time>
      </trkpt>
      <trkpt lat="46.20384" lon="6.48939">
        <ele>1171.08984375</ele>
        <time>2021-06-26T12:46:58Z</time>
      </trkpt>
      <trkpt lat="46.2038" lon="6.4894">
        <ele>1171.43359375</ele>
        <time>2021-06-26T12:46:59Z</time>
      </trkpt>
      <trkpt lat="46.20376" lon="6.48941">
        <ele>1171.625</ele>
        <time>2021-06-26T12:47:00Z</time>
      </trkpt>
      <trkpt lat="46.20372" lon="6.48943">
        <ele>1171.64453125</ele>
        <time>2021-06-26T12:47:01Z</time>
      </trkpt>
      <trkpt lat="46.20342" lon="6.48943">
        <ele>1176.45703125</ele>
        <time>2021-06-26T12:47:12Z</time>
      </trkpt>
      <trkpt lat="46.20341" lon="6.4894">
        <ele>1177.390625</ele>
        <time>2021-06-26T12:47:13Z</time>
      </trkpt>
      <trkpt lat="46.20341" lon="6.48937">
        <ele>1178.12109375</ele>
        <time>2021-06-26T12:47:14Z</time>
      </trkpt>
      <trkpt lat="46.20341" lon="6.48932">
        <ele>1178.66796875</ele>
        <time>2021-06-26T12:47:15Z</time>
      </trkpt>
      <trkpt lat="46.20343" lon="6.48928">
        <ele>1179.1640625</ele>
        <time>2021-06-26T12:47:16Z</time>
      </trkpt>
      <trkpt lat="46.20344" lon="6.48924">
        <ele>1179.5703125</ele>
        <time>2021-06-26T12:47:17Z</time>
      </trkpt>
      <trkpt lat="46.20345" lon="6.48921">
        <ele>1179.81640625</ele>
        <time>2021-06-26T12:47:18Z</time>
      </trkpt>
      <trkpt lat="46.20347" lon="6.48919">
        <ele>1179.94921875</ele>
        <time>2021-06-26T12:47:19Z</time>
      </trkpt>
      <trkpt lat="46.2035" lon="6.48917">
        <ele>1180.015625</ele>
        <time>2021-06-26T12:47:20Z</time>
      </trkpt>
      <trkpt lat="46.20369" lon="6.48905">
        <ele>1179.81640625</ele>
        <time>2021-06-26T12:47:27Z</time>
      </trkpt>
      <trkpt lat="46.20384" lon="6.48896">
        <ele>1179.77734375</ele>
        <time>2021-06-26T12:47:33Z</time>
      </trkpt>
      <trkpt lat="46.20395" lon="6.48888">
        <ele>1180.33984375</ele>
        <time>2021-06-26T12:47:37Z</time>
      </trkpt>
      <trkpt lat="46.20417" lon="6.48875">
        <ele>1182.4296875</ele>
        <time>2021-06-26T12:47:45Z</time>
      </trkpt>
      <trkpt lat="46.20438" lon="6.48878">
        <ele>1183.16796875</ele>
        <time>2021-06-26T12:47:53Z</time>
      </trkpt>
      <trkpt lat="46.20441" lon="6.48881">
        <ele>1183.15234375</ele>
        <time>2021-06-26T12:47:54Z</time>
      </trkpt>
      <trkpt lat="46.20469" lon="6.48924">
        <ele>1179.1484375</ele>
        <time>2021-06-26T12:48:07Z</time>
      </trkpt>
      <trkpt lat="46.20476" lon="6.48932">
        <ele>1178.57421875</ele>
        <time>2021-06-26T12:48:10Z</time>
      </trkpt>
      <trkpt lat="46.20478" lon="6.48934">
        <ele>1178.546875</ele>
        <time>2021-06-26T12:48:11Z</time>
      </trkpt>
      <trkpt lat="46.20493" lon="6.4895">
        <ele>1177.515625</ele>
        <time>2021-06-26T12:48:19Z</time>
      </trkpt>
      <trkpt lat="46.20495" lon="6.48952">
        <ele>1177.37890625</ele>
        <time>2021-06-26T12:48:20Z</time>
      </trkpt>
      <trkpt lat="46.20515" lon="6.48972">
        <ele>1176.2421875</ele>
        <time>2021-06-26T12:48:30Z</time>
      </trkpt>
      <trkpt lat="46.2052" lon="6.48975">
        <ele>1176.578125</ele>
        <time>2021-06-26T12:48:32Z</time>
      </trkpt>
      <trkpt lat="46.20545" lon="6.48988">
        <ele>1180.3984375</ele>
        <time>2021-06-26T12:48:43Z</time>
      </trkpt>
      <trkpt lat="46.20574" lon="6.48986">
        <ele>1189.51171875</ele>
        <time>2021-06-26T12:48:54Z</time>
      </trkpt>
      <trkpt lat="46.20602" lon="6.48983">
        <ele>1197.72265625</ele>
        <time>2021-06-26T12:49:04Z</time>
      </trkpt>
      <trkpt lat="46.20634" lon="6.48974">
        <ele>1201.8671875</ele>
        <time>2021-06-26T12:49:14Z</time>
      </trkpt>
      <trkpt lat="46.20652" lon="6.48939">
        <ele>1213.953125</ele>
        <time>2021-06-26T12:49:25Z</time>
      </trkpt>
      <trkpt lat="46.20677" lon="6.48907">
        <ele>1219.7578125</ele>
        <time>2021-06-26T12:49:37Z</time>
      </trkpt>
      <trkpt lat="46.2068" lon="6.48906">
        <ele>1219.3671875</ele>
        <time>2021-06-26T12:49:38Z</time>
      </trkpt>
      <trkpt lat="46.2071" lon="6.48899">
        <ele>1217.140625</ele>
        <time>2021-06-26T12:49:49Z</time>
      </trkpt>
      <trkpt lat="46.20721" lon="6.48898">
        <ele>1217.0390625</ele>
        <time>2021-06-26T12:49:53Z</time>
      </trkpt>
      <trkpt lat="46.20757" lon="6.48889">
        <ele>1221.30078125</ele>
        <time>2021-06-26T12:50:06Z</time>
      </trkpt>
      <trkpt lat="46.20787" lon="6.48879">
        <ele>1227.390625</ele>
        <time>2021-06-26T12:50:17Z</time>
      </trkpt>
      <trkpt lat="46.20796" lon="6.48876">
        <ele>1229.14453125</ele>
        <time>2021-06-26T12:50:20Z</time>
      </trkpt>
      <trkpt lat="46.20833" lon="6.48857">
        <ele>1234.8046875</ele>
        <time>2021-06-26T12:50:33Z</time>
      </trkpt>
      <trkpt lat="46.20866" lon="6.48818">
        <ele>1237.26171875</ele>
        <time>2021-06-26T12:50:46Z</time>
      </trkpt>
      <trkpt lat="46.20895" lon="6.48768">
        <ele>1239.375</ele>
        <time>2021-06-26T12:51:01Z</time>
      </trkpt>
      <trkpt lat="46.20918" lon="6.48738">
        <ele>1242.57421875</ele>
        <time>2021-06-26T12:51:11Z</time>
      </trkpt>
      <trkpt lat="46.20945" lon="6.48726">
        <ele>1241.390625</ele>
        <time>2021-06-26T12:51:23Z</time>
      </trkpt>
      <trkpt lat="46.20983" lon="6.48719">
        <ele>1239.78125</ele>
        <time>2021-06-26T12:51:35Z</time>
      </trkpt>
      <trkpt lat="46.21023" lon="6.48712">
        <ele>1241.16015625</ele>
        <time>2021-06-26T12:51:47Z</time>
      </trkpt>
      <trkpt lat="46.21048" lon="6.48682">
        <ele>1247.8203125</ele>
        <time>2021-06-26T12:51:58Z</time>
      </trkpt>
      <trkpt lat="46.2104" lon="6.48643">
        <ele>1254.5234375</ele>
        <time>2021-06-26T12:52:09Z</time>
      </trkpt>
      <trkpt lat="46.21016" lon="6.48629">
        <ele>1259.29296875</ele>
        <time>2021-06-26T12:52:18Z</time>
      </trkpt>
      <trkpt lat="46.21009" lon="6.48623">
        <ele>1260.4375</ele>
        <time>2021-06-26T12:52:22Z</time>
      </trkpt>
      <trkpt lat="46.20992" lon="6.48607">
        <ele>1264.39453125</ele>
        <time>2021-06-26T12:52:29Z</time>
      </trkpt>
      <trkpt lat="46.20991" lon="6.48604">
        <ele>1264.65234375</ele>
        <time>2021-06-26T12:52:30Z</time>
      </trkpt>
      <trkpt lat="46.20989" lon="6.48595">
        <ele>1264.99609375</ele>
        <time>2021-06-26T12:52:33Z</time>
      </trkpt>
      <trkpt lat="46.20978" lon="6.48576">
        <ele>1268.2109375</ele>
        <time>2021-06-26T12:52:41Z</time>
      </trkpt>
      <trkpt lat="46.20955" lon="6.48518">
        <ele>1268.3828125</ele>
        <time>2021-06-26T12:52:52Z</time>
      </trkpt>
      <trkpt lat="46.20967" lon="6.48471">
        <ele>1266.796875</ele>
        <time>2021-06-26T12:53:04Z</time>
      </trkpt>
      <trkpt lat="46.21005" lon="6.48466">
        <ele>1261.8828125</ele>
        <time>2021-06-26T12:53:16Z</time>
      </trkpt>
      <trkpt lat="46.21038" lon="6.4847">
        <ele>1259.54296875</ele>
        <time>2021-06-26T12:53:27Z</time>
      </trkpt>
      <trkpt lat="46.2108" lon="6.48464">
        <ele>1260.7109375</ele>
        <time>2021-06-26T12:53:39Z</time>
      </trkpt>
      <trkpt lat="46.21083" lon="6.48456">
        <ele>1262.41796875</ele>
        <time>2021-06-26T12:53:41Z</time>
      </trkpt>
      <trkpt lat="46.21084" lon="6.48452">
        <ele>1263.29296875</ele>
        <time>2021-06-26T12:53:42Z</time>
      </trkpt>
      <trkpt lat="46.21083" lon="6.48448">
        <ele>1264.10546875</ele>
        <time>2021-06-26T12:53:43Z</time>
      </trkpt>
      <trkpt lat="46.21082" lon="6.48444">
        <ele>1264.73828125</ele>
        <time>2021-06-26T12:53:44Z</time>
      </trkpt>
      <trkpt lat="46.2108" lon="6.48442">
        <ele>1265.1875</ele>
        <time>2021-06-26T12:53:45Z</time>
      </trkpt>
      <trkpt lat="46.21078" lon="6.48441">
        <ele>1265.421875</ele>
        <time>2021-06-26T12:53:46Z</time>
      </trkpt>
      <trkpt lat="46.21076" lon="6.48441">
        <ele>1265.51953125</ele>
        <time>2021-06-26T12:53:47Z</time>
      </trkpt>
      <trkpt lat="46.21074" lon="6.4844">
        <ele>1265.53125</ele>
        <time>2021-06-26T12:53:48Z</time>
      </trkpt>
      <trkpt lat="46.21071" lon="6.48441">
        <ele>1265.50390625</ele>
        <time>2021-06-26T12:53:49Z</time>
      </trkpt>
      <trkpt lat="46.21046" lon="6.48443">
        <ele>1265.07421875</ele>
        <time>2021-06-26T12:54:02Z</time>
      </trkpt>
      <trkpt lat="46.2103" lon="6.48442">
        <ele>1265.765625</ele>
        <time>2021-06-26T12:54:09Z</time>
      </trkpt>
      <trkpt lat="46.21028" lon="6.48441">
        <ele>1266.0546875</ele>
        <time>2021-06-26T12:54:10Z</time>
      </trkpt>
      <trkpt lat="46.21025" lon="6.48441">
        <ele>1266.23046875</ele>
        <time>2021-06-26T12:54:11Z</time>
      </trkpt>
      <trkpt lat="46.21022" lon="6.4844">
        <ele>1266.3828125</ele>
        <time>2021-06-26T12:54:12Z</time>
      </trkpt>
      <trkpt lat="46.21019" lon="6.4844">
        <ele>1266.46484375</ele>
        <time>2021-06-26T12:54:13Z</time>
      </trkpt>
      <trkpt lat="46.21016" lon="6.48441">
        <ele>1266.5546875</ele>
        <time>2021-06-26T12:54:14Z</time>
      </trkpt>
      <trkpt lat="46.21013" lon="6.4844">
        <ele>1266.6953125</ele>
        <time>2021-06-26T12:54:15Z</time>
      </trkpt>
      <trkpt lat="46.20971" lon="6.48429">
        <ele>1273.51953125</ele>
        <time>2021-06-26T12:54:33Z</time>
      </trkpt>
      <trkpt lat="46.20966" lon="6.48431">
        <ele>1273.45703125</ele>
        <time>2021-06-26T12:54:46Z</time>
      </trkpt>
      <trkpt lat="46.20967" lon="6.48433">
        <ele>1273</ele>
        <time>2021-06-26T12:55:09Z</time>
      </trkpt>
      <trkpt lat="46.20966" lon="6.48429">
        <ele>1274.1796875</ele>
        <time>2021-06-26T12:55:29Z</time>
      </trkpt>
      <trkpt lat="46.20967" lon="6.48436">
        <ele>1271.984375</ele>
        <time>2021-06-26T12:56:05Z</time>
      </trkpt>
      <trkpt lat="46.20969" lon="6.48431">
        <ele>1272.93359375</ele>
        <time>2021-06-26T12:56:37Z</time>
      </trkpt>
      <trkpt lat="46.2096" lon="6.48433">
        <ele>1274.07421875</ele>
        <time>2021-06-26T12:56:54Z</time>
      </trkpt>
      <trkpt lat="46.20942" lon="6.48423">
        <ele>1280.37890625</ele>
        <time>2021-06-26T12:57:06Z</time>
      </trkpt>
      <trkpt lat="46.2094" lon="6.48418">
        <ele>1282.0625</ele>
        <time>2021-06-26T12:57:08Z</time>
      </trkpt>
      <trkpt lat="46.20936" lon="6.4842">
        <ele>1282.29296875</ele>
        <time>2021-06-26T12:57:10Z</time>
      </trkpt>
      <trkpt lat="46.20906" lon="6.48431">
        <ele>1287.30078125</ele>
        <time>2021-06-26T12:57:23Z</time>
      </trkpt>
      <trkpt lat="46.20887" lon="6.48442">
        <ele>1289.796875</ele>
        <time>2021-06-26T12:57:33Z</time>
      </trkpt>
      <trkpt lat="46.20863" lon="6.48456">
        <ele>1295.265625</ele>
        <time>2021-06-26T12:57:45Z</time>
      </trkpt>
      <trkpt lat="46.20862" lon="6.48457">
        <ele>1295.6484375</ele>
        <time>2021-06-26T12:57:46Z</time>
      </trkpt>
      <trkpt lat="46.20851" lon="6.48464">
        <ele>1298.26953125</ele>
        <time>2021-06-26T12:57:53Z</time>
      </trkpt>
      <trkpt lat="46.2083" lon="6.48488">
        <ele>1303.5</ele>
        <time>2021-06-26T12:58:05Z</time>
      </trkpt>
      <trkpt lat="46.20813" lon="6.48509">
        <ele>1308.5625</ele>
        <time>2021-06-26T12:58:15Z</time>
      </trkpt>
      <trkpt lat="46.20797" lon="6.48528">
        <ele>1312.6953125</ele>
        <time>2021-06-26T12:58:26Z</time>
      </trkpt>
      <trkpt lat="46.20781" lon="6.48538">
        <ele>1314.7890625</ele>
        <time>2021-06-26T12:58:37Z</time>
      </trkpt>
      <trkpt lat="46.20758" lon="6.4853">
        <ele>1314.60546875</ele>
        <time>2021-06-26T12:58:49Z</time>
      </trkpt>
      <trkpt lat="46.2075" lon="6.48525">
        <ele>1314.25390625</ele>
        <time>2021-06-26T12:58:53Z</time>
      </trkpt>
      <trkpt lat="46.20724" lon="6.48509">
        <ele>1312.609375</ele>
        <time>2021-06-26T12:59:05Z</time>
      </trkpt>
      <trkpt lat="46.20714" lon="6.48496">
        <ele>1311.265625</ele>
        <time>2021-06-26T12:59:12Z</time>
      </trkpt>
      <trkpt lat="46.20699" lon="6.48478">
        <ele>1308.3984375</ele>
        <time>2021-06-26T12:59:24Z</time>
      </trkpt>
      <trkpt lat="46.2068" lon="6.4845">
        <ele>1305.0078125</ele>
        <time>2021-06-26T12:59:37Z</time>
      </trkpt>
      <trkpt lat="46.20668" lon="6.48407">
        <ele>1305.0859375</ele>
        <time>2021-06-26T12:59:53Z</time>
      </trkpt>
      <trkpt lat="46.20676" lon="6.4837">
        <ele>1310.9140625</ele>
        <time>2021-06-26T13:00:05Z</time>
      </trkpt>
      <trkpt lat="46.2071" lon="6.48343">
        <ele>1318.859375</ele>
        <time>2021-06-26T13:00:20Z</time>
      </trkpt>
      <trkpt lat="46.20731" lon="6.48347">
        <ele>1320.33984375</ele>
        <time>2021-06-26T13:00:29Z</time>
      </trkpt>
      <trkpt lat="46.20743" lon="6.48349">
        <ele>1321.0234375</ele>
        <time>2021-06-26T13:00:34Z</time>
      </trkpt>
      <trkpt lat="46.20764" lon="6.48354">
        <ele>1321.90234375</ele>
        <time>2021-06-26T13:00:43Z</time>
      </trkpt>
      <trkpt lat="46.20766" lon="6.48355">
        <ele>1321.8515625</ele>
        <time>2021-06-26T13:00:44Z</time>
      </trkpt>
      <trkpt lat="46.20768" lon="6.48356">
        <ele>1321.8671875</ele>
        <time>2021-06-26T13:00:45Z</time>
      </trkpt>
      <trkpt lat="46.2077" lon="6.48357">
        <ele>1321.92578125</ele>
        <time>2021-06-26T13:00:46Z</time>
      </trkpt>
      <trkpt lat="46.20772" lon="6.48357">
        <ele>1321.9765625</ele>
        <time>2021-06-26T13:00:47Z</time>
      </trkpt>
      <trkpt lat="46.20775" lon="6.48358">
        <ele>1322.015625</ele>
        <time>2021-06-26T13:00:48Z</time>
      </trkpt>
      <trkpt lat="46.20777" lon="6.48358">
        <ele>1322.1015625</ele>
        <time>2021-06-26T13:00:49Z</time>
      </trkpt>
      <trkpt lat="46.20779" lon="6.48358">
        <ele>1322.203125</ele>
        <time>2021-06-26T13:00:50Z</time>
      </trkpt>
      <trkpt lat="46.20801" lon="6.48366">
        <ele>1321.03515625</ele>
        <time>2021-06-26T13:01:01Z</time>
      </trkpt>
      <trkpt lat="46.20827" lon="6.48361">
        <ele>1321.99609375</ele>
        <time>2021-06-26T13:01:12Z</time>
      </trkpt>
      <trkpt lat="46.20835" lon="6.48349">
        <ele>1324.55078125</ele>
        <time>2021-06-26T13:01:17Z</time>
      </trkpt>
      <trkpt lat="46.20834" lon="6.48345">
        <ele>1325.2578125</ele>
        <time>2021-06-26T13:01:18Z</time>
      </trkpt>
      <trkpt lat="46.20834" lon="6.48342">
        <ele>1326.03515625</ele>
        <time>2021-06-26T13:01:19Z</time>
      </trkpt>
      <trkpt lat="46.20823" lon="6.48292">
        <ele>1335.8828125</ele>
        <time>2021-06-26T13:01:34Z</time>
      </trkpt>
      <trkpt lat="46.208" lon="6.48276">
        <ele>1339.84765625</ele>
        <time>2021-06-26T13:01:46Z</time>
      </trkpt>
      <trkpt lat="46.2077" lon="6.48274">
        <ele>1337.8515625</ele>
        <time>2021-06-26T13:02:00Z</time>
      </trkpt>
      <trkpt lat="46.20737" lon="6.48263">
        <ele>1336.45703125</ele>
        <time>2021-06-26T13:02:15Z</time>
      </trkpt>
      <trkpt lat="46.20717" lon="6.48243">
        <ele>1336.5390625</ele>
        <time>2021-06-26T13:02:27Z</time>
      </trkpt>
      <trkpt lat="46.20704" lon="6.48204">
        <ele>1342.37109375</ele>
        <time>2021-06-26T13:02:41Z</time>
      </trkpt>
      <trkpt lat="46.20699" lon="6.48167">
        <ele>1348.9140625</ele>
        <time>2021-06-26T13:02:54Z</time>
      </trkpt>
      <trkpt lat="46.20689" lon="6.48129">
        <ele>1353.453125</ele>
        <time>2021-06-26T13:03:08Z</time>
      </trkpt>
      <trkpt lat="46.20674" lon="6.48113">
        <ele>1353.65234375</ele>
        <time>2021-06-26T13:03:18Z</time>
      </trkpt>
      <trkpt lat="46.20672" lon="6.48111">
        <ele>1353.62890625</ele>
        <time>2021-06-26T13:03:19Z</time>
      </trkpt>
      <trkpt lat="46.20669" lon="6.48106">
        <ele>1353.921875</ele>
        <time>2021-06-26T13:03:21Z</time>
      </trkpt>
      <trkpt lat="46.20668" lon="6.48104">
        <ele>1354.08984375</ele>
        <time>2021-06-26T13:03:22Z</time>
      </trkpt>
      <trkpt lat="46.2065" lon="6.48073">
        <ele>1356.28515625</ele>
        <time>2021-06-26T13:03:36Z</time>
      </trkpt>
      <trkpt lat="46.2063" lon="6.48055">
        <ele>1355.85546875</ele>
        <time>2021-06-26T13:03:47Z</time>
      </trkpt>
      <trkpt lat="46.206" lon="6.48025">
        <ele>1356.93359375</ele>
        <time>2021-06-26T13:04:04Z</time>
      </trkpt>
      <trkpt lat="46.20584" lon="6.47981">
        <ele>1363.953125</ele>
        <time>2021-06-26T13:04:20Z</time>
      </trkpt>
      <trkpt lat="46.20577" lon="6.4795">
        <ele>1370.5859375</ele>
        <time>2021-06-26T13:04:31Z</time>
      </trkpt>
      <trkpt lat="46.20569" lon="6.47905">
        <ele>1379.828125</ele>
        <time>2021-06-26T13:04:46Z</time>
      </trkpt>
      <trkpt lat="46.20564" lon="6.47873">
        <ele>1385.5</ele>
        <time>2021-06-26T13:04:57Z</time>
      </trkpt>
      <trkpt lat="46.20563" lon="6.4787">
        <ele>1386</ele>
        <time>2021-06-26T13:04:58Z</time>
      </trkpt>
      <trkpt lat="46.20558" lon="6.47818">
        <ele>1393.96484375</ele>
        <time>2021-06-26T13:05:15Z</time>
      </trkpt>
      <trkpt lat="46.20562" lon="6.47761">
        <ele>1397.98046875</ele>
        <time>2021-06-26T13:05:32Z</time>
      </trkpt>
      <trkpt lat="46.20568" lon="6.47698">
        <ele>1400.32421875</ele>
        <time>2021-06-26T13:05:49Z</time>
      </trkpt>
      <trkpt lat="46.20573" lon="6.47632">
        <ele>1402.10546875</ele>
        <time>2021-06-26T13:06:05Z</time>
      </trkpt>
      <trkpt lat="46.2058" lon="6.47578">
        <ele>1403.2734375</ele>
        <time>2021-06-26T13:06:19Z</time>
      </trkpt>
      <trkpt lat="46.20574" lon="6.47518">
        <ele>1407.109375</ele>
        <time>2021-06-26T13:06:34Z</time>
      </trkpt>
      <trkpt lat="46.20557" lon="6.47461">
        <ele>1412.06640625</ele>
        <time>2021-06-26T13:06:50Z</time>
      </trkpt>
      <trkpt lat="46.20535" lon="6.47414">
        <ele>1413.38671875</ele>
        <time>2021-06-26T13:07:04Z</time>
      </trkpt>
      <trkpt lat="46.2052" lon="6.47371">
        <ele>1412.0546875</ele>
        <time>2021-06-26T13:07:19Z</time>
      </trkpt>
      <trkpt lat="46.20518" lon="6.47365">
        <ele>1411.68359375</ele>
        <time>2021-06-26T13:07:39Z</time>
      </trkpt>
      <trkpt lat="46.20518" lon="6.47364">
        <ele>1411.58984375</ele>
        <time>2021-06-26T13:08:06Z</time>
      </trkpt>
      <trkpt lat="46.20517" lon="6.47363">
        <ele>1411.46484375</ele>
        <time>2021-06-26T13:08:24Z</time>
      </trkpt>
      <trkpt lat="46.20517" lon="6.47362">
        <ele>1411.34375</ele>
        <time>2021-06-26T13:08:25Z</time>
      </trkpt>
      <trkpt lat="46.20517" lon="6.4736">
        <ele>1411.19921875</ele>
        <time>2021-06-26T13:08:26Z</time>
      </trkpt>
      <trkpt lat="46.20516" lon="6.47357">
        <ele>1410.98046875</ele>
        <time>2021-06-26T13:08:27Z</time>
      </trkpt>
      <trkpt lat="46.20516" lon="6.47354">
        <ele>1410.74609375</ele>
        <time>2021-06-26T13:08:28Z</time>
      </trkpt>
      <trkpt lat="46.20515" lon="6.47351">
        <ele>1410.4765625</ele>
        <time>2021-06-26T13:08:29Z</time>
      </trkpt>
      <trkpt lat="46.20514" lon="6.47348">
        <ele>1410.1875</ele>
        <time>2021-06-26T13:08:30Z</time>
      </trkpt>
      <trkpt lat="46.20513" lon="6.47346">
        <ele>1409.90234375</ele>
        <time>2021-06-26T13:08:31Z</time>
      </trkpt>
      <trkpt lat="46.20512" lon="6.47344">
        <ele>1409.609375</ele>
        <time>2021-06-26T13:08:32Z</time>
      </trkpt>
      <trkpt lat="46.2051" lon="6.47343">
        <ele>1409.375</ele>
        <time>2021-06-26T13:08:33Z</time>
      </trkpt>
      <trkpt lat="46.20508" lon="6.47343">
        <ele>1409.19140625</ele>
        <time>2021-06-26T13:08:34Z</time>
      </trkpt>
      <trkpt lat="46.20505" lon="6.47344">
        <ele>1409.03515625</ele>
        <time>2021-06-26T13:08:35Z</time>
      </trkpt>
      <trkpt lat="46.20501" lon="6.47343">
        <ele>1408.5390625</ele>
        <time>2021-06-26T13:08:44Z</time>
      </trkpt>
      <trkpt lat="46.20501" lon="6.47341">
        <ele>1408.39453125</ele>
        <time>2021-06-26T13:08:45Z</time>
      </trkpt>
      <trkpt lat="46.20502" lon="6.4734">
        <ele>1408.38671875</ele>
        <time>2021-06-26T13:08:46Z</time>
      </trkpt>
      <trkpt lat="46.20504" lon="6.47338">
        <ele>1408.4296875</ele>
        <time>2021-06-26T13:08:47Z</time>
      </trkpt>
      <trkpt lat="46.20505" lon="6.47335">
        <ele>1408.26953125</ele>
        <time>2021-06-26T13:08:48Z</time>
      </trkpt>
      <trkpt lat="46.20505" lon="6.47332">
        <ele>1407.93359375</ele>
        <time>2021-06-26T13:08:49Z</time>
      </trkpt>
      <trkpt lat="46.20503" lon="6.47329">
        <ele>1407.515625</ele>
        <time>2021-06-26T13:08:50Z</time>
      </trkpt>
      <trkpt lat="46.20501" lon="6.47327">
        <ele>1407.15625</ele>
        <time>2021-06-26T13:08:51Z</time>
      </trkpt>
      <trkpt lat="46.205" lon="6.47327">
        <ele>1406.91796875</ele>
        <time>2021-06-26T13:08:52Z</time>
      </trkpt>
      <trkpt lat="46.20501" lon="6.47327">
        <ele>1407.0546875</ele>
        <time>2021-06-26T13:09:05Z</time>
      </trkpt>
      <trkpt lat="46.20501" lon="6.47326">
        <ele>1406.984375</ele>
        <time>2021-06-26T13:09:36Z</time>
      </trkpt>
      <trkpt lat="46.20502" lon="6.47323">
        <ele>1406.828125</ele>
        <time>2021-06-26T13:09:37Z</time>
      </trkpt>
      <trkpt lat="46.20503" lon="6.47321">
        <ele>1406.7421875</ele>
        <time>2021-06-26T13:09:38Z</time>
      </trkpt>
      <trkpt lat="46.20505" lon="6.4732">
        <ele>1406.82421875</ele>
        <time>2021-06-26T13:09:39Z</time>
      </trkpt>
      <trkpt lat="46.20507" lon="6.47319">
        <ele>1407.03515625</ele>
        <time>2021-06-26T13:09:40Z</time>
      </trkpt>
      <trkpt lat="46.20509" lon="6.4732">
        <ele>1407.39453125</ele>
        <time>2021-06-26T13:09:41Z</time>
      </trkpt>
      <trkpt lat="46.20511" lon="6.47323">
        <ele>1407.81640625</ele>
        <time>2021-06-26T13:09:42Z</time>
      </trkpt>
      <trkpt lat="46.20513" lon="6.47324">
        <ele>1408.171875</ele>
        <time>2021-06-26T13:09:43Z</time>
      </trkpt>
      <trkpt lat="46.20515" lon="6.47322">
        <ele>1408.296875</ele>
        <time>2021-06-26T13:09:44Z</time>
      </trkpt>
      <trkpt lat="46.20516" lon="6.4732">
        <ele>1408.19140625</ele>
        <time>2021-06-26T13:09:45Z</time>
      </trkpt>
      <trkpt lat="46.20514" lon="6.4732">
        <ele>1407.921875</ele>
        <time>2021-06-26T13:09:56Z</time>
      </trkpt>
      <trkpt lat="46.20512" lon="6.4732">
        <ele>1407.69921875</ele>
        <time>2021-06-26T13:10:30Z</time>
      </trkpt>
      <trkpt lat="46.20512" lon="6.47318">
        <ele>1407.54296875</ele>
        <time>2021-06-26T13:11:07Z</time>
      </trkpt>
      <trkpt lat="46.20513" lon="6.47319">
        <ele>1407.82421875</ele>
        <time>2021-06-26T13:11:44Z</time>
      </trkpt>
      <trkpt lat="46.20513" lon="6.47318">
        <ele>1407.65234375</ele>
        <time>2021-06-26T13:12:26Z</time>
      </trkpt>
      <trkpt lat="46.20511" lon="6.47321">
        <ele>1407.734375</ele>
        <time>2021-06-26T13:13:17Z</time>
      </trkpt>
      <trkpt lat="46.20512" lon="6.47319">
        <ele>1407.625</ele>
        <time>2021-06-26T13:14:03Z</time>
      </trkpt>
      <trkpt lat="46.20512" lon="6.47322">
        <ele>1407.859375</ele>
        <time>2021-06-26T13:14:46Z</time>
      </trkpt>
      <trkpt lat="46.20511" lon="6.47319">
        <ele>1407.5</ele>
        <time>2021-06-26T13:15:13Z</time>
      </trkpt>
      <trkpt lat="46.20513" lon="6.47321">
        <ele>1407.91015625</ele>
        <time>2021-06-26T13:15:49Z</time>
      </trkpt>
      <trkpt lat="46.20512" lon="6.47326">
        <ele>1408.16796875</ele>
        <time>2021-06-26T13:15:56Z</time>
      </trkpt>
      <trkpt lat="46.20516" lon="6.47368">
        <ele>1411.75390625</ele>
        <time>2021-06-26T13:16:06Z</time>
      </trkpt>
      <trkpt lat="46.20521" lon="6.47383">
        <ele>1412.765625</ele>
        <time>2021-06-26T13:16:09Z</time>
      </trkpt>
      <trkpt lat="46.20523" lon="6.4739">
        <ele>1413.01953125</ele>
        <time>2021-06-26T13:16:10Z</time>
      </trkpt>
      <trkpt lat="46.2055" lon="6.47452">
        <ele>1413.1953125</ele>
        <time>2021-06-26T13:16:19Z</time>
      </trkpt>
      <trkpt lat="46.20551" lon="6.47455">
        <ele>1413.0078125</ele>
        <time>2021-06-26T13:16:20Z</time>
      </trkpt>
      <trkpt lat="46.20564" lon="6.47484">
        <ele>1410.203125</ele>
        <time>2021-06-26T13:16:27Z</time>
      </trkpt>
      <trkpt lat="46.20572" lon="6.47515">
        <ele>1407.55859375</ele>
        <time>2021-06-26T13:16:31Z</time>
      </trkpt>
      <trkpt lat="46.20574" lon="6.47626">
        <ele>1402.1875</ele>
        <time>2021-06-26T13:16:42Z</time>
      </trkpt>
      <trkpt lat="46.20569" lon="6.47672">
        <ele>1400.90234375</ele>
        <time>2021-06-26T13:16:46Z</time>
      </trkpt>
      <trkpt lat="46.20565" lon="6.47735">
        <ele>1399.1953125</ele>
        <time>2021-06-26T13:16:52Z</time>
      </trkpt>
      <trkpt lat="46.20564" lon="6.47743">
        <ele>1398.7421875</ele>
        <time>2021-06-26T13:16:53Z</time>
      </trkpt>
      <trkpt lat="46.20563" lon="6.47781">
        <ele>1396.72265625</ele>
        <time>2021-06-26T13:17:01Z</time>
      </trkpt>
      <trkpt lat="46.20564" lon="6.47783">
        <ele>1396.53515625</ele>
        <time>2021-06-26T13:17:02Z</time>
      </trkpt>
      <trkpt lat="46.20566" lon="6.47784">
        <ele>1396.3828125</ele>
        <time>2021-06-26T13:17:03Z</time>
      </trkpt>
      <trkpt lat="46.20567" lon="6.47784">
        <ele>1396.39453125</ele>
        <time>2021-06-26T13:17:14Z</time>
      </trkpt>
      <trkpt lat="46.20568" lon="6.47783">
        <ele>1396.4296875</ele>
        <time>2021-06-26T13:17:28Z</time>
      </trkpt>
      <trkpt lat="46.20569" lon="6.47782">
        <ele>1396.484375</ele>
        <time>2021-06-26T13:17:34Z</time>
      </trkpt>
      <trkpt lat="46.2057" lon="6.4778">
        <ele>1396.578125</ele>
        <time>2021-06-26T13:17:35Z</time>
      </trkpt>
      <trkpt lat="46.20571" lon="6.47777">
        <ele>1396.69140625</ele>
        <time>2021-06-26T13:17:36Z</time>
      </trkpt>
      <trkpt lat="46.20581" lon="6.47754">
        <ele>1397.6328125</ele>
        <time>2021-06-26T13:17:44Z</time>
      </trkpt>
      <trkpt lat="46.20589" lon="6.4772">
        <ele>1399.28515625</ele>
        <time>2021-06-26T13:17:54Z</time>
      </trkpt>
      <trkpt lat="46.206" lon="6.47677">
        <ele>1400.0234375</ele>
        <time>2021-06-26T13:18:07Z</time>
      </trkpt>
      <trkpt lat="46.20617" lon="6.47627">
        <ele>1402.2578125</ele>
        <time>2021-06-26T13:18:22Z</time>
      </trkpt>
      <trkpt lat="46.20633" lon="6.47592">
        <ele>1404.77734375</ele>
        <time>2021-06-26T13:18:34Z</time>
      </trkpt>
      <trkpt lat="46.20658" lon="6.47562">
        <ele>1408.08984375</ele>
        <time>2021-06-26T13:18:48Z</time>
      </trkpt>
      <trkpt lat="46.20665" lon="6.47548">
        <ele>1409.04296875</ele>
        <time>2021-06-26T13:18:55Z</time>
      </trkpt>
      <trkpt lat="46.20668" lon="6.47545">
        <ele>1409.68359375</ele>
        <time>2021-06-26T13:18:57Z</time>
      </trkpt>
      <trkpt lat="46.2067" lon="6.47545">
        <ele>1410.09765625</ele>
        <time>2021-06-26T13:18:58Z</time>
      </trkpt>
      <trkpt lat="46.20672" lon="6.47545">
        <ele>1410.5390625</ele>
        <time>2021-06-26T13:18:59Z</time>
      </trkpt>
      <trkpt lat="46.20673" lon="6.47547">
        <ele>1410.984375</ele>
        <time>2021-06-26T13:19:00Z</time>
      </trkpt>
      <trkpt lat="46.20675" lon="6.47548">
        <ele>1411.46484375</ele>
        <time>2021-06-26T13:19:01Z</time>
      </trkpt>
      <trkpt lat="46.20683" lon="6.47562">
        <ele>1414.12890625</ele>
        <time>2021-06-26T13:19:08Z</time>
      </trkpt>
      <trkpt lat="46.20684" lon="6.47567">
        <ele>1414.35546875</ele>
        <time>2021-06-26T13:19:10Z</time>
      </trkpt>
      <trkpt lat="46.20683" lon="6.47569">
        <ele>1414.390625</ele>
        <time>2021-06-26T13:19:18Z</time>
      </trkpt>
      <trkpt lat="46.20684" lon="6.4757">
        <ele>1414.5546875</ele>
        <time>2021-06-26T13:19:19Z</time>
      </trkpt>
      <trkpt lat="46.20684" lon="6.47572">
        <ele>1414.72265625</ele>
        <time>2021-06-26T13:19:20Z</time>
      </trkpt>
      <trkpt lat="46.20685" lon="6.47574">
        <ele>1414.8828125</ele>
        <time>2021-06-26T13:19:21Z</time>
      </trkpt>
      <trkpt lat="46.20686" lon="6.47577">
        <ele>1415.12109375</ele>
        <time>2021-06-26T13:19:22Z</time>
      </trkpt>
      <trkpt lat="46.20687" lon="6.47579">
        <ele>1415.33984375</ele>
        <time>2021-06-26T13:19:23Z</time>
      </trkpt>
      <trkpt lat="46.2069" lon="6.47586">
        <ele>1415.953125</ele>
        <time>2021-06-26T13:19:34Z</time>
      </trkpt>
      <trkpt lat="46.20693" lon="6.47599">
        <ele>1416.45703125</ele>
        <time>2021-06-26T13:19:47Z</time>
      </trkpt>
      <trkpt lat="46.20693" lon="6.47615">
        <ele>1416.5234375</ele>
        <time>2021-06-26T13:19:54Z</time>
      </trkpt>
      <trkpt lat="46.20692" lon="6.47625">
        <ele>1416.37109375</ele>
        <time>2021-06-26T13:19:58Z</time>
      </trkpt>
      <trkpt lat="46.20691" lon="6.47647">
        <ele>1415.60546875</ele>
        <time>2021-06-26T13:20:07Z</time>
      </trkpt>
      <trkpt lat="46.20695" lon="6.47671">
        <ele>1415.46484375</ele>
        <time>2021-06-26T13:20:17Z</time>
      </trkpt>
      <trkpt lat="46.20699" lon="6.47671">
        <ele>1416.14453125</ele>
        <time>2021-06-26T13:20:19Z</time>
      </trkpt>
      <trkpt lat="46.20701" lon="6.4767">
        <ele>1416.55859375</ele>
        <time>2021-06-26T13:20:20Z</time>
      </trkpt>
      <trkpt lat="46.20702" lon="6.47669">
        <ele>1416.90234375</ele>
        <time>2021-06-26T13:20:21Z</time>
      </trkpt>
      <trkpt lat="46.20704" lon="6.47666">
        <ele>1417.2734375</ele>
        <time>2021-06-26T13:20:22Z</time>
      </trkpt>
      <trkpt lat="46.20705" lon="6.47664">
        <ele>1417.6328125</ele>
        <time>2021-06-26T13:20:23Z</time>
      </trkpt>
      <trkpt lat="46.20707" lon="6.47662">
        <ele>1417.9921875</ele>
        <time>2021-06-26T13:20:24Z</time>
      </trkpt>
      <trkpt lat="46.20709" lon="6.4766">
        <ele>1418.3515625</ele>
        <time>2021-06-26T13:20:25Z</time>
      </trkpt>
      <trkpt lat="46.2071" lon="6.47658">
        <ele>1418.734375</ele>
        <time>2021-06-26T13:20:26Z</time>
      </trkpt>
      <trkpt lat="46.20712" lon="6.47657">
        <ele>1419.13671875</ele>
        <time>2021-06-26T13:20:27Z</time>
      </trkpt>
      <trkpt lat="46.20714" lon="6.47655">
        <ele>1419.50390625</ele>
        <time>2021-06-26T13:20:28Z</time>
      </trkpt>
      <trkpt lat="46.20716" lon="6.47653">
        <ele>1419.85546875</ele>
        <time>2021-06-26T13:20:29Z</time>
      </trkpt>
      <trkpt lat="46.20717" lon="6.47651">
        <ele>1420.265625</ele>
        <time>2021-06-26T13:20:30Z</time>
      </trkpt>
      <trkpt lat="46.20739" lon="6.47611">
        <ele>1424.7265625</ele>
        <time>2021-06-26T13:20:44Z</time>
      </trkpt>
      <trkpt lat="46.20743" lon="6.47598">
        <ele>1425.265625</ele>
        <time>2021-06-26T13:20:48Z</time>
      </trkpt>
      <trkpt lat="46.20758" lon="6.47558">
        <ele>1427.40625</ele>
        <time>2021-06-26T13:21:01Z</time>
      </trkpt>
      <trkpt lat="46.20787" lon="6.47536">
        <ele>1431.87890625</ele>
        <time>2021-06-26T13:21:15Z</time>
      </trkpt>
      <trkpt lat="46.208" lon="6.47527">
        <ele>1434.34765625</ele>
        <time>2021-06-26T13:21:21Z</time>
      </trkpt>
      <trkpt lat="46.20818" lon="6.47512">
        <ele>1438.66015625</ele>
        <time>2021-06-26T13:21:30Z</time>
      </trkpt>
      <trkpt lat="46.20827" lon="6.47503">
        <ele>1441.12109375</ele>
        <time>2021-06-26T13:21:36Z</time>
      </trkpt>
      <trkpt lat="46.20833" lon="6.47497">
        <ele>1442.70703125</ele>
        <time>2021-06-26T13:21:46Z</time>
      </trkpt>
      <trkpt lat="46.20838" lon="6.47493">
        <ele>1444.3125</ele>
        <time>2021-06-26T13:21:58Z</time>
      </trkpt>
      <trkpt lat="46.20842" lon="6.47476">
        <ele>1446.62890625</ele>
        <time>2021-06-26T13:22:13Z</time>
      </trkpt>
      <trkpt lat="46.20844" lon="6.47473">
        <ele>1447.29296875</ele>
        <time>2021-06-26T13:22:19Z</time>
      </trkpt>
      <trkpt lat="46.20846" lon="6.47466">
        <ele>1448.5625</ele>
        <time>2021-06-26T13:22:32Z</time>
      </trkpt>
      <trkpt lat="46.20848" lon="6.4746">
        <ele>1449.515625</ele>
        <time>2021-06-26T13:22:41Z</time>
      </trkpt>
      <trkpt lat="46.20852" lon="6.47456">
        <ele>1451.05078125</ele>
        <time>2021-06-26T13:22:55Z</time>
      </trkpt>
      <trkpt lat="46.20854" lon="6.47451">
        <ele>1452.16015625</ele>
        <time>2021-06-26T13:23:10Z</time>
      </trkpt>
      <trkpt lat="46.20859" lon="6.47443">
        <ele>1454.1875</ele>
        <time>2021-06-26T13:23:20Z</time>
      </trkpt>
      <trkpt lat="46.20861" lon="6.4744">
        <ele>1455.11328125</ele>
        <time>2021-06-26T13:23:22Z</time>
      </trkpt>
      <trkpt lat="46.20862" lon="6.47438">
        <ele>1455.4140625</ele>
        <time>2021-06-26T13:23:23Z</time>
      </trkpt>
      <trkpt lat="46.20862" lon="6.47436">
        <ele>1455.578125</ele>
        <time>2021-06-26T13:23:24Z</time>
      </trkpt>
      <trkpt lat="46.20862" lon="6.47434">
        <ele>1455.7265625</ele>
        <time>2021-06-26T13:23:25Z</time>
      </trkpt>
      <trkpt lat="46.20862" lon="6.47431">
        <ele>1455.94921875</ele>
        <time>2021-06-26T13:23:26Z</time>
      </trkpt>
      <trkpt lat="46.20863" lon="6.47429">
        <ele>1456.28125</ele>
        <time>2021-06-26T13:23:27Z</time>
      </trkpt>
      <trkpt lat="46.20864" lon="6.47426">
        <ele>1456.6875</ele>
        <time>2021-06-26T13:23:28Z</time>
      </trkpt>
      <trkpt lat="46.20864" lon="6.47424">
        <ele>1457.1015625</ele>
        <time>2021-06-26T13:23:29Z</time>
      </trkpt>
      <trkpt lat="46.20865" lon="6.47421">
        <ele>1457.53515625</ele>
        <time>2021-06-26T13:23:30Z</time>
      </trkpt>
      <trkpt lat="46.20866" lon="6.47418">
        <ele>1457.921875</ele>
        <time>2021-06-26T13:23:31Z</time>
      </trkpt>
      <trkpt lat="46.20867" lon="6.47416">
        <ele>1458.40625</ele>
        <time>2021-06-26T13:23:32Z</time>
      </trkpt>
      <trkpt lat="46.20868" lon="6.47413">
        <ele>1458.953125</ele>
        <time>2021-06-26T13:23:33Z</time>
      </trkpt>
      <trkpt lat="46.20869" lon="6.47411">
        <ele>1459.45703125</ele>
        <time>2021-06-26T13:23:34Z</time>
      </trkpt>
      <trkpt lat="46.20876" lon="6.47398">
        <ele>1462.23828125</ele>
        <time>2021-06-26T13:23:40Z</time>
      </trkpt>
      <trkpt lat="46.20884" lon="6.47385">
        <ele>1465.9921875</ele>
        <time>2021-06-26T13:23:46Z</time>
      </trkpt>
      <trkpt lat="46.20887" lon="6.47385">
        <ele>1467.03125</ele>
        <time>2021-06-26T13:23:56Z</time>
      </trkpt>
      <trkpt lat="46.20889" lon="6.47383">
        <ele>1468.07421875</ele>
        <time>2021-06-26T13:24:07Z</time>
      </trkpt>
      <trkpt lat="46.20893" lon="6.47377">
        <ele>1469.19140625</ele>
        <time>2021-06-26T13:24:19Z</time>
      </trkpt>
      <trkpt lat="46.20893" lon="6.47375">
        <ele>1469.3984375</ele>
        <time>2021-06-26T13:24:20Z</time>
      </trkpt>
      <trkpt lat="46.20895" lon="6.47369">
        <ele>1469.87890625</ele>
        <time>2021-06-26T13:24:26Z</time>
      </trkpt>
      <trkpt lat="46.20896" lon="6.47367">
        <ele>1470.01171875</ele>
        <time>2021-06-26T13:24:27Z</time>
      </trkpt>
      <trkpt lat="46.20899" lon="6.47367">
        <ele>1471.2109375</ele>
        <time>2021-06-26T13:24:37Z</time>
      </trkpt>
      <trkpt lat="46.20905" lon="6.47362">
        <ele>1473.40625</ele>
        <time>2021-06-26T13:24:50Z</time>
      </trkpt>
      <trkpt lat="46.20908" lon="6.4736">
        <ele>1474.8828125</ele>
        <time>2021-06-26T13:25:18Z</time>
      </trkpt>
      <trkpt lat="46.2091" lon="6.47356">
        <ele>1475.4453125</ele>
        <time>2021-06-26T13:25:31Z</time>
      </trkpt>
      <trkpt lat="46.20912" lon="6.47355">
        <ele>1476.125</ele>
        <time>2021-06-26T13:25:34Z</time>
      </trkpt>
      <trkpt lat="46.20913" lon="6.47354">
        <ele>1476.65234375</ele>
        <time>2021-06-26T13:25:35Z</time>
      </trkpt>
      <trkpt lat="46.20915" lon="6.47353">
        <ele>1477.3046875</ele>
        <time>2021-06-26T13:25:36Z</time>
      </trkpt>
      <trkpt lat="46.20916" lon="6.47352">
        <ele>1477.8515625</ele>
        <time>2021-06-26T13:25:37Z</time>
      </trkpt>
      <trkpt lat="46.20918" lon="6.4735">
        <ele>1478.3828125</ele>
        <time>2021-06-26T13:25:38Z</time>
      </trkpt>
      <trkpt lat="46.20919" lon="6.47349">
        <ele>1478.91015625</ele>
        <time>2021-06-26T13:25:39Z</time>
      </trkpt>
      <trkpt lat="46.20922" lon="6.47345">
        <ele>1480.06640625</ele>
        <time>2021-06-26T13:25:41Z</time>
      </trkpt>
      <trkpt lat="46.2093" lon="6.47339">
        <ele>1483.00390625</ele>
        <time>2021-06-26T13:25:46Z</time>
      </trkpt>
      <trkpt lat="46.20939" lon="6.47336">
        <ele>1486.7421875</ele>
        <time>2021-06-26T13:25:51Z</time>
      </trkpt>
      <trkpt lat="46.20941" lon="6.47336">
        <ele>1487.46875</ele>
        <time>2021-06-26T13:25:52Z</time>
      </trkpt>
      <trkpt lat="46.20948" lon="6.47332">
        <ele>1490.2734375</ele>
        <time>2021-06-26T13:25:56Z</time>
      </trkpt>
      <trkpt lat="46.20954" lon="6.47327">
        <ele>1492.55078125</ele>
        <time>2021-06-26T13:26:00Z</time>
      </trkpt>
      <trkpt lat="46.20957" lon="6.47324">
        <ele>1493.453125</ele>
        <time>2021-06-26T13:26:11Z</time>
      </trkpt>
      <trkpt lat="46.20961" lon="6.4732">
        <ele>1494.82421875</ele>
        <time>2021-06-26T13:26:34Z</time>
      </trkpt>
      <trkpt lat="46.20965" lon="6.47313">
        <ele>1495.64453125</ele>
        <time>2021-06-26T13:26:49Z</time>
      </trkpt>
      <trkpt lat="46.20971" lon="6.47306">
        <ele>1497.2734375</ele>
        <time>2021-06-26T13:27:03Z</time>
      </trkpt>
      <trkpt lat="46.20978" lon="6.47299">
        <ele>1499.296875</ele>
        <time>2021-06-26T13:27:17Z</time>
      </trkpt>
      <trkpt lat="46.20984" lon="6.47296">
        <ele>1500.9609375</ele>
        <time>2021-06-26T13:27:21Z</time>
      </trkpt>
      <trkpt lat="46.20984" lon="6.47295">
        <ele>1501.0546875</ele>
        <time>2021-06-26T13:27:22Z</time>
      </trkpt>
      <trkpt lat="46.20985" lon="6.47293">
        <ele>1500.9609375</ele>
        <time>2021-06-26T13:27:23Z</time>
      </trkpt>
      <trkpt lat="46.20986" lon="6.4729">
        <ele>1500.890625</ele>
        <time>2021-06-26T13:27:24Z</time>
      </trkpt>
      <trkpt lat="46.20986" lon="6.47288">
        <ele>1500.87890625</ele>
        <time>2021-06-26T13:27:25Z</time>
      </trkpt>
      <trkpt lat="46.20987" lon="6.47287">
        <ele>1500.9140625</ele>
        <time>2021-06-26T13:27:26Z</time>
      </trkpt>
      <trkpt lat="46.20988" lon="6.47283">
        <ele>1500.5703125</ele>
        <time>2021-06-26T13:27:41Z</time>
      </trkpt>
      <trkpt lat="46.2099" lon="6.47281">
        <ele>1501.2890625</ele>
        <time>2021-06-26T13:28:06Z</time>
      </trkpt>
      <trkpt lat="46.2099" lon="6.47284">
        <ele>1501.56640625</ele>
        <time>2021-06-26T13:28:14Z</time>
      </trkpt>
      <trkpt lat="46.20987" lon="6.47293">
        <ele>1501.71484375</ele>
        <time>2021-06-26T13:28:27Z</time>
      </trkpt>
      <trkpt lat="46.20987" lon="6.47295">
        <ele>1502.046875</ele>
        <time>2021-06-26T13:29:00Z</time>
      </trkpt>
      <trkpt lat="46.20985" lon="6.47294">
        <ele>1501.34375</ele>
        <time>2021-06-26T13:29:37Z</time>
      </trkpt>
      <trkpt lat="46.20987" lon="6.47295">
        <ele>1501.98046875</ele>
        <time>2021-06-26T13:30:09Z</time>
      </trkpt>
      <trkpt lat="46.20987" lon="6.47296">
        <ele>1502.26171875</ele>
        <time>2021-06-26T13:30:40Z</time>
      </trkpt>
      <trkpt lat="46.20984" lon="6.47299">
        <ele>1501.65234375</ele>
        <time>2021-06-26T13:30:51Z</time>
      </trkpt>
      <trkpt lat="46.20983" lon="6.473">
        <ele>1500.984375</ele>
        <time>2021-06-26T13:30:52Z</time>
      </trkpt>
      <trkpt lat="46.2098" lon="6.473">
        <ele>1500.0546875</ele>
        <time>2021-06-26T13:30:53Z</time>
      </trkpt>
      <trkpt lat="46.20977" lon="6.47302">
        <ele>1499.06640625</ele>
        <time>2021-06-26T13:30:54Z</time>
      </trkpt>
      <trkpt lat="46.20974" lon="6.47305">
        <ele>1498.19140625</ele>
        <time>2021-06-26T13:30:55Z</time>
      </trkpt>
      <trkpt lat="46.20972" lon="6.47307">
        <ele>1497.60546875</ele>
        <time>2021-06-26T13:30:56Z</time>
      </trkpt>
      <trkpt lat="46.20964" lon="6.47315">
        <ele>1495.34765625</ele>
        <time>2021-06-26T13:31:01Z</time>
      </trkpt>
      <trkpt lat="46.20958" lon="6.47323">
        <ele>1493.578125</ele>
        <time>2021-06-26T13:31:04Z</time>
      </trkpt>
      <trkpt lat="46.20946" lon="6.47331">
        <ele>1489.41796875</ele>
        <time>2021-06-26T13:31:07Z</time>
      </trkpt>
      <trkpt lat="46.20939" lon="6.47336">
        <ele>1486.5625</ele>
        <time>2021-06-26T13:31:09Z</time>
      </trkpt>
      <trkpt lat="46.20927" lon="6.47341">
        <ele>1481.890625</ele>
        <time>2021-06-26T13:31:12Z</time>
      </trkpt>
      <trkpt lat="46.20919" lon="6.47346">
        <ele>1478.6875</ele>
        <time>2021-06-26T13:31:15Z</time>
      </trkpt>
      <trkpt lat="46.20907" lon="6.4736">
        <ele>1474.13671875</ele>
        <time>2021-06-26T13:31:21Z</time>
      </trkpt>
      <trkpt lat="46.20894" lon="6.47373">
        <ele>1469.609375</ele>
        <time>2021-06-26T13:31:27Z</time>
      </trkpt>
      <trkpt lat="46.20888" lon="6.47381">
        <ele>1467.49609375</ele>
        <time>2021-06-26T13:31:31Z</time>
      </trkpt>
      <trkpt lat="46.20875" lon="6.47394">
        <ele>1462.19921875</ele>
        <time>2021-06-26T13:31:37Z</time>
      </trkpt>
      <trkpt lat="46.20874" lon="6.47396">
        <ele>1461.734375</ele>
        <time>2021-06-26T13:31:38Z</time>
      </trkpt>
      <trkpt lat="46.20869" lon="6.47406">
        <ele>1459.73828125</ele>
        <time>2021-06-26T13:31:46Z</time>
      </trkpt>
      <trkpt lat="46.20862" lon="6.47424">
        <ele>1456.3359375</ele>
        <time>2021-06-26T13:31:51Z</time>
      </trkpt>
      <trkpt lat="46.20861" lon="6.4743">
        <ele>1455.4609375</ele>
        <time>2021-06-26T13:31:52Z</time>
      </trkpt>
      <trkpt lat="46.20857" lon="6.47441">
        <ele>1453.63671875</ele>
        <time>2021-06-26T13:31:55Z</time>
      </trkpt>
      <trkpt lat="46.20857" lon="6.47441">
        <ele>1453.59765625</ele>
        <time>2021-06-26T13:31:56Z</time>
      </trkpt>
      <trkpt lat="46.20851" lon="6.47457">
        <ele>1450.54296875</ele>
        <time>2021-06-26T13:32:03Z</time>
      </trkpt>
      <trkpt lat="46.2085" lon="6.4746">
        <ele>1450.15234375</ele>
        <time>2021-06-26T13:32:04Z</time>
      </trkpt>
      <trkpt lat="46.20849" lon="6.47461">
        <ele>1449.8046875</ele>
        <time>2021-06-26T13:32:05Z</time>
      </trkpt>
      <trkpt lat="46.20848" lon="6.47463">
        <ele>1449.42578125</ele>
        <time>2021-06-26T13:32:06Z</time>
      </trkpt>
      <trkpt lat="46.20847" lon="6.47465">
        <ele>1448.875</ele>
        <time>2021-06-26T13:32:07Z</time>
      </trkpt>
      <trkpt lat="46.20846" lon="6.47467">
        <ele>1448.34765625</ele>
        <time>2021-06-26T13:32:08Z</time>
      </trkpt>
      <trkpt lat="46.20841" lon="6.47477">
        <ele>1446.12109375</ele>
        <time>2021-06-26T13:32:16Z</time>
      </trkpt>
      <trkpt lat="46.20839" lon="6.47482">
        <ele>1445.1875</ele>
        <time>2021-06-26T13:32:18Z</time>
      </trkpt>
      <trkpt lat="46.20838" lon="6.47486">
        <ele>1444.76171875</ele>
        <time>2021-06-26T13:32:19Z</time>
      </trkpt>
      <trkpt lat="46.20839" lon="6.47493">
        <ele>1444.421875</ele>
        <time>2021-06-26T13:32:26Z</time>
      </trkpt>
      <trkpt lat="46.20835" lon="6.47497">
        <ele>1443.3125</ele>
        <time>2021-06-26T13:32:35Z</time>
      </trkpt>
      <trkpt lat="46.20829" lon="6.475">
        <ele>1441.734375</ele>
        <time>2021-06-26T13:32:44Z</time>
      </trkpt>
      <trkpt lat="46.20827" lon="6.47499">
        <ele>1441.4609375</ele>
        <time>2021-06-26T13:32:46Z</time>
      </trkpt>
      <trkpt lat="46.20827" lon="6.475">
        <ele>1441.32421875</ele>
        <time>2021-06-26T13:32:58Z</time>
      </trkpt>
      <trkpt lat="46.20821" lon="6.47501">
        <ele>1440.046875</ele>
        <time>2021-06-26T13:33:06Z</time>
      </trkpt>
      <trkpt lat="46.20821" lon="6.475">
        <ele>1440.05078125</ele>
        <time>2021-06-26T13:33:07Z</time>
      </trkpt>
      <trkpt lat="46.20822" lon="6.47503">
        <ele>1440.140625</ele>
        <time>2021-06-26T13:33:22Z</time>
      </trkpt>
      <trkpt lat="46.20821" lon="6.47505">
        <ele>1439.8359375</ele>
        <time>2021-06-26T13:33:36Z</time>
      </trkpt>
      <trkpt lat="46.20821" lon="6.47508">
        <ele>1439.58203125</ele>
        <time>2021-06-26T13:33:37Z</time>
      </trkpt>
      <trkpt lat="46.2082" lon="6.47511">
        <ele>1439.234375</ele>
        <time>2021-06-26T13:33:38Z</time>
      </trkpt>
      <trkpt lat="46.20818" lon="6.47514">
        <ele>1438.58984375</ele>
        <time>2021-06-26T13:33:39Z</time>
      </trkpt>
      <trkpt lat="46.20814" lon="6.47518">
        <ele>1437.6171875</ele>
        <time>2021-06-26T13:33:40Z</time>
      </trkpt>
      <trkpt lat="46.20809" lon="6.47522">
        <ele>1436.46484375</ele>
        <time>2021-06-26T13:33:41Z</time>
      </trkpt>
      <trkpt lat="46.20803" lon="6.47525">
        <ele>1435.09765625</ele>
        <time>2021-06-26T13:33:42Z</time>
      </trkpt>
      <trkpt lat="46.20797" lon="6.4753">
        <ele>1433.64453125</ele>
        <time>2021-06-26T13:33:43Z</time>
      </trkpt>
      <trkpt lat="46.2079" lon="6.47535">
        <ele>1432.390625</ele>
        <time>2021-06-26T13:33:44Z</time>
      </trkpt>
      <trkpt lat="46.20783" lon="6.4754">
        <ele>1431.20703125</ele>
        <time>2021-06-26T13:33:45Z</time>
      </trkpt>
      <trkpt lat="46.20768" lon="6.4755">
        <ele>1429.03515625</ele>
        <time>2021-06-26T13:33:47Z</time>
      </trkpt>
      <trkpt lat="46.20762" lon="6.47557">
        <ele>1427.94140625</ele>
        <time>2021-06-26T13:33:48Z</time>
      </trkpt>
      <trkpt lat="46.20749" lon="6.47574">
        <ele>1425.9375</ele>
        <time>2021-06-26T13:33:51Z</time>
      </trkpt>
      <trkpt lat="46.20738" lon="6.47593">
        <ele>1424.63671875</ele>
        <time>2021-06-26T13:33:56Z</time>
      </trkpt>
      <trkpt lat="46.20732" lon="6.4762">
        <ele>1423.58203125</ele>
        <time>2021-06-26T13:34:02Z</time>
      </trkpt>
      <trkpt lat="46.20731" lon="6.47624">
        <ele>1423.3046875</ele>
        <time>2021-06-26T13:34:03Z</time>
      </trkpt>
      <trkpt lat="46.20715" lon="6.47657">
        <ele>1419.69921875</ele>
        <time>2021-06-26T13:34:11Z</time>
      </trkpt>
      <trkpt lat="46.20708" lon="6.47662">
        <ele>1418.16015625</ele>
        <time>2021-06-26T13:34:13Z</time>
      </trkpt>
      <trkpt lat="46.207" lon="6.47669">
        <ele>1416.53515625</ele>
        <time>2021-06-26T13:34:15Z</time>
      </trkpt>
      <trkpt lat="46.20696" lon="6.47669">
        <ele>1415.7421875</ele>
        <time>2021-06-26T13:34:16Z</time>
      </trkpt>
      <trkpt lat="46.20692" lon="6.47667">
        <ele>1415.1640625</ele>
        <time>2021-06-26T13:34:17Z</time>
      </trkpt>
      <trkpt lat="46.2069" lon="6.47662">
        <ele>1414.92578125</ele>
        <time>2021-06-26T13:34:18Z</time>
      </trkpt>
      <trkpt lat="46.20689" lon="6.47655">
        <ele>1415.02734375</ele>
        <time>2021-06-26T13:34:19Z</time>
      </trkpt>
      <trkpt lat="46.2069" lon="6.47649">
        <ele>1415.35546875</ele>
        <time>2021-06-26T13:34:20Z</time>
      </trkpt>
      <trkpt lat="46.2069" lon="6.4764">
        <ele>1415.71484375</ele>
        <time>2021-06-26T13:34:21Z</time>
      </trkpt>
      <trkpt lat="46.2069" lon="6.47632">
        <ele>1416.03515625</ele>
        <time>2021-06-26T13:34:22Z</time>
      </trkpt>
      <trkpt lat="46.20691" lon="6.47625">
        <ele>1416.12890625</ele>
        <time>2021-06-26T13:34:23Z</time>
      </trkpt>
      <trkpt lat="46.20692" lon="6.47612">
        <ele>1416.29296875</ele>
        <time>2021-06-26T13:34:25Z</time>
      </trkpt>
      <trkpt lat="46.2069" lon="6.47588">
        <ele>1415.94921875</ele>
        <time>2021-06-26T13:34:29Z</time>
      </trkpt>
      <trkpt lat="46.20686" lon="6.4757">
        <ele>1414.96875</ele>
        <time>2021-06-26T13:34:32Z</time>
      </trkpt>
      <trkpt lat="46.20681" lon="6.47555">
        <ele>1413.32421875</ele>
        <time>2021-06-26T13:34:35Z</time>
      </trkpt>
      <trkpt lat="46.20677" lon="6.47551">
        <ele>1412.2421875</ele>
        <time>2021-06-26T13:34:36Z</time>
      </trkpt>
      <trkpt lat="46.20673" lon="6.47547">
        <ele>1410.92578125</ele>
        <time>2021-06-26T13:34:37Z</time>
      </trkpt>
      <trkpt lat="46.20668" lon="6.47544">
        <ele>1409.66015625</ele>
        <time>2021-06-26T13:34:38Z</time>
      </trkpt>
      <trkpt lat="46.20665" lon="6.47543">
        <ele>1408.796875</ele>
        <time>2021-06-26T13:34:39Z</time>
      </trkpt>
      <trkpt lat="46.20664" lon="6.47544">
        <ele>1408.47265625</ele>
        <time>2021-06-26T13:34:40Z</time>
      </trkpt>
      <trkpt lat="46.20663" lon="6.47547">
        <ele>1408.32421875</ele>
        <time>2021-06-26T13:34:41Z</time>
      </trkpt>
      <trkpt lat="46.20661" lon="6.47551">
        <ele>1408.203125</ele>
        <time>2021-06-26T13:34:42Z</time>
      </trkpt>
      <trkpt lat="46.20659" lon="6.47557">
        <ele>1408.01171875</ele>
        <time>2021-06-26T13:34:43Z</time>
      </trkpt>
      <trkpt lat="46.20655" lon="6.47564">
        <ele>1407.71484375</ele>
        <time>2021-06-26T13:34:44Z</time>
      </trkpt>
      <trkpt lat="46.2065" lon="6.4757">
        <ele>1407.30078125</ele>
        <time>2021-06-26T13:34:45Z</time>
      </trkpt>
      <trkpt lat="46.20632" lon="6.47593">
        <ele>1404.57421875</ele>
        <time>2021-06-26T13:34:48Z</time>
      </trkpt>
      <trkpt lat="46.20628" lon="6.47601">
        <ele>1403.8203125</ele>
        <time>2021-06-26T13:34:49Z</time>
      </trkpt>
      <trkpt lat="46.20624" lon="6.4761">
        <ele>1403.2578125</ele>
        <time>2021-06-26T13:34:50Z</time>
      </trkpt>
      <trkpt lat="46.20607" lon="6.47659">
        <ele>1400.609375</ele>
        <time>2021-06-26T13:34:55Z</time>
      </trkpt>
      <trkpt lat="46.20596" lon="6.47689">
        <ele>1400</ele>
        <time>2021-06-26T13:34:58Z</time>
      </trkpt>
      <trkpt lat="46.20593" lon="6.477">
        <ele>1399.72265625</ele>
        <time>2021-06-26T13:34:59Z</time>
      </trkpt>
      <trkpt lat="46.20584" lon="6.47754">
        <ele>1397.65234375</ele>
        <time>2021-06-26T13:35:04Z</time>
      </trkpt>
      <trkpt lat="46.20581" lon="6.47763">
        <ele>1397.33203125</ele>
        <time>2021-06-26T13:35:05Z</time>
      </trkpt>
      <trkpt lat="46.20578" lon="6.47771">
        <ele>1397.04296875</ele>
        <time>2021-06-26T13:35:06Z</time>
      </trkpt>
      <trkpt lat="46.20574" lon="6.47777">
        <ele>1396.61328125</ele>
        <time>2021-06-26T13:35:07Z</time>
      </trkpt>
      <trkpt lat="46.20571" lon="6.47782">
        <ele>1396.37109375</ele>
        <time>2021-06-26T13:35:08Z</time>
      </trkpt>
      <trkpt lat="46.20569" lon="6.47785">
        <ele>1396.265625</ele>
        <time>2021-06-26T13:35:09Z</time>
      </trkpt>
      <trkpt lat="46.20567" lon="6.47786">
        <ele>1396.24609375</ele>
        <time>2021-06-26T13:35:10Z</time>
      </trkpt>
      <trkpt lat="46.20566" lon="6.47782">
        <ele>1396.58984375</ele>
        <time>2021-06-26T13:35:23Z</time>
      </trkpt>
      <trkpt lat="46.20566" lon="6.47782">
        <ele>1396.546875</ele>
        <time>2021-06-26T13:35:46Z</time>
      </trkpt>
      <trkpt lat="46.20566" lon="6.47781">
        <ele>1396.6640625</ele>
        <time>2021-06-26T13:36:12Z</time>
      </trkpt>
      <trkpt lat="46.20565" lon="6.47781">
        <ele>1396.68359375</ele>
        <time>2021-06-26T13:36:16Z</time>
      </trkpt>
      <trkpt lat="46.20564" lon="6.47782">
        <ele>1396.65234375</ele>
        <time>2021-06-26T13:36:17Z</time>
      </trkpt>
      <trkpt lat="46.20563" lon="6.47784">
        <ele>1396.55078125</ele>
        <time>2021-06-26T13:36:18Z</time>
      </trkpt>
      <trkpt lat="46.20559" lon="6.47802">
        <ele>1395.28125</ele>
        <time>2021-06-26T13:36:22Z</time>
      </trkpt>
      <trkpt lat="46.20559" lon="6.47809">
        <ele>1394.6875</ele>
        <time>2021-06-26T13:36:23Z</time>
      </trkpt>
      <trkpt lat="46.20561" lon="6.4785">
        <ele>1389.359375</ele>
        <time>2021-06-26T13:36:28Z</time>
      </trkpt>
      <trkpt lat="46.20568" lon="6.47888">
        <ele>1383.00390625</ele>
        <time>2021-06-26T13:36:32Z</time>
      </trkpt>
      <trkpt lat="46.20575" lon="6.4792">
        <ele>1377.15625</ele>
        <time>2021-06-26T13:36:36Z</time>
      </trkpt>
      <trkpt lat="46.20577" lon="6.47926">
        <ele>1375.91015625</ele>
        <time>2021-06-26T13:36:37Z</time>
      </trkpt>
      <trkpt lat="46.20578" lon="6.47932">
        <ele>1374.80078125</ele>
        <time>2021-06-26T13:36:38Z</time>
      </trkpt>
      <trkpt lat="46.20578" lon="6.47937">
        <ele>1373.73828125</ele>
        <time>2021-06-26T13:36:39Z</time>
      </trkpt>
      <trkpt lat="46.20577" lon="6.47941">
        <ele>1372.87890625</ele>
        <time>2021-06-26T13:36:40Z</time>
      </trkpt>
      <trkpt lat="46.20576" lon="6.47943">
        <ele>1372.28125</ele>
        <time>2021-06-26T13:36:41Z</time>
      </trkpt>
      <trkpt lat="46.20577" lon="6.47943">
        <ele>1372.234375</ele>
        <time>2021-06-26T13:36:54Z</time>
      </trkpt>
      <trkpt lat="46.20575" lon="6.47942">
        <ele>1372.234375</ele>
        <time>2021-06-26T13:37:14Z</time>
      </trkpt>
      <trkpt lat="46.20573" lon="6.47941">
        <ele>1372.3125</ele>
        <time>2021-06-26T13:37:15Z</time>
      </trkpt>
      <trkpt lat="46.20571" lon="6.47938">
        <ele>1372.90625</ele>
        <time>2021-06-26T13:37:16Z</time>
      </trkpt>
      <trkpt lat="46.20562" lon="6.47928">
        <ele>1374.578125</ele>
        <time>2021-06-26T13:37:19Z</time>
      </trkpt>
      <trkpt lat="46.20558" lon="6.47927">
        <ele>1374.62890625</ele>
        <time>2021-06-26T13:37:20Z</time>
      </trkpt>
      <trkpt lat="46.20554" lon="6.47927">
        <ele>1374.49609375</ele>
        <time>2021-06-26T13:37:21Z</time>
      </trkpt>
      <trkpt lat="46.20551" lon="6.47927">
        <ele>1374.265625</ele>
        <time>2021-06-26T13:37:22Z</time>
      </trkpt>
      <trkpt lat="46.20547" lon="6.47927">
        <ele>1374.0390625</ele>
        <time>2021-06-26T13:37:23Z</time>
      </trkpt>
      <trkpt lat="46.20535" lon="6.47928">
        <ele>1374.12890625</ele>
        <time>2021-06-26T13:37:26Z</time>
      </trkpt>
      <trkpt lat="46.20502" lon="6.47929">
        <ele>1375.5859375</ele>
        <time>2021-06-26T13:37:34Z</time>
      </trkpt>
      <trkpt lat="46.20476" lon="6.47934">
        <ele>1376.67578125</ele>
        <time>2021-06-26T13:37:40Z</time>
      </trkpt>
      <trkpt lat="46.20449" lon="6.47934">
        <ele>1380.03125</ele>
        <time>2021-06-26T13:37:46Z</time>
      </trkpt>
      <trkpt lat="46.20444" lon="6.47935">
        <ele>1380.421875</ele>
        <time>2021-06-26T13:37:47Z</time>
      </trkpt>
      <trkpt lat="46.2044" lon="6.47938">
        <ele>1380.515625</ele>
        <time>2021-06-26T13:37:48Z</time>
      </trkpt>
      <trkpt lat="46.20436" lon="6.47941">
        <ele>1380.5625</ele>
        <time>2021-06-26T13:37:49Z</time>
      </trkpt>
      <trkpt lat="46.20432" lon="6.47945">
        <ele>1380.44140625</ele>
        <time>2021-06-26T13:37:50Z</time>
      </trkpt>
      <trkpt lat="46.20429" lon="6.47949">
        <ele>1380.234375</ele>
        <time>2021-06-26T13:37:51Z</time>
      </trkpt>
      <trkpt lat="46.20426" lon="6.47953">
        <ele>1380.0078125</ele>
        <time>2021-06-26T13:37:52Z</time>
      </trkpt>
      <trkpt lat="46.20424" lon="6.47956">
        <ele>1379.79296875</ele>
        <time>2021-06-26T13:37:53Z</time>
      </trkpt>
      <trkpt lat="46.20423" lon="6.4796">
        <ele>1379.51953125</ele>
        <time>2021-06-26T13:37:54Z</time>
      </trkpt>
      <trkpt lat="46.20421" lon="6.47965">
        <ele>1379.2265625</ele>
        <time>2021-06-26T13:37:55Z</time>
      </trkpt>
      <trkpt lat="46.20418" lon="6.47969">
        <ele>1379.078125</ele>
        <time>2021-06-26T13:37:56Z</time>
      </trkpt>
      <trkpt lat="46.20415" lon="6.47973">
        <ele>1379.16796875</ele>
        <time>2021-06-26T13:37:57Z</time>
      </trkpt>
      <trkpt lat="46.20411" lon="6.47975">
        <ele>1379.44140625</ele>
        <time>2021-06-26T13:37:58Z</time>
      </trkpt>
      <trkpt lat="46.20407" lon="6.47977">
        <ele>1379.8046875</ele>
        <time>2021-06-26T13:37:59Z</time>
      </trkpt>
      <trkpt lat="46.20403" lon="6.47979">
        <ele>1379.7578125</ele>
        <time>2021-06-26T13:38:00Z</time>
      </trkpt>
      <trkpt lat="46.20398" lon="6.4798">
        <ele>1379.79296875</ele>
        <time>2021-06-26T13:38:01Z</time>
      </trkpt>
      <trkpt lat="46.20394" lon="6.47981">
        <ele>1379.921875</ele>
        <time>2021-06-26T13:38:02Z</time>
      </trkpt>
      <trkpt lat="46.20366" lon="6.47968">
        <ele>1381.75</ele>
        <time>2021-06-26T13:38:12Z</time>
      </trkpt>
      <trkpt lat="46.20364" lon="6.47967">
        <ele>1381.86328125</ele>
        <time>2021-06-26T13:38:23Z</time>
      </trkpt>
      <trkpt lat="46.20364" lon="6.47969">
        <ele>1381.6875</ele>
        <time>2021-06-26T13:38:29Z</time>
      </trkpt>
      <trkpt lat="46.20363" lon="6.47971">
        <ele>1381.42578125</ele>
        <time>2021-06-26T13:38:30Z</time>
      </trkpt>
      <trkpt lat="46.20361" lon="6.47974">
        <ele>1381.015625</ele>
        <time>2021-06-26T13:38:31Z</time>
      </trkpt>
      <trkpt lat="46.20359" lon="6.47977">
        <ele>1380.6015625</ele>
        <time>2021-06-26T13:38:32Z</time>
      </trkpt>
      <trkpt lat="46.20357" lon="6.47979">
        <ele>1380.2734375</ele>
        <time>2021-06-26T13:38:33Z</time>
      </trkpt>
      <trkpt lat="46.20355" lon="6.4798">
        <ele>1380.05078125</ele>
        <time>2021-06-26T13:38:34Z</time>
      </trkpt>
      <trkpt lat="46.20352" lon="6.4798">
        <ele>1380.01953125</ele>
        <time>2021-06-26T13:38:35Z</time>
      </trkpt>
      <trkpt lat="46.20349" lon="6.47979">
        <ele>1380.09375</ele>
        <time>2021-06-26T13:38:36Z</time>
      </trkpt>
      <trkpt lat="46.20323" lon="6.47986">
        <ele>1377.6484375</ele>
        <time>2021-06-26T13:38:47Z</time>
      </trkpt>
      <trkpt lat="46.20321" lon="6.47987">
        <ele>1377.40625</ele>
        <time>2021-06-26T13:38:52Z</time>
      </trkpt>
      <trkpt lat="46.2032" lon="6.47988">
        <ele>1377.0703125</ele>
        <time>2021-06-26T13:38:53Z</time>
      </trkpt>
      <trkpt lat="46.20319" lon="6.4799">
        <ele>1376.609375</ele>
        <time>2021-06-26T13:38:54Z</time>
      </trkpt>
      <trkpt lat="46.20319" lon="6.47993">
        <ele>1376.0390625</ele>
        <time>2021-06-26T13:38:55Z</time>
      </trkpt>
      <trkpt lat="46.20318" lon="6.47996">
        <ele>1375.30859375</ele>
        <time>2021-06-26T13:38:56Z</time>
      </trkpt>
      <trkpt lat="46.20317" lon="6.47999">
        <ele>1374.53125</ele>
        <time>2021-06-26T13:38:57Z</time>
      </trkpt>
      <trkpt lat="46.20315" lon="6.48002">
        <ele>1373.796875</ele>
        <time>2021-06-26T13:38:58Z</time>
      </trkpt>
      <trkpt lat="46.20315" lon="6.48005">
        <ele>1373.09375</ele>
        <time>2021-06-26T13:38:59Z</time>
      </trkpt>
      <trkpt lat="46.2031" lon="6.48015">
        <ele>1370.59375</ele>
        <time>2021-06-26T13:39:04Z</time>
      </trkpt>
      <trkpt lat="46.20306" lon="6.48019">
        <ele>1369.6953125</ele>
        <time>2021-06-26T13:39:07Z</time>
      </trkpt>
      <trkpt lat="46.20305" lon="6.48021">
        <ele>1369.14453125</ele>
        <time>2021-06-26T13:39:08Z</time>
      </trkpt>
      <trkpt lat="46.20303" lon="6.48023">
        <ele>1368.7421875</ele>
        <time>2021-06-26T13:39:09Z</time>
      </trkpt>
      <trkpt lat="46.20302" lon="6.48025">
        <ele>1368.38671875</ele>
        <time>2021-06-26T13:39:10Z</time>
      </trkpt>
      <trkpt lat="46.20299" lon="6.48026">
        <ele>1368.0546875</ele>
        <time>2021-06-26T13:39:11Z</time>
      </trkpt>
      <trkpt lat="46.20297" lon="6.48027">
        <ele>1367.92578125</ele>
        <time>2021-06-26T13:39:12Z</time>
      </trkpt>
      <trkpt lat="46.20294" lon="6.48027">
        <ele>1367.8203125</ele>
        <time>2021-06-26T13:39:13Z</time>
      </trkpt>
      <trkpt lat="46.20292" lon="6.48028">
        <ele>1367.6484375</ele>
        <time>2021-06-26T13:39:14Z</time>
      </trkpt>
      <trkpt lat="46.2028" lon="6.48035">
        <ele>1366.46484375</ele>
        <time>2021-06-26T13:39:19Z</time>
      </trkpt>
      <trkpt lat="46.20279" lon="6.48036">
        <ele>1366.27734375</ele>
        <time>2021-06-26T13:39:20Z</time>
      </trkpt>
      <trkpt lat="46.20278" lon="6.48037">
        <ele>1366.06640625</ele>
        <time>2021-06-26T13:39:22Z</time>
      </trkpt>
      <trkpt lat="46.20269" lon="6.48041">
        <ele>1365.48828125</ele>
        <time>2021-06-26T13:39:27Z</time>
      </trkpt>
      <trkpt lat="46.20263" lon="6.48043">
        <ele>1365.12890625</ele>
        <time>2021-06-26T13:39:30Z</time>
      </trkpt>
      <trkpt lat="46.20257" lon="6.48046">
        <ele>1364.5390625</ele>
        <time>2021-06-26T13:39:34Z</time>
      </trkpt>
      <trkpt lat="46.20256" lon="6.48048">
        <ele>1364.30078125</ele>
        <time>2021-06-26T13:39:35Z</time>
      </trkpt>
      <trkpt lat="46.20253" lon="6.48054">
        <ele>1363.33984375</ele>
        <time>2021-06-26T13:39:38Z</time>
      </trkpt>
      <trkpt lat="46.20255" lon="6.48058">
        <ele>1362.62890625</ele>
        <time>2021-06-26T13:39:46Z</time>
      </trkpt>
      <trkpt lat="46.20254" lon="6.48062">
        <ele>1362.01171875</ele>
        <time>2021-06-26T13:39:51Z</time>
      </trkpt>
      <trkpt lat="46.20252" lon="6.48067">
        <ele>1361.1640625</ele>
        <time>2021-06-26T13:39:54Z</time>
      </trkpt>
      <trkpt lat="46.20251" lon="6.48071">
        <ele>1360.67578125</ele>
        <time>2021-06-26T13:39:55Z</time>
      </trkpt>
      <trkpt lat="46.2025" lon="6.48075">
        <ele>1360.09765625</ele>
        <time>2021-06-26T13:39:56Z</time>
      </trkpt>
      <trkpt lat="46.20247" lon="6.48079">
        <ele>1359.50390625</ele>
        <time>2021-06-26T13:39:57Z</time>
      </trkpt>
      <trkpt lat="46.20245" lon="6.48083">
        <ele>1358.83203125</ele>
        <time>2021-06-26T13:39:58Z</time>
      </trkpt>
      <trkpt lat="46.20243" lon="6.48088">
        <ele>1357.97265625</ele>
        <time>2021-06-26T13:39:59Z</time>
      </trkpt>
      <trkpt lat="46.20243" lon="6.48093">
        <ele>1357.0390625</ele>
        <time>2021-06-26T13:40:00Z</time>
      </trkpt>
      <trkpt lat="46.20242" lon="6.48098">
        <ele>1356.1875</ele>
        <time>2021-06-26T13:40:01Z</time>
      </trkpt>
      <trkpt lat="46.20241" lon="6.48103">
        <ele>1355.3515625</ele>
        <time>2021-06-26T13:40:02Z</time>
      </trkpt>
      <trkpt lat="46.20239" lon="6.48108">
        <ele>1354.44140625</ele>
        <time>2021-06-26T13:40:03Z</time>
      </trkpt>
      <trkpt lat="46.20238" lon="6.48114">
        <ele>1353.50390625</ele>
        <time>2021-06-26T13:40:04Z</time>
      </trkpt>
      <trkpt lat="46.20237" lon="6.48119">
        <ele>1352.6484375</ele>
        <time>2021-06-26T13:40:05Z</time>
      </trkpt>
      <trkpt lat="46.20237" lon="6.48121">
        <ele>1352.1953125</ele>
        <time>2021-06-26T13:40:06Z</time>
      </trkpt>
      <trkpt lat="46.20239" lon="6.48122">
        <ele>1351.98046875</ele>
        <time>2021-06-26T13:40:07Z</time>
      </trkpt>
      <trkpt lat="46.20238" lon="6.48123">
        <ele>1351.80859375</ele>
        <time>2021-06-26T13:40:19Z</time>
      </trkpt>
      <trkpt lat="46.20237" lon="6.48125">
        <ele>1351.5703125</ele>
        <time>2021-06-26T13:40:31Z</time>
      </trkpt>
      <trkpt lat="46.20236" lon="6.4813">
        <ele>1350.59765625</ele>
        <time>2021-06-26T13:40:40Z</time>
      </trkpt>
      <trkpt lat="46.20235" lon="6.48132">
        <ele>1350.31640625</ele>
        <time>2021-06-26T13:40:41Z</time>
      </trkpt>
      <trkpt lat="46.20235" lon="6.48134">
        <ele>1350.00390625</ele>
        <time>2021-06-26T13:40:42Z</time>
      </trkpt>
      <trkpt lat="46.20234" lon="6.48137">
        <ele>1349.578125</ele>
        <time>2021-06-26T13:40:43Z</time>
      </trkpt>
      <trkpt lat="46.20233" lon="6.48141">
        <ele>1349.08203125</ele>
        <time>2021-06-26T13:40:44Z</time>
      </trkpt>
      <trkpt lat="46.20231" lon="6.48144">
        <ele>1348.5625</ele>
        <time>2021-06-26T13:40:45Z</time>
      </trkpt>
      <trkpt lat="46.20229" lon="6.48147">
        <ele>1348.09765625</ele>
        <time>2021-06-26T13:40:46Z</time>
      </trkpt>
      <trkpt lat="46.20225" lon="6.4815">
        <ele>1347.78125</ele>
        <time>2021-06-26T13:40:47Z</time>
      </trkpt>
      <trkpt lat="46.2022" lon="6.48152">
        <ele>1347.546875</ele>
        <time>2021-06-26T13:40:48Z</time>
      </trkpt>
      <trkpt lat="46.20215" lon="6.48153">
        <ele>1347.33203125</ele>
        <time>2021-06-26T13:40:49Z</time>
      </trkpt>
      <trkpt lat="46.20209" lon="6.48155">
        <ele>1346.92578125</ele>
        <time>2021-06-26T13:40:50Z</time>
      </trkpt>
      <trkpt lat="46.20199" lon="6.48161">
        <ele>1345.9921875</ele>
        <time>2021-06-26T13:40:52Z</time>
      </trkpt>
      <trkpt lat="46.20195" lon="6.48165">
        <ele>1345.453125</ele>
        <time>2021-06-26T13:40:53Z</time>
      </trkpt>
      <trkpt lat="46.20193" lon="6.48172">
        <ele>1344.70703125</ele>
        <time>2021-06-26T13:40:54Z</time>
      </trkpt>
      <trkpt lat="46.2019" lon="6.48179">
        <ele>1343.890625</ele>
        <time>2021-06-26T13:40:55Z</time>
      </trkpt>
      <trkpt lat="46.20187" lon="6.48187">
        <ele>1343.11328125</ele>
        <time>2021-06-26T13:40:56Z</time>
      </trkpt>
      <trkpt lat="46.20178" lon="6.48207">
        <ele>1340.73046875</ele>
        <time>2021-06-26T13:40:59Z</time>
      </trkpt>
      <trkpt lat="46.20175" lon="6.48213">
        <ele>1340.23828125</ele>
        <time>2021-06-26T13:41:00Z</time>
      </trkpt>
      <trkpt lat="46.20172" lon="6.48218">
        <ele>1339.96484375</ele>
        <time>2021-06-26T13:41:01Z</time>
      </trkpt>
      <trkpt lat="46.20169" lon="6.48222">
        <ele>1339.953125</ele>
        <time>2021-06-26T13:41:02Z</time>
      </trkpt>
      <trkpt lat="46.20165" lon="6.48225">
        <ele>1340.05078125</ele>
        <time>2021-06-26T13:41:03Z</time>
      </trkpt>
      <trkpt lat="46.20161" lon="6.48228">
        <ele>1340.24609375</ele>
        <time>2021-06-26T13:41:04Z</time>
      </trkpt>
      <trkpt lat="46.20157" lon="6.48231">
        <ele>1340.53125</ele>
        <time>2021-06-26T13:41:05Z</time>
      </trkpt>
      <trkpt lat="46.20153" lon="6.48233">
        <ele>1340.8046875</ele>
        <time>2021-06-26T13:41:06Z</time>
      </trkpt>
      <trkpt lat="46.20149" lon="6.48237">
        <ele>1341.19921875</ele>
        <time>2021-06-26T13:41:07Z</time>
      </trkpt>
      <trkpt lat="46.20144" lon="6.48241">
        <ele>1341.7265625</ele>
        <time>2021-06-26T13:41:08Z</time>
      </trkpt>
      <trkpt lat="46.20139" lon="6.48244">
        <ele>1342.32421875</ele>
        <time>2021-06-26T13:41:09Z</time>
      </trkpt>
      <trkpt lat="46.20134" lon="6.48247">
        <ele>1342.93359375</ele>
        <time>2021-06-26T13:41:10Z</time>
      </trkpt>
      <trkpt lat="46.20129" lon="6.48247">
        <ele>1343.34765625</ele>
        <time>2021-06-26T13:41:11Z</time>
      </trkpt>
      <trkpt lat="46.20123" lon="6.48245">
        <ele>1343.3046875</ele>
        <time>2021-06-26T13:41:12Z</time>
      </trkpt>
      <trkpt lat="46.20117" lon="6.48241">
        <ele>1343.07421875</ele>
        <time>2021-06-26T13:41:13Z</time>
      </trkpt>
      <trkpt lat="46.20111" lon="6.48237">
        <ele>1342.703125</ele>
        <time>2021-06-26T13:41:14Z</time>
      </trkpt>
      <trkpt lat="46.20105" lon="6.48233">
        <ele>1342.296875</ele>
        <time>2021-06-26T13:41:15Z</time>
      </trkpt>
      <trkpt lat="46.20094" lon="6.48224">
        <ele>1340.95703125</ele>
        <time>2021-06-26T13:41:17Z</time>
      </trkpt>
      <trkpt lat="46.2009" lon="6.48218">
        <ele>1339.90625</ele>
        <time>2021-06-26T13:41:18Z</time>
      </trkpt>
      <trkpt lat="46.20086" lon="6.48212">
        <ele>1338.75</ele>
        <time>2021-06-26T13:41:19Z</time>
      </trkpt>
      <trkpt lat="46.20064" lon="6.48182">
        <ele>1333.12109375</ele>
        <time>2021-06-26T13:41:23Z</time>
      </trkpt>
      <trkpt lat="46.20057" lon="6.48176">
        <ele>1332.2578125</ele>
        <time>2021-06-26T13:41:24Z</time>
      </trkpt>
      <trkpt lat="46.2005" lon="6.48173">
        <ele>1331.48828125</ele>
        <time>2021-06-26T13:41:25Z</time>
      </trkpt>
      <trkpt lat="46.20042" lon="6.48171">
        <ele>1330.96875</ele>
        <time>2021-06-26T13:41:26Z</time>
      </trkpt>
      <trkpt lat="46.20034" lon="6.4817">
        <ele>1330.4765625</ele>
        <time>2021-06-26T13:41:27Z</time>
      </trkpt>
      <trkpt lat="46.20028" lon="6.48168">
        <ele>1329.8046875</ele>
        <time>2021-06-26T13:41:28Z</time>
      </trkpt>
      <trkpt lat="46.20023" lon="6.48164">
        <ele>1328.95703125</ele>
        <time>2021-06-26T13:41:29Z</time>
      </trkpt>
      <trkpt lat="46.20013" lon="6.48157">
        <ele>1327.4765625</ele>
        <time>2021-06-26T13:41:31Z</time>
      </trkpt>
      <trkpt lat="46.19993" lon="6.48142">
        <ele>1324.0390625</ele>
        <time>2021-06-26T13:41:34Z</time>
      </trkpt>
      <trkpt lat="46.19987" lon="6.48137">
        <ele>1322.86328125</ele>
        <time>2021-06-26T13:41:35Z</time>
      </trkpt>
      <trkpt lat="46.19981" lon="6.48135">
        <ele>1322.05859375</ele>
        <time>2021-06-26T13:41:36Z</time>
      </trkpt>
      <trkpt lat="46.19969" lon="6.4813">
        <ele>1320.734375</ele>
        <time>2021-06-26T13:41:38Z</time>
      </trkpt>
      <trkpt lat="46.19964" lon="6.48124">
        <ele>1319.75</ele>
        <time>2021-06-26T13:41:39Z</time>
      </trkpt>
      <trkpt lat="46.19961" lon="6.48116">
        <ele>1318.58984375</ele>
        <time>2021-06-26T13:41:40Z</time>
      </trkpt>
      <trkpt lat="46.19959" lon="6.48109">
        <ele>1317.3671875</ele>
        <time>2021-06-26T13:41:41Z</time>
      </trkpt>
      <trkpt lat="46.19955" lon="6.48101">
        <ele>1316.31640625</ele>
        <time>2021-06-26T13:41:42Z</time>
      </trkpt>
      <trkpt lat="46.19952" lon="6.48093">
        <ele>1315.5234375</ele>
        <time>2021-06-26T13:41:43Z</time>
      </trkpt>
      <trkpt lat="46.1995" lon="6.48086">
        <ele>1314.828125</ele>
        <time>2021-06-26T13:41:44Z</time>
      </trkpt>
      <trkpt lat="46.19944" lon="6.48074">
        <ele>1313.78515625</ele>
        <time>2021-06-26T13:41:46Z</time>
      </trkpt>
      <trkpt lat="46.19938" lon="6.4806">
        <ele>1312.83203125</ele>
        <time>2021-06-26T13:41:48Z</time>
      </trkpt>
      <trkpt lat="46.19935" lon="6.48052">
        <ele>1312.1953125</ele>
        <time>2021-06-26T13:41:49Z</time>
      </trkpt>
      <trkpt lat="46.19932" lon="6.48043">
        <ele>1311.55078125</ele>
        <time>2021-06-26T13:41:50Z</time>
      </trkpt>
      <trkpt lat="46.19928" lon="6.48025">
        <ele>1310.20703125</ele>
        <time>2021-06-26T13:41:52Z</time>
      </trkpt>
      <trkpt lat="46.19912" lon="6.47973">
        <ele>1306.796875</ele>
        <time>2021-06-26T13:41:58Z</time>
      </trkpt>
      <trkpt lat="46.1991" lon="6.47965">
        <ele>1306.12109375</ele>
        <time>2021-06-26T13:41:59Z</time>
      </trkpt>
      <trkpt lat="46.19906" lon="6.47953">
        <ele>1305.44140625</ele>
        <time>2021-06-26T13:42:02Z</time>
      </trkpt>
      <trkpt lat="46.19907" lon="6.47952">
        <ele>1305.4921875</ele>
        <time>2021-06-26T13:42:13Z</time>
      </trkpt>
      <trkpt lat="46.19906" lon="6.4795">
        <ele>1305.30859375</ele>
        <time>2021-06-26T13:42:24Z</time>
      </trkpt>
      <trkpt lat="46.19905" lon="6.47948">
        <ele>1305.1953125</ele>
        <time>2021-06-26T13:42:25Z</time>
      </trkpt>
      <trkpt lat="46.19889" lon="6.4791">
        <ele>1302.0234375</ele>
        <time>2021-06-26T13:42:35Z</time>
      </trkpt>
      <trkpt lat="46.19883" lon="6.47899">
        <ele>1301.7578125</ele>
        <time>2021-06-26T13:42:37Z</time>
      </trkpt>
      <trkpt lat="46.19875" lon="6.47881">
        <ele>1301.7265625</ele>
        <time>2021-06-26T13:42:40Z</time>
      </trkpt>
      <trkpt lat="46.19873" lon="6.47875">
        <ele>1301.78515625</ele>
        <time>2021-06-26T13:42:41Z</time>
      </trkpt>
      <trkpt lat="46.19862" lon="6.47856">
        <ele>1301.71875</ele>
        <time>2021-06-26T13:42:46Z</time>
      </trkpt>
      <trkpt lat="46.19858" lon="6.47853">
        <ele>1301.515625</ele>
        <time>2021-06-26T13:42:47Z</time>
      </trkpt>
      <trkpt lat="46.19854" lon="6.47851">
        <ele>1301.3359375</ele>
        <time>2021-06-26T13:42:48Z</time>
      </trkpt>
      <trkpt lat="46.1985" lon="6.47847">
        <ele>1301.1640625</ele>
        <time>2021-06-26T13:42:49Z</time>
      </trkpt>
      <trkpt lat="46.19846" lon="6.47844">
        <ele>1301</ele>
        <time>2021-06-26T13:42:50Z</time>
      </trkpt>
      <trkpt lat="46.19813" lon="6.47812">
        <ele>1301.078125</ele>
        <time>2021-06-26T13:43:01Z</time>
      </trkpt>
      <trkpt lat="46.19778" lon="6.47785">
        <ele>1301.06640625</ele>
        <time>2021-06-26T13:43:14Z</time>
      </trkpt>
      <trkpt lat="46.19748" lon="6.47755">
        <ele>1301.53125</ele>
        <time>2021-06-26T13:43:25Z</time>
      </trkpt>
      <trkpt lat="46.19734" lon="6.47735">
        <ele>1302.15234375</ele>
        <time>2021-06-26T13:43:29Z</time>
      </trkpt>
      <trkpt lat="46.1973" lon="6.47732">
        <ele>1302.02734375</ele>
        <time>2021-06-26T13:43:30Z</time>
      </trkpt>
      <trkpt lat="46.19719" lon="6.47725">
        <ele>1301.203125</ele>
        <time>2021-06-26T13:43:33Z</time>
      </trkpt>
      <trkpt lat="46.19715" lon="6.47725">
        <ele>1300.64453125</ele>
        <time>2021-06-26T13:43:34Z</time>
      </trkpt>
      <trkpt lat="46.19711" lon="6.47726">
        <ele>1300.05859375</ele>
        <time>2021-06-26T13:43:35Z</time>
      </trkpt>
      <trkpt lat="46.19708" lon="6.47728">
        <ele>1299.44140625</ele>
        <time>2021-06-26T13:43:36Z</time>
      </trkpt>
      <trkpt lat="46.19704" lon="6.47729">
        <ele>1298.84375</ele>
        <time>2021-06-26T13:43:37Z</time>
      </trkpt>
      <trkpt lat="46.19701" lon="6.47729">
        <ele>1298.359375</ele>
        <time>2021-06-26T13:43:38Z</time>
      </trkpt>
      <trkpt lat="46.19687" lon="6.47734">
        <ele>1296.046875</ele>
        <time>2021-06-26T13:43:48Z</time>
      </trkpt>
      <trkpt lat="46.19688" lon="6.47732">
        <ele>1296.296875</ele>
        <time>2021-06-26T13:44:04Z</time>
      </trkpt>
      <trkpt lat="46.19688" lon="6.47734">
        <ele>1296.16015625</ele>
        <time>2021-06-26T13:44:57Z</time>
      </trkpt>
      <trkpt lat="46.19689" lon="6.47734">
        <ele>1296.21484375</ele>
        <time>2021-06-26T13:45:48Z</time>
      </trkpt>
      <trkpt lat="46.1969" lon="6.47735">
        <ele>1296.36328125</ele>
        <time>2021-06-26T13:45:53Z</time>
      </trkpt>
      <trkpt lat="46.19715" lon="6.47725">
        <ele>1300.59375</ele>
        <time>2021-06-26T13:46:02Z</time>
      </trkpt>
      <trkpt lat="46.19744" lon="6.47747">
        <ele>1302.08203125</ele>
        <time>2021-06-26T13:46:14Z</time>
      </trkpt>
      <trkpt lat="46.19749" lon="6.47754">
        <ele>1301.79296875</ele>
        <time>2021-06-26T13:46:28Z</time>
      </trkpt>
      <trkpt lat="46.19758" lon="6.47772">
        <ele>1300.8671875</ele>
        <time>2021-06-26T13:46:43Z</time>
      </trkpt>
      <trkpt lat="46.19786" lon="6.47793">
        <ele>1300.82421875</ele>
        <time>2021-06-26T13:46:54Z</time>
      </trkpt>
      <trkpt lat="46.19813" lon="6.47816">
        <ele>1300.72265625</ele>
        <time>2021-06-26T13:46:59Z</time>
      </trkpt>
      <trkpt lat="46.19866" lon="6.47862">
        <ele>1301.8046875</ele>
        <time>2021-06-26T13:47:10Z</time>
      </trkpt>
      <trkpt lat="46.19871" lon="6.47865">
        <ele>1301.98046875</ele>
        <time>2021-06-26T13:47:11Z</time>
      </trkpt>
      <trkpt lat="46.19874" lon="6.47871">
        <ele>1302</ele>
        <time>2021-06-26T13:47:12Z</time>
      </trkpt>
      <trkpt lat="46.19876" lon="6.47878">
        <ele>1301.9140625</ele>
        <time>2021-06-26T13:47:13Z</time>
      </trkpt>
      <trkpt lat="46.19878" lon="6.47885">
        <ele>1301.78515625</ele>
        <time>2021-06-26T13:47:14Z</time>
      </trkpt>
      <trkpt lat="46.1988" lon="6.47892">
        <ele>1301.71875</ele>
        <time>2021-06-26T13:47:15Z</time>
      </trkpt>
      <trkpt lat="46.19883" lon="6.47899">
        <ele>1301.8125</ele>
        <time>2021-06-26T13:47:16Z</time>
      </trkpt>
      <trkpt lat="46.19893" lon="6.47918">
        <ele>1302.83984375</ele>
        <time>2021-06-26T13:47:19Z</time>
      </trkpt>
      <trkpt lat="46.19906" lon="6.47946">
        <ele>1305.16796875</ele>
        <time>2021-06-26T13:47:25Z</time>
      </trkpt>
      <trkpt lat="46.19906" lon="6.47951">
        <ele>1305.3515625</ele>
        <time>2021-06-26T13:47:26Z</time>
      </trkpt>
      <trkpt lat="46.19904" lon="6.47956">
        <ele>1305.4140625</ele>
        <time>2021-06-26T13:47:27Z</time>
      </trkpt>
      <trkpt lat="46.19902" lon="6.4796">
        <ele>1305.38671875</ele>
        <time>2021-06-26T13:47:28Z</time>
      </trkpt>
      <trkpt lat="46.19899" lon="6.47963">
        <ele>1305.26171875</ele>
        <time>2021-06-26T13:47:29Z</time>
      </trkpt>
      <trkpt lat="46.19896" lon="6.47965">
        <ele>1305.11328125</ele>
        <time>2021-06-26T13:47:30Z</time>
      </trkpt>
      <trkpt lat="46.19892" lon="6.47967">
        <ele>1304.953125</ele>
        <time>2021-06-26T13:47:31Z</time>
      </trkpt>
      <trkpt lat="46.19889" lon="6.47968">
        <ele>1304.8359375</ele>
        <time>2021-06-26T13:47:32Z</time>
      </trkpt>
      <trkpt lat="46.19841" lon="6.47985">
        <ele>1304.3203125</ele>
        <time>2021-06-26T13:47:46Z</time>
      </trkpt>
      <trkpt lat="46.19815" lon="6.47968">
        <ele>1300.9140625</ele>
        <time>2021-06-26T13:47:55Z</time>
      </trkpt>
      <trkpt lat="46.19772" lon="6.47962">
        <ele>1297.0390625</ele>
        <time>2021-06-26T13:48:07Z</time>
      </trkpt>
      <trkpt lat="46.19765" lon="6.47965">
        <ele>1296.59375</ele>
        <time>2021-06-26T13:48:09Z</time>
      </trkpt>
      <trkpt lat="46.19749" lon="6.47977">
        <ele>1295.3125</ele>
        <time>2021-06-26T13:48:13Z</time>
      </trkpt>
      <trkpt lat="46.19721" lon="6.48001">
        <ele>1292.40234375</ele>
        <time>2021-06-26T13:48:19Z</time>
      </trkpt>
      <trkpt lat="46.19713" lon="6.48011">
        <ele>1291.59375</ele>
        <time>2021-06-26T13:48:21Z</time>
      </trkpt>
      <trkpt lat="46.19702" lon="6.48029">
        <ele>1291.21484375</ele>
        <time>2021-06-26T13:48:24Z</time>
      </trkpt>
      <trkpt lat="46.19697" lon="6.48047">
        <ele>1290.8125</ele>
        <time>2021-06-26T13:48:27Z</time>
      </trkpt>
      <trkpt lat="46.19692" lon="6.48061">
        <ele>1289.86328125</ele>
        <time>2021-06-26T13:48:29Z</time>
      </trkpt>
      <trkpt lat="46.19674" lon="6.4809">
        <ele>1285.70703125</ele>
        <time>2021-06-26T13:48:33Z</time>
      </trkpt>
      <trkpt lat="46.19662" lon="6.48105">
        <ele>1282.65625</ele>
        <time>2021-06-26T13:48:36Z</time>
      </trkpt>
      <trkpt lat="46.19658" lon="6.48121">
        <ele>1281.03125</ele>
        <time>2021-06-26T13:48:40Z</time>
      </trkpt>
      <trkpt lat="46.19649" lon="6.48141">
        <ele>1279.7734375</ele>
        <time>2021-06-26T13:48:46Z</time>
      </trkpt>
      <trkpt lat="46.1964" lon="6.48147">
        <ele>1279.14453125</ele>
        <time>2021-06-26T13:48:51Z</time>
      </trkpt>
      <trkpt lat="46.19634" lon="6.48158">
        <ele>1277.6328125</ele>
        <time>2021-06-26T13:48:54Z</time>
      </trkpt>
      <trkpt lat="46.19632" lon="6.48173">
        <ele>1275.3984375</ele>
        <time>2021-06-26T13:48:57Z</time>
      </trkpt>
      <trkpt lat="46.19628" lon="6.48201">
        <ele>1271.43359375</ele>
        <time>2021-06-26T13:49:01Z</time>
      </trkpt>
      <trkpt lat="46.19622" lon="6.48216">
        <ele>1269.2578125</ele>
        <time>2021-06-26T13:49:03Z</time>
      </trkpt>
      <trkpt lat="46.196" lon="6.48248">
        <ele>1261.5</ele>
        <time>2021-06-26T13:49:11Z</time>
      </trkpt>
      <trkpt lat="46.19598" lon="6.48253">
        <ele>1260.74609375</ele>
        <time>2021-06-26T13:49:12Z</time>
      </trkpt>
      <trkpt lat="46.19592" lon="6.48272">
        <ele>1257.55078125</ele>
        <time>2021-06-26T13:49:16Z</time>
      </trkpt>
      <trkpt lat="46.19589" lon="6.4828">
        <ele>1255.95703125</ele>
        <time>2021-06-26T13:49:18Z</time>
      </trkpt>
      <trkpt lat="46.19579" lon="6.48293">
        <ele>1252.14453125</ele>
        <time>2021-06-26T13:49:22Z</time>
      </trkpt>
      <trkpt lat="46.19577" lon="6.48298">
        <ele>1250.87890625</ele>
        <time>2021-06-26T13:49:23Z</time>
      </trkpt>
      <trkpt lat="46.19568" lon="6.48314">
        <ele>1247.33984375</ele>
        <time>2021-06-26T13:49:27Z</time>
      </trkpt>
      <trkpt lat="46.19565" lon="6.48317">
        <ele>1246.671875</ele>
        <time>2021-06-26T13:49:28Z</time>
      </trkpt>
      <trkpt lat="46.19559" lon="6.48324">
        <ele>1244.98046875</ele>
        <time>2021-06-26T13:49:30Z</time>
      </trkpt>
      <trkpt lat="46.19548" lon="6.48338">
        <ele>1240.87890625</ele>
        <time>2021-06-26T13:49:34Z</time>
      </trkpt>
      <trkpt lat="46.19543" lon="6.48347">
        <ele>1238.51171875</ele>
        <time>2021-06-26T13:49:38Z</time>
      </trkpt>
      <trkpt lat="46.19542" lon="6.48348">
        <ele>1238.01953125</ele>
        <time>2021-06-26T13:49:39Z</time>
      </trkpt>
      <trkpt lat="46.19537" lon="6.48353">
        <ele>1236.44921875</ele>
        <time>2021-06-26T13:49:49Z</time>
      </trkpt>
      <trkpt lat="46.19532" lon="6.48359">
        <ele>1234.41015625</ele>
        <time>2021-06-26T13:50:00Z</time>
      </trkpt>
      <trkpt lat="46.19524" lon="6.48376">
        <ele>1228.9453125</ele>
        <time>2021-06-26T13:50:05Z</time>
      </trkpt>
      <trkpt lat="46.19522" lon="6.48382">
        <ele>1226.99609375</ele>
        <time>2021-06-26T13:50:07Z</time>
      </trkpt>
      <trkpt lat="46.19518" lon="6.48397">
        <ele>1222.97265625</ele>
        <time>2021-06-26T13:50:11Z</time>
      </trkpt>
      <trkpt lat="46.19519" lon="6.48403">
        <ele>1221.66015625</ele>
        <time>2021-06-26T13:50:20Z</time>
      </trkpt>
      <trkpt lat="46.19516" lon="6.48404">
        <ele>1222.03515625</ele>
        <time>2021-06-26T13:50:29Z</time>
      </trkpt>
      <trkpt lat="46.1951" lon="6.48424">
        <ele>1218.671875</ele>
        <time>2021-06-26T13:50:35Z</time>
      </trkpt>
      <trkpt lat="46.19507" lon="6.48433">
        <ele>1217.06640625</ele>
        <time>2021-06-26T13:50:37Z</time>
      </trkpt>
      <trkpt lat="46.19505" lon="6.48447">
        <ele>1214.80078125</ele>
        <time>2021-06-26T13:50:40Z</time>
      </trkpt>
      <trkpt lat="46.19504" lon="6.48463">
        <ele>1212.140625</ele>
        <time>2021-06-26T13:50:43Z</time>
      </trkpt>
      <trkpt lat="46.19502" lon="6.48474">
        <ele>1210.1953125</ele>
        <time>2021-06-26T13:50:45Z</time>
      </trkpt>
      <trkpt lat="46.195" lon="6.48483">
        <ele>1208.5</ele>
        <time>2021-06-26T13:50:46Z</time>
      </trkpt>
      <trkpt lat="46.19509" lon="6.48532">
        <ele>1196.546875</ele>
        <time>2021-06-26T13:50:57Z</time>
      </trkpt>
      <trkpt lat="46.19517" lon="6.48566">
        <ele>1185.67578125</ele>
        <time>2021-06-26T13:51:05Z</time>
      </trkpt>
      <trkpt lat="46.1952" lon="6.48571">
        <ele>1184.4296875</ele>
        <time>2021-06-26T13:51:14Z</time>
      </trkpt>
      <trkpt lat="46.19522" lon="6.48581">
        <ele>1182.2734375</ele>
        <time>2021-06-26T13:51:18Z</time>
      </trkpt>
      <trkpt lat="46.19527" lon="6.48595">
        <ele>1179.87109375</ele>
        <time>2021-06-26T13:51:23Z</time>
      </trkpt>
      <trkpt lat="46.19537" lon="6.4862">
        <ele>1175.1171875</ele>
        <time>2021-06-26T13:51:30Z</time>
      </trkpt>
      <trkpt lat="46.19543" lon="6.48628">
        <ele>1175.1015625</ele>
        <time>2021-06-26T13:51:39Z</time>
      </trkpt>
      <trkpt lat="46.19547" lon="6.48647">
        <ele>1169.640625</ele>
        <time>2021-06-26T13:51:50Z</time>
      </trkpt>
      <trkpt lat="46.19551" lon="6.48662">
        <ele>1165.8984375</ele>
        <time>2021-06-26T13:51:53Z</time>
      </trkpt>
      <trkpt lat="46.19552" lon="6.48664">
        <ele>1165.34765625</ele>
        <time>2021-06-26T13:51:54Z</time>
      </trkpt>
      <trkpt lat="46.19553" lon="6.48671">
        <ele>1163.8046875</ele>
        <time>2021-06-26T13:52:06Z</time>
      </trkpt>
      <trkpt lat="46.19551" lon="6.48674">
        <ele>1161.9609375</ele>
        <time>2021-06-26T13:52:12Z</time>
      </trkpt>
      <trkpt lat="46.19546" lon="6.48671">
        <ele>1160.42578125</ele>
        <time>2021-06-26T13:52:17Z</time>
      </trkpt>
      <trkpt lat="46.19545" lon="6.4867">
        <ele>1160.1953125</ele>
        <time>2021-06-26T13:52:18Z</time>
      </trkpt>
      <trkpt lat="46.19542" lon="6.48672">
        <ele>1158.1015625</ele>
        <time>2021-06-26T13:52:31Z</time>
      </trkpt>
      <trkpt lat="46.19541" lon="6.48685">
        <ele>1153.3515625</ele>
        <time>2021-06-26T13:52:42Z</time>
      </trkpt>
      <trkpt lat="46.19538" lon="6.48686">
        <ele>1151.66796875</ele>
        <time>2021-06-26T13:52:48Z</time>
      </trkpt>
      <trkpt lat="46.19536" lon="6.48685">
        <ele>1151.03515625</ele>
        <time>2021-06-26T13:52:51Z</time>
      </trkpt>
      <trkpt lat="46.19533" lon="6.48684">
        <ele>1150.33203125</ele>
        <time>2021-06-26T13:52:53Z</time>
      </trkpt>
      <trkpt lat="46.19532" lon="6.48684">
        <ele>1149.66796875</ele>
        <time>2021-06-26T13:52:54Z</time>
      </trkpt>
      <trkpt lat="46.19524" lon="6.48682">
        <ele>1146.90625</ele>
        <time>2021-06-26T13:52:58Z</time>
      </trkpt>
      <trkpt lat="46.19521" lon="6.48681">
        <ele>1145.5625</ele>
        <time>2021-06-26T13:53:00Z</time>
      </trkpt>
      <trkpt lat="46.19514" lon="6.4868">
        <ele>1144.82421875</ele>
        <time>2021-06-26T13:53:03Z</time>
      </trkpt>
      <trkpt lat="46.19509" lon="6.48678">
        <ele>1145.23046875</ele>
        <time>2021-06-26T13:53:05Z</time>
      </trkpt>
      <trkpt lat="46.19494" lon="6.48684">
        <ele>1142.703125</ele>
        <time>2021-06-26T13:53:17Z</time>
      </trkpt>
      <trkpt lat="46.19487" lon="6.48686">
        <ele>1141.3828125</ele>
        <time>2021-06-26T13:53:32Z</time>
      </trkpt>
      <trkpt lat="46.19482" lon="6.48689">
        <ele>1139.828125</ele>
        <time>2021-06-26T13:53:36Z</time>
      </trkpt>
      <trkpt lat="46.19471" lon="6.4871">
        <ele>1130.79296875</ele>
        <time>2021-06-26T13:53:41Z</time>
      </trkpt>
      <trkpt lat="46.19468" lon="6.48715">
        <ele>1128.609375</ele>
        <time>2021-06-26T13:53:43Z</time>
      </trkpt>
      <trkpt lat="46.19467" lon="6.48728">
        <ele>1123.578125</ele>
        <time>2021-06-26T13:53:48Z</time>
      </trkpt>
      <trkpt lat="46.19467" lon="6.48731">
        <ele>1122.1953125</ele>
        <time>2021-06-26T13:53:51Z</time>
      </trkpt>
      <trkpt lat="46.19467" lon="6.48741">
        <ele>1118.203125</ele>
        <time>2021-06-26T13:53:59Z</time>
      </trkpt>
      <trkpt lat="46.19466" lon="6.48744">
        <ele>1116.9140625</ele>
        <time>2021-06-26T13:54:08Z</time>
      </trkpt>
      <trkpt lat="46.19458" lon="6.48742">
        <ele>1116.8515625</ele>
        <time>2021-06-26T13:54:11Z</time>
      </trkpt>
      <trkpt lat="46.19451" lon="6.48741">
        <ele>1116.32421875</ele>
        <time>2021-06-26T13:54:13Z</time>
      </trkpt>
      <trkpt lat="46.19447" lon="6.4874">
        <ele>1116.3203125</ele>
        <time>2021-06-26T13:54:14Z</time>
      </trkpt>
      <trkpt lat="46.19444" lon="6.48739">
        <ele>1116.421875</ele>
        <time>2021-06-26T13:54:15Z</time>
      </trkpt>
      <trkpt lat="46.19441" lon="6.48738">
        <ele>1116.5546875</ele>
        <time>2021-06-26T13:54:16Z</time>
      </trkpt>
      <trkpt lat="46.19439" lon="6.48737">
        <ele>1116.625</ele>
        <time>2021-06-26T13:54:17Z</time>
      </trkpt>
      <trkpt lat="46.19414" lon="6.48726">
        <ele>1117.4375</ele>
        <time>2021-06-26T13:54:28Z</time>
      </trkpt>
      <trkpt lat="46.19396" lon="6.48721">
        <ele>1116.625</ele>
        <time>2021-06-26T13:54:34Z</time>
      </trkpt>
      <trkpt lat="46.19392" lon="6.48721">
        <ele>1115.984375</ele>
        <time>2021-06-26T13:54:35Z</time>
      </trkpt>
      <trkpt lat="46.19387" lon="6.48722">
        <ele>1114.98046875</ele>
        <time>2021-06-26T13:54:36Z</time>
      </trkpt>
      <trkpt lat="46.19376" lon="6.48724">
        <ele>1112.2421875</ele>
        <time>2021-06-26T13:54:38Z</time>
      </trkpt>
      <trkpt lat="46.19365" lon="6.48725">
        <ele>1110.15234375</ele>
        <time>2021-06-26T13:54:40Z</time>
      </trkpt>
      <trkpt lat="46.1936" lon="6.48725">
        <ele>1109.55859375</ele>
        <time>2021-06-26T13:54:41Z</time>
      </trkpt>
      <trkpt lat="46.19355" lon="6.48724">
        <ele>1109.078125</ele>
        <time>2021-06-26T13:54:42Z</time>
      </trkpt>
      <trkpt lat="46.1935" lon="6.48723">
        <ele>1108.94140625</ele>
        <time>2021-06-26T13:54:43Z</time>
      </trkpt>
      <trkpt lat="46.19327" lon="6.48713">
        <ele>1109.328125</ele>
        <time>2021-06-26T13:54:47Z</time>
      </trkpt>
      <trkpt lat="46.19316" lon="6.48708">
        <ele>1109.33203125</ele>
        <time>2021-06-26T13:54:49Z</time>
      </trkpt>
      <trkpt lat="46.19306" lon="6.48705">
        <ele>1108.74609375</ele>
        <time>2021-06-26T13:54:51Z</time>
      </trkpt>
      <trkpt lat="46.19262" lon="6.48681">
        <ele>1109.59765625</ele>
        <time>2021-06-26T13:55:02Z</time>
      </trkpt>
      <trkpt lat="46.19232" lon="6.48664">
        <ele>1110.3671875</ele>
        <time>2021-06-26T13:55:12Z</time>
      </trkpt>
      <trkpt lat="46.19221" lon="6.48657">
        <ele>1111.3984375</ele>
        <time>2021-06-26T13:55:15Z</time>
      </trkpt>
      <trkpt lat="46.19207" lon="6.48649">
        <ele>1111.75</ele>
        <time>2021-06-26T13:55:18Z</time>
      </trkpt>
      <trkpt lat="46.19165" lon="6.48632">
        <ele>1110.0859375</ele>
        <time>2021-06-26T13:55:27Z</time>
      </trkpt>
      <trkpt lat="46.19144" lon="6.48627">
        <ele>1108.18359375</ele>
        <time>2021-06-26T13:55:32Z</time>
      </trkpt>
      <trkpt lat="46.19139" lon="6.48628">
        <ele>1106.97265625</ele>
        <time>2021-06-26T13:55:33Z</time>
      </trkpt>
      <trkpt lat="46.19123" lon="6.48632">
        <ele>1102.79296875</ele>
        <time>2021-06-26T13:55:36Z</time>
      </trkpt>
      <trkpt lat="46.19087" lon="6.48618">
        <ele>1101.2109375</ele>
        <time>2021-06-26T13:55:43Z</time>
      </trkpt>
      <trkpt lat="46.19071" lon="6.48612">
        <ele>1100.5625</ele>
        <time>2021-06-26T13:55:51Z</time>
      </trkpt>
      <trkpt lat="46.19056" lon="6.48604">
        <ele>1100.58203125</ele>
        <time>2021-06-26T13:56:06Z</time>
      </trkpt>
      <trkpt lat="46.19042" lon="6.48594">
        <ele>1101.53515625</ele>
        <time>2021-06-26T13:56:10Z</time>
      </trkpt>
      <trkpt lat="46.19016" lon="6.48574">
        <ele>1102.7421875</ele>
        <time>2021-06-26T13:56:19Z</time>
      </trkpt>
      <trkpt lat="46.18995" lon="6.48559">
        <ele>1103.94921875</ele>
        <time>2021-06-26T13:56:27Z</time>
      </trkpt>
      <trkpt lat="46.18989" lon="6.48546">
        <ele>1106.640625</ele>
        <time>2021-06-26T13:56:32Z</time>
      </trkpt>
      <trkpt lat="46.18985" lon="6.48541">
        <ele>1107.61328125</ele>
        <time>2021-06-26T13:56:34Z</time>
      </trkpt>
      <trkpt lat="46.18948" lon="6.48533">
        <ele>1103.16796875</ele>
        <time>2021-06-26T13:56:46Z</time>
      </trkpt>
      <trkpt lat="46.18943" lon="6.48533">
        <ele>1102.34765625</ele>
        <time>2021-06-26T13:56:47Z</time>
      </trkpt>
      <trkpt lat="46.18932" lon="6.48531">
        <ele>1100.84375</ele>
        <time>2021-06-26T13:56:49Z</time>
      </trkpt>
      <trkpt lat="46.18926" lon="6.48529">
        <ele>1100.2265625</ele>
        <time>2021-06-26T13:56:50Z</time>
      </trkpt>
      <trkpt lat="46.18921" lon="6.48526">
        <ele>1099.84765625</ele>
        <time>2021-06-26T13:56:51Z</time>
      </trkpt>
      <trkpt lat="46.18912" lon="6.48519">
        <ele>1099.3359375</ele>
        <time>2021-06-26T13:56:53Z</time>
      </trkpt>
      <trkpt lat="46.18898" lon="6.48509">
        <ele>1099.39453125</ele>
        <time>2021-06-26T13:56:56Z</time>
      </trkpt>
      <trkpt lat="46.18893" lon="6.48506">
        <ele>1099.23828125</ele>
        <time>2021-06-26T13:56:57Z</time>
      </trkpt>
      <trkpt lat="46.18889" lon="6.48505">
        <ele>1098.74609375</ele>
        <time>2021-06-26T13:56:58Z</time>
      </trkpt>
      <trkpt lat="46.18884" lon="6.48505">
        <ele>1098.12109375</ele>
        <time>2021-06-26T13:56:59Z</time>
      </trkpt>
      <trkpt lat="46.1888" lon="6.48505">
        <ele>1097.4921875</ele>
        <time>2021-06-26T13:57:00Z</time>
      </trkpt>
      <trkpt lat="46.18865" lon="6.48511">
        <ele>1094.515625</ele>
        <time>2021-06-26T13:57:04Z</time>
      </trkpt>
      <trkpt lat="46.18858" lon="6.48516">
        <ele>1092.328125</ele>
        <time>2021-06-26T13:57:06Z</time>
      </trkpt>
      <trkpt lat="46.1884" lon="6.48535">
        <ele>1086.40625</ele>
        <time>2021-06-26T13:57:10Z</time>
      </trkpt>
      <trkpt lat="46.18834" lon="6.4854">
        <ele>1084.921875</ele>
        <time>2021-06-26T13:57:11Z</time>
      </trkpt>
      <trkpt lat="46.18821" lon="6.48548">
        <ele>1082.29296875</ele>
        <time>2021-06-26T13:57:13Z</time>
      </trkpt>
      <trkpt lat="46.18809" lon="6.48553">
        <ele>1080.66015625</ele>
        <time>2021-06-26T13:57:15Z</time>
      </trkpt>
      <trkpt lat="46.18788" lon="6.48553">
        <ele>1079.84765625</ele>
        <time>2021-06-26T13:57:23Z</time>
      </trkpt>
      <trkpt lat="46.18788" lon="6.48555">
        <ele>1079.55859375</ele>
        <time>2021-06-26T13:57:36Z</time>
      </trkpt>
      <trkpt lat="46.18786" lon="6.48554">
        <ele>1079.65625</ele>
        <time>2021-06-26T13:57:55Z</time>
      </trkpt>
      <trkpt lat="46.18783" lon="6.48555">
        <ele>1079.3359375</ele>
        <time>2021-06-26T13:58:08Z</time>
      </trkpt>
      <trkpt lat="46.1878" lon="6.48556">
        <ele>1079.01953125</ele>
        <time>2021-06-26T13:58:09Z</time>
      </trkpt>
      <trkpt lat="46.18777" lon="6.48558">
        <ele>1078.58203125</ele>
        <time>2021-06-26T13:58:10Z</time>
      </trkpt>
      <trkpt lat="46.18774" lon="6.48561">
        <ele>1077.921875</ele>
        <time>2021-06-26T13:58:11Z</time>
      </trkpt>
      <trkpt lat="46.18771" lon="6.48566">
        <ele>1077.03515625</ele>
        <time>2021-06-26T13:58:12Z</time>
      </trkpt>
      <trkpt lat="46.1877" lon="6.48571">
        <ele>1076.15234375</ele>
        <time>2021-06-26T13:58:13Z</time>
      </trkpt>
      <trkpt lat="46.1877" lon="6.48575">
        <ele>1075.36328125</ele>
        <time>2021-06-26T13:58:14Z</time>
      </trkpt>
      <trkpt lat="46.18771" lon="6.48579">
        <ele>1074.78515625</ele>
        <time>2021-06-26T13:58:15Z</time>
      </trkpt>
      <trkpt lat="46.18774" lon="6.48583">
        <ele>1074.30859375</ele>
        <time>2021-06-26T13:58:16Z</time>
      </trkpt>
      <trkpt lat="46.18777" lon="6.48587">
        <ele>1073.79296875</ele>
        <time>2021-06-26T13:58:17Z</time>
      </trkpt>
      <trkpt lat="46.1878" lon="6.48591">
        <ele>1073.25390625</ele>
        <time>2021-06-26T13:58:18Z</time>
      </trkpt>
      <trkpt lat="46.18784" lon="6.48594">
        <ele>1072.82421875</ele>
        <time>2021-06-26T13:58:19Z</time>
      </trkpt>
      <trkpt lat="46.18789" lon="6.48596">
        <ele>1072.43359375</ele>
        <time>2021-06-26T13:58:20Z</time>
      </trkpt>
      <trkpt lat="46.18795" lon="6.48598">
        <ele>1071.96875</ele>
        <time>2021-06-26T13:58:21Z</time>
      </trkpt>
      <trkpt lat="46.18801" lon="6.48601">
        <ele>1071.40625</ele>
        <time>2021-06-26T13:58:22Z</time>
      </trkpt>
      <trkpt lat="46.18826" lon="6.48617">
        <ele>1068.25390625</ele>
        <time>2021-06-26T13:58:26Z</time>
      </trkpt>
      <trkpt lat="46.18833" lon="6.48622">
        <ele>1067.80859375</ele>
        <time>2021-06-26T13:58:27Z</time>
      </trkpt>
      <trkpt lat="46.18841" lon="6.48628">
        <ele>1066.76953125</ele>
        <time>2021-06-26T13:58:28Z</time>
      </trkpt>
      <trkpt lat="46.18849" lon="6.48636">
        <ele>1065.23046875</ele>
        <time>2021-06-26T13:58:29Z</time>
      </trkpt>
      <trkpt lat="46.18855" lon="6.48644">
        <ele>1063.71484375</ele>
        <time>2021-06-26T13:58:30Z</time>
      </trkpt>
      <trkpt lat="46.18867" lon="6.48657">
        <ele>1061.31640625</ele>
        <time>2021-06-26T13:58:33Z</time>
      </trkpt>
      <trkpt lat="46.18868" lon="6.48659">
        <ele>1060.8203125</ele>
        <time>2021-06-26T13:58:34Z</time>
      </trkpt>
      <trkpt lat="46.18868" lon="6.48661">
        <ele>1060.28125</ele>
        <time>2021-06-26T13:58:35Z</time>
      </trkpt>
      <trkpt lat="46.18866" lon="6.48664">
        <ele>1059.5625</ele>
        <time>2021-06-26T13:58:37Z</time>
      </trkpt>
      <trkpt lat="46.18864" lon="6.48665">
        <ele>1059.40234375</ele>
        <time>2021-06-26T13:58:38Z</time>
      </trkpt>
      <trkpt lat="46.18862" lon="6.48664">
        <ele>1059.62890625</ele>
        <time>2021-06-26T13:58:39Z</time>
      </trkpt>
      <trkpt lat="46.1886" lon="6.48662">
        <ele>1060.015625</ele>
        <time>2021-06-26T13:58:40Z</time>
      </trkpt>
      <trkpt lat="46.18858" lon="6.48659">
        <ele>1060.53515625</ele>
        <time>2021-06-26T13:58:41Z</time>
      </trkpt>
      <trkpt lat="46.18855" lon="6.48656">
        <ele>1061.06640625</ele>
        <time>2021-06-26T13:58:42Z</time>
      </trkpt>
      <trkpt lat="46.18851" lon="6.48653">
        <ele>1061.6875</ele>
        <time>2021-06-26T13:58:43Z</time>
      </trkpt>
      <trkpt lat="46.18846" lon="6.48651">
        <ele>1062.3671875</ele>
        <time>2021-06-26T13:58:44Z</time>
      </trkpt>
      <trkpt lat="46.1884" lon="6.4865">
        <ele>1062.8203125</ele>
        <time>2021-06-26T13:58:45Z</time>
      </trkpt>
      <trkpt lat="46.18835" lon="6.48649">
        <ele>1063.140625</ele>
        <time>2021-06-26T13:58:46Z</time>
      </trkpt>
      <trkpt lat="46.18831" lon="6.48649">
        <ele>1063.3046875</ele>
        <time>2021-06-26T13:58:47Z</time>
      </trkpt>
      <trkpt lat="46.18827" lon="6.4865">
        <ele>1063.38671875</ele>
        <time>2021-06-26T13:58:48Z</time>
      </trkpt>
      <trkpt lat="46.18818" lon="6.48651">
        <ele>1064.265625</ele>
        <time>2021-06-26T13:58:50Z</time>
      </trkpt>
      <trkpt lat="46.18776" lon="6.48643">
        <ele>1071.44140625</ele>
        <time>2021-06-26T13:58:58Z</time>
      </trkpt>
      <trkpt lat="46.18771" lon="6.48641">
        <ele>1072.31640625</ele>
        <time>2021-06-26T13:58:59Z</time>
      </trkpt>
      <trkpt lat="46.18765" lon="6.4864">
        <ele>1073.00390625</ele>
        <time>2021-06-26T13:59:00Z</time>
      </trkpt>
      <trkpt lat="46.18706" lon="6.48625">
        <ele>1077.734375</ele>
        <time>2021-06-26T13:59:13Z</time>
      </trkpt>
      <trkpt lat="46.18661" lon="6.48628">
        <ele>1078.8203125</ele>
        <time>2021-06-26T13:59:26Z</time>
      </trkpt>
      <trkpt lat="46.18631" lon="6.48638">
        <ele>1079.55859375</ele>
        <time>2021-06-26T13:59:39Z</time>
      </trkpt>
      <trkpt lat="46.18629" lon="6.48636">
        <ele>1079.26171875</ele>
        <time>2021-06-26T13:59:55Z</time>
      </trkpt>
      <trkpt lat="46.18628" lon="6.48636">
        <ele>1079.26171875</ele>
        <time>2021-06-26T14:00:13Z</time>
      </trkpt>
      <trkpt lat="46.18627" lon="6.48638">
        <ele>1079.421875</ele>
        <time>2021-06-26T14:00:22Z</time>
      </trkpt>
      <trkpt lat="46.18626" lon="6.48639">
        <ele>1079.41796875</ele>
        <time>2021-06-26T14:00:23Z</time>
      </trkpt>
      <trkpt lat="46.18623" lon="6.48639">
        <ele>1079.3515625</ele>
        <time>2021-06-26T14:00:24Z</time>
      </trkpt>
      <trkpt lat="46.1858" lon="6.48661">
        <ele>1077.4609375</ele>
        <time>2021-06-26T14:00:39Z</time>
      </trkpt>
      <trkpt lat="46.18519" lon="6.48677">
        <ele>1074.83203125</ele>
        <time>2021-06-26T14:00:50Z</time>
      </trkpt>
      <trkpt lat="46.18512" lon="6.48678">
        <ele>1074.36328125</ele>
        <time>2021-06-26T14:00:51Z</time>
      </trkpt>
      <trkpt lat="46.18456" lon="6.4868">
        <ele>1069.63671875</ele>
        <time>2021-06-26T14:00:59Z</time>
      </trkpt>
      <trkpt lat="46.1845" lon="6.48678">
        <ele>1068.796875</ele>
        <time>2021-06-26T14:01:00Z</time>
      </trkpt>
      <trkpt lat="46.18444" lon="6.48674">
        <ele>1067.91796875</ele>
        <time>2021-06-26T14:01:01Z</time>
      </trkpt>
      <trkpt lat="46.18439" lon="6.4867">
        <ele>1067.05078125</ele>
        <time>2021-06-26T14:01:02Z</time>
      </trkpt>
      <trkpt lat="46.18434" lon="6.48667">
        <ele>1066.265625</ele>
        <time>2021-06-26T14:01:03Z</time>
      </trkpt>
      <trkpt lat="46.18395" lon="6.4865">
        <ele>1062.37109375</ele>
        <time>2021-06-26T14:01:10Z</time>
      </trkpt>
      <trkpt lat="46.18378" lon="6.48649">
        <ele>1060.52734375</ele>
        <time>2021-06-26T14:01:13Z</time>
      </trkpt>
      <trkpt lat="46.18373" lon="6.4865">
        <ele>1059.77734375</ele>
        <time>2021-06-26T14:01:14Z</time>
      </trkpt>
      <trkpt lat="46.18368" lon="6.48653">
        <ele>1059.0390625</ele>
        <time>2021-06-26T14:01:15Z</time>
      </trkpt>
      <trkpt lat="46.18364" lon="6.48657">
        <ele>1058.34765625</ele>
        <time>2021-06-26T14:01:16Z</time>
      </trkpt>
      <trkpt lat="46.1836" lon="6.48662">
        <ele>1057.80078125</ele>
        <time>2021-06-26T14:01:17Z</time>
      </trkpt>
      <trkpt lat="46.18354" lon="6.48667">
        <ele>1057.4140625</ele>
        <time>2021-06-26T14:01:18Z</time>
      </trkpt>
      <trkpt lat="46.18349" lon="6.4867">
        <ele>1056.65234375</ele>
        <time>2021-06-26T14:01:19Z</time>
      </trkpt>
      <trkpt lat="46.18341" lon="6.48674">
        <ele>1055.64453125</ele>
        <time>2021-06-26T14:01:20Z</time>
      </trkpt>
      <trkpt lat="46.18325" lon="6.48681">
        <ele>1053.45703125</ele>
        <time>2021-06-26T14:01:22Z</time>
      </trkpt>
      <trkpt lat="46.18309" lon="6.48685">
        <ele>1051.390625</ele>
        <time>2021-06-26T14:01:24Z</time>
      </trkpt>
      <trkpt lat="46.18287" lon="6.48685">
        <ele>1047.91796875</ele>
        <time>2021-06-26T14:01:27Z</time>
      </trkpt>
      <trkpt lat="46.18269" lon="6.48681">
        <ele>1044.34375</ele>
        <time>2021-06-26T14:01:30Z</time>
      </trkpt>
      <trkpt lat="46.18237" lon="6.48677">
        <ele>1038.91796875</ele>
        <time>2021-06-26T14:01:34Z</time>
      </trkpt>
      <trkpt lat="46.18215" lon="6.48678">
        <ele>1035.13671875</ele>
        <time>2021-06-26T14:01:37Z</time>
      </trkpt>
      <trkpt lat="46.18195" lon="6.48681">
        <ele>1033.05859375</ele>
        <time>2021-06-26T14:01:40Z</time>
      </trkpt>
      <trkpt lat="46.18173" lon="6.48683">
        <ele>1031.69921875</ele>
        <time>2021-06-26T14:01:43Z</time>
      </trkpt>
      <trkpt lat="46.18167" lon="6.48684">
        <ele>1031.546875</ele>
        <time>2021-06-26T14:01:44Z</time>
      </trkpt>
      <trkpt lat="46.18162" lon="6.48685">
        <ele>1031.484375</ele>
        <time>2021-06-26T14:01:45Z</time>
      </trkpt>
      <trkpt lat="46.18157" lon="6.48686">
        <ele>1031.26171875</ele>
        <time>2021-06-26T14:01:46Z</time>
      </trkpt>
      <trkpt lat="46.18152" lon="6.48686">
        <ele>1030.51171875</ele>
        <time>2021-06-26T14:01:47Z</time>
      </trkpt>
      <trkpt lat="46.18148" lon="6.48686">
        <ele>1029.61328125</ele>
        <time>2021-06-26T14:01:48Z</time>
      </trkpt>
      <trkpt lat="46.18144" lon="6.48685">
        <ele>1028.72265625</ele>
        <time>2021-06-26T14:01:49Z</time>
      </trkpt>
      <trkpt lat="46.1814" lon="6.48683">
        <ele>1027.6640625</ele>
        <time>2021-06-26T14:01:50Z</time>
      </trkpt>
      <trkpt lat="46.18124" lon="6.48673">
        <ele>1022.44140625</ele>
        <time>2021-06-26T14:01:53Z</time>
      </trkpt>
      <trkpt lat="46.18109" lon="6.48665">
        <ele>1018.22265625</ele>
        <time>2021-06-26T14:01:56Z</time>
      </trkpt>
      <trkpt lat="46.18098" lon="6.48664">
        <ele>1015.16015625</ele>
        <time>2021-06-26T14:01:59Z</time>
      </trkpt>
      <trkpt lat="46.18091" lon="6.48663">
        <ele>1012.76953125</ele>
        <time>2021-06-26T14:02:01Z</time>
      </trkpt>
      <trkpt lat="46.18078" lon="6.48661">
        <ele>1008.1953125</ele>
        <time>2021-06-26T14:02:04Z</time>
      </trkpt>
      <trkpt lat="46.18065" lon="6.48664">
        <ele>1004.81640625</ele>
        <time>2021-06-26T14:02:07Z</time>
      </trkpt>
      <trkpt lat="46.18058" lon="6.48672">
        <ele>1003.98828125</ele>
        <time>2021-06-26T14:02:09Z</time>
      </trkpt>
      <trkpt lat="46.18034" lon="6.48699">
        <ele>997.4375</ele>
        <time>2021-06-26T14:02:14Z</time>
      </trkpt>
      <trkpt lat="46.18028" lon="6.48702">
        <ele>995.18359375</ele>
        <time>2021-06-26T14:02:15Z</time>
      </trkpt>
      <trkpt lat="46.18001" lon="6.48718">
        <ele>985.90234375</ele>
        <time>2021-06-26T14:02:19Z</time>
      </trkpt>
      <trkpt lat="46.17986" lon="6.48724">
        <ele>981.62890625</ele>
        <time>2021-06-26T14:02:21Z</time>
      </trkpt>
      <trkpt lat="46.17967" lon="6.48734">
        <ele>975.6015625</ele>
        <time>2021-06-26T14:02:24Z</time>
      </trkpt>
      <trkpt lat="46.1796" lon="6.48735">
        <ele>973.5703125</ele>
        <time>2021-06-26T14:02:25Z</time>
      </trkpt>
      <trkpt lat="46.17943" lon="6.48735">
        <ele>969.89453125</ele>
        <time>2021-06-26T14:02:27Z</time>
      </trkpt>
      <trkpt lat="46.17936" lon="6.48733">
        <ele>968.2890625</ele>
        <time>2021-06-26T14:02:28Z</time>
      </trkpt>
      <trkpt lat="46.17929" lon="6.4873">
        <ele>966.7890625</ele>
        <time>2021-06-26T14:02:29Z</time>
      </trkpt>
      <trkpt lat="46.17922" lon="6.48727">
        <ele>965.23046875</ele>
        <time>2021-06-26T14:02:30Z</time>
      </trkpt>
      <trkpt lat="46.17916" lon="6.48724">
        <ele>963.6796875</ele>
        <time>2021-06-26T14:02:31Z</time>
      </trkpt>
      <trkpt lat="46.1791" lon="6.48719">
        <ele>962.37890625</ele>
        <time>2021-06-26T14:02:32Z</time>
      </trkpt>
      <trkpt lat="46.17906" lon="6.48714">
        <ele>961.4609375</ele>
        <time>2021-06-26T14:02:33Z</time>
      </trkpt>
      <trkpt lat="46.17899" lon="6.48701">
        <ele>959.5078125</ele>
        <time>2021-06-26T14:02:35Z</time>
      </trkpt>
      <trkpt lat="46.17894" lon="6.48696">
        <ele>958.25390625</ele>
        <time>2021-06-26T14:02:36Z</time>
      </trkpt>
      <trkpt lat="46.1789" lon="6.48689">
        <ele>957.07421875</ele>
        <time>2021-06-26T14:02:37Z</time>
      </trkpt>
      <trkpt lat="46.17887" lon="6.48681">
        <ele>956.1171875</ele>
        <time>2021-06-26T14:02:38Z</time>
      </trkpt>
      <trkpt lat="46.17885" lon="6.48671">
        <ele>955.40234375</ele>
        <time>2021-06-26T14:02:39Z</time>
      </trkpt>
      <trkpt lat="46.17882" lon="6.48662">
        <ele>954.3046875</ele>
        <time>2021-06-26T14:02:40Z</time>
      </trkpt>
      <trkpt lat="46.17877" lon="6.48655">
        <ele>953.83984375</ele>
        <time>2021-06-26T14:02:41Z</time>
      </trkpt>
      <trkpt lat="46.17867" lon="6.48641">
        <ele>952.4921875</ele>
        <time>2021-06-26T14:02:43Z</time>
      </trkpt>
      <trkpt lat="46.17861" lon="6.48636">
        <ele>951.3359375</ele>
        <time>2021-06-26T14:02:44Z</time>
      </trkpt>
      <trkpt lat="46.17848" lon="6.48626">
        <ele>948.41796875</ele>
        <time>2021-06-26T14:02:49Z</time>
      </trkpt>
      <trkpt lat="46.17839" lon="6.48627">
        <ele>946.17578125</ele>
        <time>2021-06-26T14:02:51Z</time>
      </trkpt>
      <trkpt lat="46.17835" lon="6.48625">
        <ele>945.1328125</ele>
        <time>2021-06-26T14:02:52Z</time>
      </trkpt>
      <trkpt lat="46.1783" lon="6.48622">
        <ele>944.4375</ele>
        <time>2021-06-26T14:02:53Z</time>
      </trkpt>
      <trkpt lat="46.17826" lon="6.48617">
        <ele>943.8984375</ele>
        <time>2021-06-26T14:02:54Z</time>
      </trkpt>
      <trkpt lat="46.17822" lon="6.48611">
        <ele>943.0859375</ele>
        <time>2021-06-26T14:02:55Z</time>
      </trkpt>
      <trkpt lat="46.17807" lon="6.48587">
        <ele>939.09375</ele>
        <time>2021-06-26T14:02:58Z</time>
      </trkpt>
      <trkpt lat="46.17801" lon="6.48577">
        <ele>937.53125</ele>
        <time>2021-06-26T14:02:59Z</time>
      </trkpt>
      <trkpt lat="46.17797" lon="6.48566">
        <ele>935.66015625</ele>
        <time>2021-06-26T14:03:00Z</time>
      </trkpt>
      <trkpt lat="46.17793" lon="6.48553">
        <ele>933.86328125</ele>
        <time>2021-06-26T14:03:01Z</time>
      </trkpt>
      <trkpt lat="46.17789" lon="6.48539">
        <ele>932.265625</ele>
        <time>2021-06-26T14:03:02Z</time>
      </trkpt>
      <trkpt lat="46.17787" lon="6.48527">
        <ele>930.99609375</ele>
        <time>2021-06-26T14:03:03Z</time>
      </trkpt>
      <trkpt lat="46.17785" lon="6.48516">
        <ele>930.2265625</ele>
        <time>2021-06-26T14:03:04Z</time>
      </trkpt>
      <trkpt lat="46.17784" lon="6.48505">
        <ele>929.9921875</ele>
        <time>2021-06-26T14:03:05Z</time>
      </trkpt>
      <trkpt lat="46.17784" lon="6.48494">
        <ele>930.109375</ele>
        <time>2021-06-26T14:03:06Z</time>
      </trkpt>
      <trkpt lat="46.17785" lon="6.48483">
        <ele>929.77734375</ele>
        <time>2021-06-26T14:03:07Z</time>
      </trkpt>
      <trkpt lat="46.17787" lon="6.48471">
        <ele>929.91796875</ele>
        <time>2021-06-26T14:03:08Z</time>
      </trkpt>
      <trkpt lat="46.17789" lon="6.4846">
        <ele>929.98828125</ele>
        <time>2021-06-26T14:03:09Z</time>
      </trkpt>
      <trkpt lat="46.17792" lon="6.48449">
        <ele>929.984375</ele>
        <time>2021-06-26T14:03:10Z</time>
      </trkpt>
      <trkpt lat="46.17795" lon="6.48439">
        <ele>929.734375</ele>
        <time>2021-06-26T14:03:11Z</time>
      </trkpt>
      <trkpt lat="46.17795" lon="6.48431">
        <ele>929.53125</ele>
        <time>2021-06-26T14:03:12Z</time>
      </trkpt>
      <trkpt lat="46.17794" lon="6.48422">
        <ele>928.5546875</ele>
        <time>2021-06-26T14:03:13Z</time>
      </trkpt>
      <trkpt lat="46.17791" lon="6.48414">
        <ele>926.87109375</ele>
        <time>2021-06-26T14:03:14Z</time>
      </trkpt>
      <trkpt lat="46.17787" lon="6.48406">
        <ele>924.80859375</ele>
        <time>2021-06-26T14:03:15Z</time>
      </trkpt>
      <trkpt lat="46.17782" lon="6.48398">
        <ele>922.41015625</ele>
        <time>2021-06-26T14:03:16Z</time>
      </trkpt>
      <trkpt lat="46.17776" lon="6.48391">
        <ele>919.26171875</ele>
        <time>2021-06-26T14:03:17Z</time>
      </trkpt>
      <trkpt lat="46.17769" lon="6.48385">
        <ele>915.4921875</ele>
        <time>2021-06-26T14:03:18Z</time>
      </trkpt>
      <trkpt lat="46.17761" lon="6.48382">
        <ele>912.25390625</ele>
        <time>2021-06-26T14:03:19Z</time>
      </trkpt>
      <trkpt lat="46.17755" lon="6.48379">
        <ele>909.94140625</ele>
        <time>2021-06-26T14:03:20Z</time>
      </trkpt>
      <trkpt lat="46.17749" lon="6.48377">
        <ele>907.8984375</ele>
        <time>2021-06-26T14:03:21Z</time>
      </trkpt>
      <trkpt lat="46.17744" lon="6.48375">
        <ele>905.88671875</ele>
        <time>2021-06-26T14:03:22Z</time>
      </trkpt>
      <trkpt lat="46.17739" lon="6.48372">
        <ele>904.3203125</ele>
        <time>2021-06-26T14:03:23Z</time>
      </trkpt>
      <trkpt lat="46.17735" lon="6.48367">
        <ele>903.5</ele>
        <time>2021-06-26T14:03:24Z</time>
      </trkpt>
      <trkpt lat="46.17732" lon="6.48361">
        <ele>903.35546875</ele>
        <time>2021-06-26T14:03:25Z</time>
      </trkpt>
      <trkpt lat="46.17729" lon="6.48353">
        <ele>903.75</ele>
        <time>2021-06-26T14:03:26Z</time>
      </trkpt>
      <trkpt lat="46.17727" lon="6.48344">
        <ele>904.12890625</ele>
        <time>2021-06-26T14:03:27Z</time>
      </trkpt>
      <trkpt lat="46.17725" lon="6.48334">
        <ele>904.734375</ele>
        <time>2021-06-26T14:03:28Z</time>
      </trkpt>
      <trkpt lat="46.17722" lon="6.48312">
        <ele>904.5234375</ele>
        <time>2021-06-26T14:03:30Z</time>
      </trkpt>
      <trkpt lat="46.17721" lon="6.48293">
        <ele>903.953125</ele>
        <time>2021-06-26T14:03:32Z</time>
      </trkpt>
      <trkpt lat="46.1772" lon="6.48284">
        <ele>903.24609375</ele>
        <time>2021-06-26T14:03:34Z</time>
      </trkpt>
      <trkpt lat="46.17719" lon="6.48283">
        <ele>902.51953125</ele>
        <time>2021-06-26T14:03:36Z</time>
      </trkpt>
      <trkpt lat="46.17712" lon="6.48297">
        <ele>898.80859375</ele>
        <time>2021-06-26T14:03:41Z</time>
      </trkpt>
      <trkpt lat="46.17711" lon="6.48302">
        <ele>897.9453125</ele>
        <time>2021-06-26T14:03:42Z</time>
      </trkpt>
      <trkpt lat="46.17709" lon="6.48309">
        <ele>897.28515625</ele>
        <time>2021-06-26T14:03:43Z</time>
      </trkpt>
      <trkpt lat="46.17707" lon="6.48324">
        <ele>896.01953125</ele>
        <time>2021-06-26T14:03:45Z</time>
      </trkpt>
      <trkpt lat="46.17702" lon="6.4835">
        <ele>890.4921875</ele>
        <time>2021-06-26T14:03:48Z</time>
      </trkpt>
      <trkpt lat="46.17699" lon="6.48365">
        <ele>886.84765625</ele>
        <time>2021-06-26T14:03:50Z</time>
      </trkpt>
      <trkpt lat="46.177" lon="6.48371">
        <ele>886</ele>
        <time>2021-06-26T14:03:51Z</time>
      </trkpt>
      <trkpt lat="46.17702" lon="6.48376">
        <ele>886.06640625</ele>
        <time>2021-06-26T14:03:52Z</time>
      </trkpt>
      <trkpt lat="46.17705" lon="6.48379">
        <ele>886.54296875</ele>
        <time>2021-06-26T14:03:53Z</time>
      </trkpt>
      <trkpt lat="46.17708" lon="6.48383">
        <ele>887.15625</ele>
        <time>2021-06-26T14:03:54Z</time>
      </trkpt>
      <trkpt lat="46.17711" lon="6.48385">
        <ele>888.28515625</ele>
        <time>2021-06-26T14:03:55Z</time>
      </trkpt>
      <trkpt lat="46.17714" lon="6.48387">
        <ele>889.65625</ele>
        <time>2021-06-26T14:03:56Z</time>
      </trkpt>
      <trkpt lat="46.17725" lon="6.48395">
        <ele>894.22265625</ele>
        <time>2021-06-26T14:03:59Z</time>
      </trkpt>
      <trkpt lat="46.17728" lon="6.484">
        <ele>895.328125</ele>
        <time>2021-06-26T14:04:00Z</time>
      </trkpt>
      <trkpt lat="46.1773" lon="6.48414">
        <ele>895.984375</ele>
        <time>2021-06-26T14:04:02Z</time>
      </trkpt>
      <trkpt lat="46.17731" lon="6.48422">
        <ele>896.62890625</ele>
        <time>2021-06-26T14:04:03Z</time>
      </trkpt>
      <trkpt lat="46.17731" lon="6.4843">
        <ele>896.4296875</ele>
        <time>2021-06-26T14:04:04Z</time>
      </trkpt>
      <trkpt lat="46.17729" lon="6.48435">
        <ele>895.53125</ele>
        <time>2021-06-26T14:04:05Z</time>
      </trkpt>
      <trkpt lat="46.17728" lon="6.48439">
        <ele>894.828125</ele>
        <time>2021-06-26T14:04:06Z</time>
      </trkpt>
      <trkpt lat="46.17727" lon="6.48444">
        <ele>894.83203125</ele>
        <time>2021-06-26T14:04:07Z</time>
      </trkpt>
      <trkpt lat="46.17726" lon="6.48447">
        <ele>894.7421875</ele>
        <time>2021-06-26T14:04:08Z</time>
      </trkpt>
      <trkpt lat="46.17726" lon="6.48449">
        <ele>894.65234375</ele>
        <time>2021-06-26T14:04:09Z</time>
      </trkpt>
      <trkpt lat="46.1772" lon="6.48467">
        <ele>892.19140625</ele>
        <time>2021-06-26T14:04:21Z</time>
      </trkpt>
      <trkpt lat="46.17714" lon="6.48497">
        <ele>891.1640625</ele>
        <time>2021-06-26T14:04:30Z</time>
      </trkpt>
      <trkpt lat="46.1771" lon="6.48522">
        <ele>890.48046875</ele>
        <time>2021-06-26T14:04:35Z</time>
      </trkpt>
      <trkpt lat="46.1771" lon="6.48528">
        <ele>890.69921875</ele>
        <time>2021-06-26T14:04:36Z</time>
      </trkpt>
      <trkpt lat="46.1771" lon="6.48551">
        <ele>892.49609375</ele>
        <time>2021-06-26T14:04:40Z</time>
      </trkpt>
      <trkpt lat="46.17709" lon="6.48557">
        <ele>892.03515625</ele>
        <time>2021-06-26T14:04:41Z</time>
      </trkpt>
      <trkpt lat="46.17708" lon="6.48561">
        <ele>891.62109375</ele>
        <time>2021-06-26T14:04:42Z</time>
      </trkpt>
      <trkpt lat="46.17709" lon="6.48565">
        <ele>892.11328125</ele>
        <time>2021-06-26T14:04:43Z</time>
      </trkpt>
      <trkpt lat="46.17709" lon="6.48568">
        <ele>892.59765625</ele>
        <time>2021-06-26T14:04:44Z</time>
      </trkpt>
      <trkpt lat="46.17709" lon="6.48571">
        <ele>892.8671875</ele>
        <time>2021-06-26T14:04:45Z</time>
      </trkpt>
      <trkpt lat="46.1771" lon="6.48581">
        <ele>893.81640625</ele>
        <time>2021-06-26T14:04:48Z</time>
      </trkpt>
      <trkpt lat="46.17712" lon="6.48584">
        <ele>894.609375</ele>
        <time>2021-06-26T14:04:49Z</time>
      </trkpt>
      <trkpt lat="46.17712" lon="6.48587">
        <ele>895.12109375</ele>
        <time>2021-06-26T14:04:50Z</time>
      </trkpt>
      <trkpt lat="46.17712" lon="6.4859">
        <ele>895.109375</ele>
        <time>2021-06-26T14:04:51Z</time>
      </trkpt>
      <trkpt lat="46.17711" lon="6.48594">
        <ele>894.41796875</ele>
        <time>2021-06-26T14:04:52Z</time>
      </trkpt>
      <trkpt lat="46.17709" lon="6.48597">
        <ele>893.69921875</ele>
        <time>2021-06-26T14:04:53Z</time>
      </trkpt>
      <trkpt lat="46.17707" lon="6.48601">
        <ele>892.3984375</ele>
        <time>2021-06-26T14:04:54Z</time>
      </trkpt>
      <trkpt lat="46.17706" lon="6.48605">
        <ele>891.45703125</ele>
        <time>2021-06-26T14:04:55Z</time>
      </trkpt>
      <trkpt lat="46.17705" lon="6.48609">
        <ele>890.92578125</ele>
        <time>2021-06-26T14:04:56Z</time>
      </trkpt>
      <trkpt lat="46.17705" lon="6.48614">
        <ele>890.82421875</ele>
        <time>2021-06-26T14:04:57Z</time>
      </trkpt>
      <trkpt lat="46.17705" lon="6.4862">
        <ele>890.90234375</ele>
        <time>2021-06-26T14:04:58Z</time>
      </trkpt>
      <trkpt lat="46.17706" lon="6.48625">
        <ele>890.83984375</ele>
        <time>2021-06-26T14:04:59Z</time>
      </trkpt>
      <trkpt lat="46.17705" lon="6.48629">
        <ele>890.48828125</ele>
        <time>2021-06-26T14:05:00Z</time>
      </trkpt>
      <trkpt lat="46.17705" lon="6.48632">
        <ele>890.29296875</ele>
        <time>2021-06-26T14:05:01Z</time>
      </trkpt>
      <trkpt lat="46.17704" lon="6.48644">
        <ele>889.11328125</ele>
        <time>2021-06-26T14:05:05Z</time>
      </trkpt>
      <trkpt lat="46.17704" lon="6.48648">
        <ele>888.9375</ele>
        <time>2021-06-26T14:05:06Z</time>
      </trkpt>
      <trkpt lat="46.1771" lon="6.48664">
        <ele>891.97265625</ele>
        <time>2021-06-26T14:05:11Z</time>
      </trkpt>
      <trkpt lat="46.1771" lon="6.48696">
        <ele>887.0859375</ele>
        <time>2021-06-26T14:05:16Z</time>
      </trkpt>
      <trkpt lat="46.17709" lon="6.48713">
        <ele>883.59765625</ele>
        <time>2021-06-26T14:05:18Z</time>
      </trkpt>
      <trkpt lat="46.17708" lon="6.48728">
        <ele>880.51171875</ele>
        <time>2021-06-26T14:05:20Z</time>
      </trkpt>
      <trkpt lat="46.17708" lon="6.48744">
        <ele>877.1875</ele>
        <time>2021-06-26T14:05:22Z</time>
      </trkpt>
      <trkpt lat="46.17709" lon="6.48751">
        <ele>876.3203125</ele>
        <time>2021-06-26T14:05:23Z</time>
      </trkpt>
      <trkpt lat="46.1771" lon="6.48757">
        <ele>876.07421875</ele>
        <time>2021-06-26T14:05:24Z</time>
      </trkpt>
      <trkpt lat="46.17712" lon="6.48761">
        <ele>876.140625</ele>
        <time>2021-06-26T14:05:25Z</time>
      </trkpt>
      <trkpt lat="46.17714" lon="6.48764">
        <ele>876.44140625</ele>
        <time>2021-06-26T14:05:26Z</time>
      </trkpt>
      <trkpt lat="46.17716" lon="6.48769">
        <ele>876.51171875</ele>
        <time>2021-06-26T14:05:27Z</time>
      </trkpt>
      <trkpt lat="46.17719" lon="6.48774">
        <ele>876.6015625</ele>
        <time>2021-06-26T14:05:28Z</time>
      </trkpt>
      <trkpt lat="46.17724" lon="6.48786">
        <ele>876.8125</ele>
        <time>2021-06-26T14:05:30Z</time>
      </trkpt>
      <trkpt lat="46.17725" lon="6.48792">
        <ele>875.98828125</ele>
        <time>2021-06-26T14:05:31Z</time>
      </trkpt>
      <trkpt lat="46.1772" lon="6.48832">
        <ele>864.62109375</ele>
        <time>2021-06-26T14:05:39Z</time>
      </trkpt>
      <trkpt lat="46.17718" lon="6.48836">
        <ele>862.19921875</ele>
        <time>2021-06-26T14:05:40Z</time>
      </trkpt>
      <trkpt lat="46.17713" lon="6.48845">
        <ele>857.546875</ele>
        <time>2021-06-26T14:05:42Z</time>
      </trkpt>
      <trkpt lat="46.17711" lon="6.4885">
        <ele>855.38671875</ele>
        <time>2021-06-26T14:05:43Z</time>
      </trkpt>
      <trkpt lat="46.17711" lon="6.48855">
        <ele>854.0625</ele>
        <time>2021-06-26T14:05:44Z</time>
      </trkpt>
      <trkpt lat="46.17712" lon="6.48859">
        <ele>853.55859375</ele>
        <time>2021-06-26T14:05:45Z</time>
      </trkpt>
      <trkpt lat="46.17714" lon="6.48862">
        <ele>853.88671875</ele>
        <time>2021-06-26T14:05:46Z</time>
      </trkpt>
      <trkpt lat="46.17716" lon="6.48864">
        <ele>854.22265625</ele>
        <time>2021-06-26T14:05:47Z</time>
      </trkpt>
      <trkpt lat="46.17718" lon="6.48866">
        <ele>854.60546875</ele>
        <time>2021-06-26T14:05:48Z</time>
      </trkpt>
      <trkpt lat="46.17727" lon="6.48877">
        <ele>856.73828125</ele>
        <time>2021-06-26T14:05:52Z</time>
      </trkpt>
      <trkpt lat="46.17729" lon="6.48879">
        <ele>857.328125</ele>
        <time>2021-06-26T14:05:53Z</time>
      </trkpt>
      <trkpt lat="46.17728" lon="6.48887">
        <ele>854.6953125</ele>
        <time>2021-06-26T14:05:57Z</time>
      </trkpt>
      <trkpt lat="46.17719" lon="6.48893">
        <ele>847.70703125</ele>
        <time>2021-06-26T14:06:02Z</time>
      </trkpt>
      <trkpt lat="46.17715" lon="6.48897">
        <ele>844.6015625</ele>
        <time>2021-06-26T14:06:05Z</time>
      </trkpt>
      <trkpt lat="46.1771" lon="6.489">
        <ele>840.34375</ele>
        <time>2021-06-26T14:06:09Z</time>
      </trkpt>
      <trkpt lat="46.17709" lon="6.48903">
        <ele>838.8984375</ele>
        <time>2021-06-26T14:06:10Z</time>
      </trkpt>
      <trkpt lat="46.17709" lon="6.48905">
        <ele>837.875</ele>
        <time>2021-06-26T14:06:11Z</time>
      </trkpt>
      <trkpt lat="46.17706" lon="6.48916">
        <ele>833.33984375</ele>
        <time>2021-06-26T14:06:14Z</time>
      </trkpt>
      <trkpt lat="46.17707" lon="6.48944">
        <ele>827.046875</ele>
        <time>2021-06-26T14:06:19Z</time>
      </trkpt>
      <trkpt lat="46.17713" lon="6.48967">
        <ele>826.3203125</ele>
        <time>2021-06-26T14:06:23Z</time>
      </trkpt>
      <trkpt lat="46.17715" lon="6.4897">
        <ele>826.3359375</ele>
        <time>2021-06-26T14:06:24Z</time>
      </trkpt>
      <trkpt lat="46.17718" lon="6.48977">
        <ele>827.09375</ele>
        <time>2021-06-26T14:06:26Z</time>
      </trkpt>
      <trkpt lat="46.1772" lon="6.48981">
        <ele>827.31640625</ele>
        <time>2021-06-26T14:06:27Z</time>
      </trkpt>
      <trkpt lat="46.17721" lon="6.48986">
        <ele>827.08984375</ele>
        <time>2021-06-26T14:06:28Z</time>
      </trkpt>
      <trkpt lat="46.17723" lon="6.48992">
        <ele>826.796875</ele>
        <time>2021-06-26T14:06:29Z</time>
      </trkpt>
      <trkpt lat="46.17724" lon="6.48997">
        <ele>826.36328125</ele>
        <time>2021-06-26T14:06:30Z</time>
      </trkpt>
      <trkpt lat="46.17725" lon="6.49001">
        <ele>826.15234375</ele>
        <time>2021-06-26T14:06:31Z</time>
      </trkpt>
      <trkpt lat="46.17726" lon="6.49005">
        <ele>825.80859375</ele>
        <time>2021-06-26T14:06:32Z</time>
      </trkpt>
      <trkpt lat="46.17728" lon="6.4901">
        <ele>825.75</ele>
        <time>2021-06-26T14:06:33Z</time>
      </trkpt>
      <trkpt lat="46.17729" lon="6.49013">
        <ele>825.96484375</ele>
        <time>2021-06-26T14:06:34Z</time>
      </trkpt>
      <trkpt lat="46.17732" lon="6.49018">
        <ele>826.16015625</ele>
        <time>2021-06-26T14:06:35Z</time>
      </trkpt>
      <trkpt lat="46.17733" lon="6.49021">
        <ele>826.46875</ele>
        <time>2021-06-26T14:06:36Z</time>
      </trkpt>
      <trkpt lat="46.17739" lon="6.49044">
        <ele>824.828125</ele>
        <time>2021-06-26T14:06:40Z</time>
      </trkpt>
      <trkpt lat="46.1774" lon="6.49068">
        <ele>822.8359375</ele>
        <time>2021-06-26T14:06:44Z</time>
      </trkpt>
      <trkpt lat="46.1774" lon="6.49073">
        <ele>822.42578125</ele>
        <time>2021-06-26T14:06:45Z</time>
      </trkpt>
      <trkpt lat="46.17734" lon="6.491">
        <ele>819.01171875</ele>
        <time>2021-06-26T14:06:51Z</time>
      </trkpt>
      <trkpt lat="46.17732" lon="6.49106">
        <ele>818.02734375</ele>
        <time>2021-06-26T14:06:52Z</time>
      </trkpt>
      <trkpt lat="46.17731" lon="6.49111">
        <ele>817.14453125</ele>
        <time>2021-06-26T14:06:53Z</time>
      </trkpt>
      <trkpt lat="46.1773" lon="6.49116">
        <ele>816.76953125</ele>
        <time>2021-06-26T14:06:54Z</time>
      </trkpt>
      <trkpt lat="46.17731" lon="6.49121">
        <ele>816.75390625</ele>
        <time>2021-06-26T14:06:55Z</time>
      </trkpt>
      <trkpt lat="46.17733" lon="6.49128">
        <ele>816.94140625</ele>
        <time>2021-06-26T14:06:56Z</time>
      </trkpt>
      <trkpt lat="46.17734" lon="6.49134">
        <ele>816.96484375</ele>
        <time>2021-06-26T14:06:57Z</time>
      </trkpt>
      <trkpt lat="46.17734" lon="6.49138">
        <ele>816.8203125</ele>
        <time>2021-06-26T14:06:58Z</time>
      </trkpt>
      <trkpt lat="46.17734" lon="6.49142">
        <ele>816.3984375</ele>
        <time>2021-06-26T14:06:59Z</time>
      </trkpt>
      <trkpt lat="46.17733" lon="6.49146">
        <ele>815.9296875</ele>
        <time>2021-06-26T14:07:00Z</time>
      </trkpt>
      <trkpt lat="46.17732" lon="6.49154">
        <ele>815.0390625</ele>
        <time>2021-06-26T14:07:02Z</time>
      </trkpt>
      <trkpt lat="46.17733" lon="6.49159">
        <ele>815.03515625</ele>
        <time>2021-06-26T14:07:03Z</time>
      </trkpt>
      <trkpt lat="46.17734" lon="6.49163">
        <ele>815.1328125</ele>
        <time>2021-06-26T14:07:04Z</time>
      </trkpt>
      <trkpt lat="46.17735" lon="6.49168">
        <ele>815.20703125</ele>
        <time>2021-06-26T14:07:05Z</time>
      </trkpt>
      <trkpt lat="46.17736" lon="6.49172">
        <ele>815.2421875</ele>
        <time>2021-06-26T14:07:06Z</time>
      </trkpt>
      <trkpt lat="46.17737" lon="6.49177">
        <ele>815.296875</ele>
        <time>2021-06-26T14:07:07Z</time>
      </trkpt>
      <trkpt lat="46.17749" lon="6.49252">
        <ele>818.19140625</ele>
        <time>2021-06-26T14:07:20Z</time>
      </trkpt>
      <trkpt lat="46.17751" lon="6.49282">
        <ele>817.2890625</ele>
        <time>2021-06-26T14:07:25Z</time>
      </trkpt>
      <trkpt lat="46.17763" lon="6.49321">
        <ele>817.66796875</ele>
        <time>2021-06-26T14:07:32Z</time>
      </trkpt>
      <trkpt lat="46.17771" lon="6.49343">
        <ele>818.09375</ele>
        <time>2021-06-26T14:07:36Z</time>
      </trkpt>
      <trkpt lat="46.17787" lon="6.49383">
        <ele>818.8828125</ele>
        <time>2021-06-26T14:07:43Z</time>
      </trkpt>
      <trkpt lat="46.1779" lon="6.49388">
        <ele>819.24609375</ele>
        <time>2021-06-26T14:07:44Z</time>
      </trkpt>
      <trkpt lat="46.17809" lon="6.49409">
        <ele>822.28125</ele>
        <time>2021-06-26T14:07:52Z</time>
      </trkpt>
      <trkpt lat="46.1783" lon="6.49428">
        <ele>826.23046875</ele>
        <time>2021-06-26T14:08:04Z</time>
      </trkpt>
      <trkpt lat="46.17839" lon="6.49433">
        <ele>827.82421875</ele>
        <time>2021-06-26T14:08:09Z</time>
      </trkpt>
      <trkpt lat="46.17841" lon="6.49433">
        <ele>828.3515625</ele>
        <time>2021-06-26T14:08:10Z</time>
      </trkpt>
      <trkpt lat="46.17843" lon="6.49433">
        <ele>828.796875</ele>
        <time>2021-06-26T14:08:11Z</time>
      </trkpt>
      <trkpt lat="46.17865" lon="6.49435">
        <ele>834.05078125</ele>
        <time>2021-06-26T14:08:22Z</time>
      </trkpt>
      <trkpt lat="46.17885" lon="6.49417">
        <ele>839.55078125</ele>
        <time>2021-06-26T14:08:33Z</time>
      </trkpt>
      <trkpt lat="46.17896" lon="6.494">
        <ele>842.96875</ele>
        <time>2021-06-26T14:08:42Z</time>
      </trkpt>
      <trkpt lat="46.17904" lon="6.49399">
        <ele>844.90234375</ele>
        <time>2021-06-26T14:08:49Z</time>
      </trkpt>
      <trkpt lat="46.17916" lon="6.49405">
        <ele>847.640625</ele>
        <time>2021-06-26T14:08:58Z</time>
      </trkpt>
      <trkpt lat="46.17925" lon="6.49412">
        <ele>849.484375</ele>
        <time>2021-06-26T14:09:04Z</time>
      </trkpt>
      <trkpt lat="46.17934" lon="6.49423">
        <ele>851.48828125</ele>
        <time>2021-06-26T14:09:11Z</time>
      </trkpt>
      <trkpt lat="46.17936" lon="6.49425">
        <ele>851.7109375</ele>
        <time>2021-06-26T14:09:12Z</time>
      </trkpt>
      <trkpt lat="46.17937" lon="6.49427">
        <ele>852.0390625</ele>
        <time>2021-06-26T14:09:13Z</time>
      </trkpt>
      <trkpt lat="46.17947" lon="6.49444">
        <ele>854.05078125</ele>
        <time>2021-06-26T14:09:24Z</time>
      </trkpt>
      <trkpt lat="46.17953" lon="6.49452">
        <ele>855.20703125</ele>
        <time>2021-06-26T14:09:30Z</time>
      </trkpt>
      <trkpt lat="46.17956" lon="6.49455">
        <ele>855.5859375</ele>
        <time>2021-06-26T14:09:32Z</time>
      </trkpt>
      <trkpt lat="46.17965" lon="6.49466">
        <ele>857.52734375</ele>
        <time>2021-06-26T14:09:40Z</time>
      </trkpt>
      <trkpt lat="46.17978" lon="6.49484">
        <ele>861.0625</ele>
        <time>2021-06-26T14:09:51Z</time>
      </trkpt>
      <trkpt lat="46.17992" lon="6.49502">
        <ele>863.89453125</ele>
        <time>2021-06-26T14:09:59Z</time>
      </trkpt>
      <trkpt lat="46.17994" lon="6.49505">
        <ele>864.41796875</ele>
        <time>2021-06-26T14:10:00Z</time>
      </trkpt>
      <trkpt lat="46.17995" lon="6.49507">
        <ele>864.7578125</ele>
        <time>2021-06-26T14:10:01Z</time>
      </trkpt>
      <trkpt lat="46.17997" lon="6.4951">
        <ele>865.0703125</ele>
        <time>2021-06-26T14:10:02Z</time>
      </trkpt>
      <trkpt lat="46.17998" lon="6.49512">
        <ele>865.05078125</ele>
        <time>2021-06-26T14:10:03Z</time>
      </trkpt>
      <trkpt lat="46.17999" lon="6.49514">
        <ele>865.03125</ele>
        <time>2021-06-26T14:10:04Z</time>
      </trkpt>
      <trkpt lat="46.18002" lon="6.49517">
        <ele>865.63671875</ele>
        <time>2021-06-26T14:10:06Z</time>
      </trkpt>
      <trkpt lat="46.18004" lon="6.49518">
        <ele>866.22265625</ele>
        <time>2021-06-26T14:10:07Z</time>
      </trkpt>
      <trkpt lat="46.18005" lon="6.4952">
        <ele>866.578125</ele>
        <time>2021-06-26T14:10:08Z</time>
      </trkpt>
      <trkpt lat="46.18007" lon="6.49521">
        <ele>866.828125</ele>
        <time>2021-06-26T14:10:09Z</time>
      </trkpt>
      <trkpt lat="46.18008" lon="6.49523">
        <ele>866.8515625</ele>
        <time>2021-06-26T14:10:10Z</time>
      </trkpt>
      <trkpt lat="46.18009" lon="6.49525">
        <ele>866.734375</ele>
        <time>2021-06-26T14:10:11Z</time>
      </trkpt>
      <trkpt lat="46.18009" lon="6.49527">
        <ele>866.38671875</ele>
        <time>2021-06-26T14:10:12Z</time>
      </trkpt>
      <trkpt lat="46.18011" lon="6.49528">
        <ele>866.34765625</ele>
        <time>2021-06-26T14:10:13Z</time>
      </trkpt>
      <trkpt lat="46.18012" lon="6.4953">
        <ele>866.4375</ele>
        <time>2021-06-26T14:10:14Z</time>
      </trkpt>
      <trkpt lat="46.18013" lon="6.49532">
        <ele>866.453125</ele>
        <time>2021-06-26T14:10:15Z</time>
      </trkpt>
      <trkpt lat="46.18014" lon="6.49533">
        <ele>866.40234375</ele>
        <time>2021-06-26T14:10:16Z</time>
      </trkpt>
      <trkpt lat="46.18015" lon="6.49535">
        <ele>866.23046875</ele>
        <time>2021-06-26T14:10:17Z</time>
      </trkpt>
      <trkpt lat="46.18025" lon="6.49554">
        <ele>865.40625</ele>
        <time>2021-06-26T14:10:26Z</time>
      </trkpt>
      <trkpt lat="46.1803" lon="6.49562">
        <ele>865.8203125</ele>
        <time>2021-06-26T14:10:30Z</time>
      </trkpt>
      <trkpt lat="46.18032" lon="6.49563">
        <ele>866.32421875</ele>
        <time>2021-06-26T14:10:31Z</time>
      </trkpt>
      <trkpt lat="46.18043" lon="6.49579">
        <ele>867.2578125</ele>
        <time>2021-06-26T14:10:38Z</time>
      </trkpt>
      <trkpt lat="46.18054" lon="6.49598">
        <ele>866.125</ele>
        <time>2021-06-26T14:10:46Z</time>
      </trkpt>
      <trkpt lat="46.18071" lon="6.49615">
        <ele>868.16015625</ele>
        <time>2021-06-26T14:10:56Z</time>
      </trkpt>
      <trkpt lat="46.1809" lon="6.49619">
        <ele>876.98046875</ele>
        <time>2021-06-26T14:11:06Z</time>
      </trkpt>
      <trkpt lat="46.18092" lon="6.49618">
        <ele>878.6328125</ele>
        <time>2021-06-26T14:11:07Z</time>
      </trkpt>
      <trkpt lat="46.18094" lon="6.49616">
        <ele>880.1953125</ele>
        <time>2021-06-26T14:11:08Z</time>
      </trkpt>
      <trkpt lat="46.18095" lon="6.49613">
        <ele>881.47265625</ele>
        <time>2021-06-26T14:11:09Z</time>
      </trkpt>
      <trkpt lat="46.181" lon="6.49602">
        <ele>888.02734375</ele>
        <time>2021-06-26T14:11:14Z</time>
      </trkpt>
      <trkpt lat="46.18103" lon="6.49596">
        <ele>891.73828125</ele>
        <time>2021-06-26T14:11:18Z</time>
      </trkpt>
      <trkpt lat="46.18104" lon="6.49595">
        <ele>892.296875</ele>
        <time>2021-06-26T14:11:19Z</time>
      </trkpt>
      <trkpt lat="46.18116" lon="6.49587">
        <ele>897.328125</ele>
        <time>2021-06-26T14:11:26Z</time>
      </trkpt>
      <trkpt lat="46.18142" lon="6.49582">
        <ele>903.8203125</ele>
        <time>2021-06-26T14:11:38Z</time>
      </trkpt>
      <trkpt lat="46.18144" lon="6.49583">
        <ele>903.84375</ele>
        <time>2021-06-26T14:11:39Z</time>
      </trkpt>
      <trkpt lat="46.18164" lon="6.49594">
        <ele>905.71484375</ele>
        <time>2021-06-26T14:11:49Z</time>
      </trkpt>
      <trkpt lat="46.18188" lon="6.49601">
        <ele>910.94140625</ele>
        <time>2021-06-26T14:12:00Z</time>
      </trkpt>
      <trkpt lat="46.18202" lon="6.49599">
        <ele>915.55078125</ele>
        <time>2021-06-26T14:12:07Z</time>
      </trkpt>
      <trkpt lat="46.18217" lon="6.49598">
        <ele>919.82421875</ele>
        <time>2021-06-26T14:12:14Z</time>
      </trkpt>
      <trkpt lat="46.18223" lon="6.496">
        <ele>921.0703125</ele>
        <time>2021-06-26T14:12:16Z</time>
      </trkpt>
      <trkpt lat="46.18241" lon="6.49607">
        <ele>926.10546875</ele>
        <time>2021-06-26T14:12:24Z</time>
      </trkpt>
      <trkpt lat="46.18262" lon="6.4962">
        <ele>932.28515625</ele>
        <time>2021-06-26T14:12:34Z</time>
      </trkpt>
      <trkpt lat="46.18283" lon="6.49617">
        <ele>935.88671875</ele>
        <time>2021-06-26T14:12:43Z</time>
      </trkpt>
      <trkpt lat="46.18287" lon="6.49616">
        <ele>936.55078125</ele>
        <time>2021-06-26T14:12:45Z</time>
      </trkpt>
      <trkpt lat="46.18302" lon="6.49612">
        <ele>939.23828125</ele>
        <time>2021-06-26T14:12:52Z</time>
      </trkpt>
      <trkpt lat="46.18304" lon="6.49611">
        <ele>939.59375</ele>
        <time>2021-06-26T14:12:53Z</time>
      </trkpt>
      <trkpt lat="46.18318" lon="6.49605">
        <ele>942.53125</ele>
        <time>2021-06-26T14:13:00Z</time>
      </trkpt>
      <trkpt lat="46.18333" lon="6.49604">
        <ele>945.140625</ele>
        <time>2021-06-26T14:13:07Z</time>
      </trkpt>
      <trkpt lat="46.18355" lon="6.49607">
        <ele>947.734375</ele>
        <time>2021-06-26T14:13:20Z</time>
      </trkpt>
      <trkpt lat="46.18358" lon="6.49606">
        <ele>947.85546875</ele>
        <time>2021-06-26T14:13:22Z</time>
      </trkpt>
      <trkpt lat="46.18371" lon="6.49596">
        <ele>949.42578125</ele>
        <time>2021-06-26T14:13:26Z</time>
      </trkpt>
      <trkpt lat="46.18383" lon="6.49585">
        <ele>951.1171875</ele>
        <time>2021-06-26T14:13:29Z</time>
      </trkpt>
      <trkpt lat="46.18392" lon="6.49576">
        <ele>950.48046875</ele>
        <time>2021-06-26T14:13:31Z</time>
      </trkpt>
      <trkpt lat="46.18416" lon="6.49554">
        <ele>947.42578125</ele>
        <time>2021-06-26T14:13:34Z</time>
      </trkpt>
      <trkpt lat="46.18445" lon="6.49519">
        <ele>942.52734375</ele>
        <time>2021-06-26T14:13:39Z</time>
      </trkpt>
      <trkpt lat="46.1846" lon="6.49498">
        <ele>939.8828125</ele>
        <time>2021-06-26T14:13:42Z</time>
      </trkpt>
      <trkpt lat="46.18478" lon="6.49474">
        <ele>936.5703125</ele>
        <time>2021-06-26T14:13:46Z</time>
      </trkpt>
      <trkpt lat="46.18495" lon="6.49462">
        <ele>931.5703125</ele>
        <time>2021-06-26T14:13:50Z</time>
      </trkpt>
      <trkpt lat="46.18503" lon="6.49457">
        <ele>929.70703125</ele>
        <time>2021-06-26T14:13:52Z</time>
      </trkpt>
      <trkpt lat="46.18508" lon="6.49453">
        <ele>928.6796875</ele>
        <time>2021-06-26T14:13:53Z</time>
      </trkpt>
      <trkpt lat="46.18514" lon="6.49449">
        <ele>927.56640625</ele>
        <time>2021-06-26T14:13:54Z</time>
      </trkpt>
      <trkpt lat="46.18518" lon="6.49445">
        <ele>926.6484375</ele>
        <time>2021-06-26T14:13:55Z</time>
      </trkpt>
      <trkpt lat="46.18522" lon="6.49441">
        <ele>925.84375</ele>
        <time>2021-06-26T14:13:56Z</time>
      </trkpt>
      <trkpt lat="46.18527" lon="6.49437">
        <ele>924.94140625</ele>
        <time>2021-06-26T14:13:57Z</time>
      </trkpt>
      <trkpt lat="46.18531" lon="6.49432">
        <ele>924.0546875</ele>
        <time>2021-06-26T14:13:58Z</time>
      </trkpt>
      <trkpt lat="46.18546" lon="6.49413">
        <ele>921.13671875</ele>
        <time>2021-06-26T14:14:02Z</time>
      </trkpt>
      <trkpt lat="46.18553" lon="6.49405">
        <ele>919.66796875</ele>
        <time>2021-06-26T14:14:04Z</time>
      </trkpt>
      <trkpt lat="46.18566" lon="6.49391">
        <ele>916.9140625</ele>
        <time>2021-06-26T14:14:08Z</time>
      </trkpt>
      <trkpt lat="46.18572" lon="6.49384">
        <ele>915.58984375</ele>
        <time>2021-06-26T14:14:10Z</time>
      </trkpt>
      <trkpt lat="46.18583" lon="6.49371">
        <ele>912.66796875</ele>
        <time>2021-06-26T14:14:13Z</time>
      </trkpt>
      <trkpt lat="46.18587" lon="6.49365">
        <ele>911.80078125</ele>
        <time>2021-06-26T14:14:14Z</time>
      </trkpt>
      <trkpt lat="46.18594" lon="6.49348">
        <ele>910.109375</ele>
        <time>2021-06-26T14:14:17Z</time>
      </trkpt>
      <trkpt lat="46.18597" lon="6.49342">
        <ele>909.6015625</ele>
        <time>2021-06-26T14:14:18Z</time>
      </trkpt>
      <trkpt lat="46.18601" lon="6.49337">
        <ele>908.79296875</ele>
        <time>2021-06-26T14:14:19Z</time>
      </trkpt>
      <trkpt lat="46.18604" lon="6.49331">
        <ele>908.0546875</ele>
        <time>2021-06-26T14:14:20Z</time>
      </trkpt>
      <trkpt lat="46.18608" lon="6.49327">
        <ele>907.38671875</ele>
        <time>2021-06-26T14:14:21Z</time>
      </trkpt>
      <trkpt lat="46.18617" lon="6.49312">
        <ele>906.453125</ele>
        <time>2021-06-26T14:14:25Z</time>
      </trkpt>
      <trkpt lat="46.1862" lon="6.49309">
        <ele>905.71484375</ele>
        <time>2021-06-26T14:14:26Z</time>
      </trkpt>
      <trkpt lat="46.18638" lon="6.49302">
        <ele>900.76953125</ele>
        <time>2021-06-26T14:14:31Z</time>
      </trkpt>
      <trkpt lat="46.18641" lon="6.49301">
        <ele>900.08984375</ele>
        <time>2021-06-26T14:14:32Z</time>
      </trkpt>
      <trkpt lat="46.18644" lon="6.49299">
        <ele>899.4921875</ele>
        <time>2021-06-26T14:14:33Z</time>
      </trkpt>
      <trkpt lat="46.18648" lon="6.49297">
        <ele>898.859375</ele>
        <time>2021-06-26T14:14:34Z</time>
      </trkpt>
      <trkpt lat="46.18651" lon="6.49296">
        <ele>898.15234375</ele>
        <time>2021-06-26T14:14:35Z</time>
      </trkpt>
      <trkpt lat="46.18656" lon="6.49294">
        <ele>897.27734375</ele>
        <time>2021-06-26T14:14:36Z</time>
      </trkpt>
      <trkpt lat="46.18662" lon="6.49291">
        <ele>896.3984375</ele>
        <time>2021-06-26T14:14:37Z</time>
      </trkpt>
      <trkpt lat="46.18675" lon="6.49287">
        <ele>894.1484375</ele>
        <time>2021-06-26T14:14:39Z</time>
      </trkpt>
      <trkpt lat="46.18714" lon="6.49277">
        <ele>888.03515625</ele>
        <time>2021-06-26T14:14:45Z</time>
      </trkpt>
      <trkpt lat="46.18735" lon="6.49274">
        <ele>886.39453125</ele>
        <time>2021-06-26T14:14:48Z</time>
      </trkpt>
      <trkpt lat="46.18779" lon="6.49264">
        <ele>884.015625</ele>
        <time>2021-06-26T14:14:54Z</time>
      </trkpt>
      <trkpt lat="46.18861" lon="6.49249">
        <ele>880.60546875</ele>
        <time>2021-06-26T14:15:07Z</time>
      </trkpt>
      <trkpt lat="46.18867" lon="6.49249">
        <ele>880.56640625</ele>
        <time>2021-06-26T14:15:08Z</time>
      </trkpt>
      <trkpt lat="46.18922" lon="6.49262">
        <ele>880.5234375</ele>
        <time>2021-06-26T14:15:20Z</time>
      </trkpt>
      <trkpt lat="46.18983" lon="6.49269">
        <ele>880.5390625</ele>
        <time>2021-06-26T14:15:32Z</time>
      </trkpt>
      <trkpt lat="46.18988" lon="6.49269">
        <ele>880.37109375</ele>
        <time>2021-06-26T14:15:33Z</time>
      </trkpt>
      <trkpt lat="46.18997" lon="6.49269">
        <ele>880.23046875</ele>
        <time>2021-06-26T14:15:35Z</time>
      </trkpt>
      <trkpt lat="46.19003" lon="6.49271">
        <ele>880.015625</ele>
        <time>2021-06-26T14:15:36Z</time>
      </trkpt>
      <trkpt lat="46.19008" lon="6.49273">
        <ele>879.74609375</ele>
        <time>2021-06-26T14:15:37Z</time>
      </trkpt>
      <trkpt lat="46.19049" lon="6.49295">
        <ele>878.64453125</ele>
        <time>2021-06-26T14:15:45Z</time>
      </trkpt>
      <trkpt lat="46.19107" lon="6.49335">
        <ele>878.3046875</ele>
        <time>2021-06-26T14:15:59Z</time>
      </trkpt>
      <trkpt lat="46.19132" lon="6.49362">
        <ele>877.03515625</ele>
        <time>2021-06-26T14:16:05Z</time>
      </trkpt>
      <trkpt lat="46.19206" lon="6.49425">
        <ele>876.71484375</ele>
        <time>2021-06-26T14:16:20Z</time>
      </trkpt>
      <trkpt lat="46.19211" lon="6.49428">
        <ele>876.765625</ele>
        <time>2021-06-26T14:16:21Z</time>
      </trkpt>
      <trkpt lat="46.19225" lon="6.49437">
        <ele>877.24609375</ele>
        <time>2021-06-26T14:16:24Z</time>
      </trkpt>
      <trkpt lat="46.19284" lon="6.49477">
        <ele>877.44921875</ele>
        <time>2021-06-26T14:16:36Z</time>
      </trkpt>
      <trkpt lat="46.19289" lon="6.49479">
        <ele>877.44921875</ele>
        <time>2021-06-26T14:16:37Z</time>
      </trkpt>
      <trkpt lat="46.19335" lon="6.49508">
        <ele>877.328125</ele>
        <time>2021-06-26T14:16:46Z</time>
      </trkpt>
      <trkpt lat="46.19387" lon="6.49554">
        <ele>879.30078125</ele>
        <time>2021-06-26T14:16:58Z</time>
      </trkpt>
      <trkpt lat="46.19454" lon="6.49596">
        <ele>881.54296875</ele>
        <time>2021-06-26T14:17:13Z</time>
      </trkpt>
      <trkpt lat="46.19462" lon="6.496">
        <ele>881.39453125</ele>
        <time>2021-06-26T14:17:15Z</time>
      </trkpt>
      <trkpt lat="46.19465" lon="6.49605">
        <ele>880.96484375</ele>
        <time>2021-06-26T14:17:16Z</time>
      </trkpt>
      <trkpt lat="46.19465" lon="6.49612">
        <ele>880.234375</ele>
        <time>2021-06-26T14:17:17Z</time>
      </trkpt>
      <trkpt lat="46.19465" lon="6.4962">
        <ele>879.30078125</ele>
        <time>2021-06-26T14:17:18Z</time>
      </trkpt>
      <trkpt lat="46.19464" lon="6.49629">
        <ele>878.359375</ele>
        <time>2021-06-26T14:17:19Z</time>
      </trkpt>
      <trkpt lat="46.19463" lon="6.49637">
        <ele>877.65625</ele>
        <time>2021-06-26T14:17:20Z</time>
      </trkpt>
      <trkpt lat="46.19461" lon="6.49643">
        <ele>877.11328125</ele>
        <time>2021-06-26T14:17:21Z</time>
      </trkpt>
      <trkpt lat="46.19458" lon="6.49647">
        <ele>876.65625</ele>
        <time>2021-06-26T14:17:22Z</time>
      </trkpt>
      <trkpt lat="46.19454" lon="6.49649">
        <ele>876.25390625</ele>
        <time>2021-06-26T14:17:23Z</time>
      </trkpt>
      <trkpt lat="46.19437" lon="6.49648">
        <ele>875.3671875</ele>
        <time>2021-06-26T14:17:33Z</time>
      </trkpt>
      <trkpt lat="46.19442" lon="6.49649">
        <ele>875.5078125</ele>
        <time>2021-06-26T14:17:44Z</time>
      </trkpt>
      <trkpt lat="46.19444" lon="6.49649">
        <ele>875.64453125</ele>
        <time>2021-06-26T14:17:46Z</time>
      </trkpt>
      <trkpt lat="46.19444" lon="6.49639">
        <ele>876.6015625</ele>
        <time>2021-06-26T14:17:53Z</time>
      </trkpt>
      <trkpt lat="46.19441" lon="6.49637">
        <ele>876.64453125</ele>
        <time>2021-06-26T14:17:56Z</time>
      </trkpt>
      <trkpt lat="46.19423" lon="6.49633">
        <ele>876.078125</ele>
        <time>2021-06-26T14:18:07Z</time>
      </trkpt>
      <trkpt lat="46.1942" lon="6.49635">
        <ele>875.64453125</ele>
        <time>2021-06-26T14:18:17Z</time>
      </trkpt>
      <trkpt lat="46.1942" lon="6.49638">
        <ele>875.234375</ele>
        <time>2021-06-26T14:18:27Z</time>
      </trkpt>
      <trkpt lat="46.19417" lon="6.49646">
        <ele>874.1875</ele>
        <time>2021-06-26T14:18:40Z</time>
      </trkpt>
      <trkpt lat="46.1942" lon="6.49649">
        <ele>874.0546875</ele>
        <time>2021-06-26T14:18:46Z</time>
      </trkpt>
      <trkpt lat="46.19422" lon="6.49652">
        <ele>873.79296875</ele>
        <time>2021-06-26T14:19:02Z</time>
      </trkpt>
      <trkpt lat="46.19424" lon="6.49652">
        <ele>873.9453125</ele>
        <time>2021-06-26T14:19:27Z</time>
      </trkpt>
      <trkpt lat="46.19423" lon="6.49653">
        <ele>873.84375</ele>
        <time>2021-06-26T14:19:54Z</time>
      </trkpt>
      <trkpt lat="46.19423" lon="6.49652">
        <ele>873.96484375</ele>
        <time>2021-06-26T14:20:06Z</time>
      </trkpt>
      <trkpt lat="46.19423" lon="6.49653">
        <ele>873.83984375</ele>
        <time>2021-06-26T14:20:44Z</time>
      </trkpt>
      <trkpt lat="46.19422" lon="6.4965">
        <ele>874.0703125</ele>
        <time>2021-06-26T14:20:56Z</time>
      </trkpt>
      <trkpt lat="46.19423" lon="6.49651">
        <ele>874.0859375</ele>
        <time>2021-06-26T14:21:01Z</time>
      </trkpt>
      <trkpt lat="46.19422" lon="6.49651">
        <ele>874.03125</ele>
        <time>2021-06-26T14:21:18Z</time>
      </trkpt>
      <trkpt lat="46.19423" lon="6.4965">
        <ele>874.1953125</ele>
        <time>2021-06-26T14:21:51Z</time>
      </trkpt>
      <trkpt lat="46.19424" lon="6.49649">
        <ele>874.30859375</ele>
        <time>2021-06-26T14:22:19Z</time>
      </trkpt>
      <trkpt lat="46.19422" lon="6.49653">
        <ele>873.796875</ele>
        <time>2021-06-26T14:22:49Z</time>
      </trkpt>
      <trkpt lat="46.19423" lon="6.49653">
        <ele>873.78515625</ele>
        <time>2021-06-26T14:23:17Z</time>
      </trkpt>
      <trkpt lat="46.19422" lon="6.4965">
        <ele>874.109375</ele>
        <time>2021-06-26T14:23:42Z</time>
      </trkpt>
      <trkpt lat="46.19423" lon="6.49649">
        <ele>874.22265625</ele>
        <time>2021-06-26T14:24:19Z</time>
      </trkpt>
      <trkpt lat="46.19423" lon="6.49648">
        <ele>874.41015625</ele>
        <time>2021-06-26T14:24:40Z</time>
      </trkpt>
      <trkpt lat="46.19424" lon="6.49649">
        <ele>874.39453125</ele>
        <time>2021-06-26T14:25:10Z</time>
      </trkpt>
      <trkpt lat="46.19425" lon="6.49649">
        <ele>874.359375</ele>
        <time>2021-06-26T14:25:35Z</time>
      </trkpt>
    </trkseg>
  </trk>
</gpx>